ftp/pub/palmer/observations_modified/2019/October/original_files/AR191017_BASE.txt
Download
Sample DateTime Unit Id WS Avg 2min WD Avg 2min WGS 10min WGD 10min Air Temp Rel Humidity Dew Point Pyranometer Quantum Air Pressure Snow Level Rainfall PW Current Visibility CBase 1 CBase 2 CBase 3 Vert Vis
2019/10/17 00:00:00 BASE 0.67 120 2.16 103 -0.2 100 -0.2 0 0 994.3 NA 0.0000 9999 10790 0 0 0
2019/10/17 00:01:00 BASE 1.37 135 2.11 88 -0.2 100 -0.2 0 0 994.2 NA 0.0000 9999 10530 0 0 0
2019/10/17 00:02:00 BASE 1.92 157 2.42 174 -0.2 100 -0.2 0 0 994.2 NA 0.0000 9999 10630 0 0 0
2019/10/17 00:03:00 BASE 1.99 178 2.42 174 -0.2 100 -0.2 0 0 994.1 NA 0.0000 9999 10730 0 0 0
2019/10/17 00:04:00 BASE 1.80 197 2.42 174 -0.2 100 -0.2 0 0 994.1 NA 0.0000 9999 10830 0 0 0
2019/10/17 00:05:00 BASE 1.97 216 2.42 174 -0.2 100 -0.2 0 0 994.1 NA 0.0000 9999 10930 0 0 0
2019/10/17 00:06:00 BASE 2.23 222 2.42 220 -0.2 100 -0.2 0 0 994.1 NA 0.0000 9999 11520 0 0 0
2019/10/17 00:07:00 BASE 2.40 222 2.78 220 -0.3 100 -0.3 0 0 994.1 NA 0.0000 9999 11610 0 0 0
2019/10/17 00:08:00 BASE 2.87 216 3.65 201 -0.3 100 -0.3 0 0 994.0 NA 0.0000 9999 11810 0 0 0
2019/10/17 00:09:00 BASE 3.61 203 4.22 196 -0.3 100 -0.3 0 0 994.0 NA 0.0000 9999 11680 0 0 0
2019/10/17 00:10:00 BASE 4.24 202 4.89 209 -0.3 100 -0.3 0 0 993.9 NA 0.0000 9999 10890 0 0 0
2019/10/17 00:11:00 BASE 4.76 206 5.14 203 -0.4 100 -0.4 0 0 993.9 NA 0.0000 9999 10600 0 0 0
2019/10/17 00:12:00 BASE 5.21 206 5.86 208 -0.4 100 -0.4 0 0 993.8 NA 0.0000 9999 9880 0 0 0
2019/10/17 00:13:00 BASE 5.84 207 6.74 208 -0.5 100 -0.5 0 0 993.7 NA 0.0000 9999 10240 0 0 0
2019/10/17 00:14:00 BASE 6.33 205 7.00 209 -0.5 100 -0.5 0 0 993.7 NA 0.0000 9999 9970 0 0 0
2019/10/17 00:15:00 BASE 5.98 200 7.00 209 -0.5 100 -0.5 0 0 993.6 NA 0.0000 9999 11420 0 0 0
2019/10/17 00:16:00 BASE 4.83 205 7.00 209 -0.5 100 -0.5 0 0 993.7 NA 0.0000 9999 11650 0 0 0
2019/10/17 00:17:00 BASE 3.45 214 7.00 209 -0.5 100 -0.5 0 0 993.7 NA 0.0000 9999 10830 0 0 0
2019/10/17 00:18:00 BASE 2.40 213 7.00 209 -0.5 100 -0.5 0 0 993.7 NA 0.0000 9999 9650 0 0 0
2019/10/17 00:19:00 BASE 1.76 213 7.00 209 -0.5 100 -0.5 0 0 993.7 NA 0.0000 9999 9420 0 0 0
2019/10/17 00:20:00 BASE 1.09 225 7.00 209 -0.5 100 -0.5 0 0 993.6 NA 0.0000 9999 9220 0 0 0
2019/10/17 00:21:00 BASE 0.39 247 7.00 209 -0.5 100 -0.5 0 0 993.6 NA 0.0000 9999 8920 0 0 0
2019/10/17 00:22:00 BASE 0.88 253 7.00 209 -0.5 100 -0.5 0 0 993.6 NA 0.0000 9999 8990 0 0 0
2019/10/17 00:23:00 BASE 1.73 252 7.00 209 -0.5 100 -0.5 0 0 993.5 NA 0.0000 9999 10860 0 0 0
2019/10/17 00:24:00 BASE 0.90 268 6.38 194 -0.5 100 -0.5 0 0 993.5 NA 0.0000 9999 10240 10930 0 0
2019/10/17 00:25:00 BASE 0.04 284 4.63 205 -0.5 100 -0.5 0 0 993.5 NA 0.0000 9999 9680 0 0 0
2019/10/17 00:26:00 BASE 0.58 305 3.45 219 -0.5 100 -0.5 0 0 993.5 NA 0.0000 9999 10760 0 0 0
2019/10/17 00:27:00 BASE 1.66 312 2.73 309 -0.5 100 -0.5 0 0 993.5 NA 0.0000 9999 10040 0 0 0
2019/10/17 00:28:00 BASE 2.97 288 5.14 267 -0.5 100 -0.5 0 0 993.5 NA 0.0000 9999 11060 0 0 0
2019/10/17 00:29:00 BASE 3.92 274 5.14 267 -0.5 100 -0.5 0 0 993.5 NA 0.0000 9999 10830 0 0 0
2019/10/17 00:30:00 BASE 3.98 275 5.14 267 -0.5 100 -0.5 0 0 993.5 NA 0.0000 9999 11580 0 0 0
2019/10/17 00:31:00 BASE 3.41 287 5.14 267 -0.5 100 -0.5 0 0 993.5 NA 0.0000 9999 11480 0 0 0
2019/10/17 00:32:00 BASE 3.29 296 5.14 267 -0.5 100 -0.5 0 0 993.5 NA 0.0000 9999 11550 0 0 0
2019/10/17 00:33:00 BASE 2.86 303 5.14 267 -0.5 100 -0.5 0 0 993.5 NA 0.0000 9999 10500 0 0 0
2019/10/17 00:34:00 BASE 2.11 288 5.14 267 -0.5 100 -0.5 0 0 993.5 NA 0.0000 9999 11580 0 0 0
2019/10/17 00:35:00 BASE 2.45 214 5.14 267 -0.5 100 -0.5 0 0 993.4 NA 0.0000 9999 10830 0 0 0
2019/10/17 00:36:00 BASE 2.69 157 5.14 267 -0.5 100 -0.5 0 0 993.4 NA 0.0000 9999 11020 0 0 0
2019/10/17 00:37:00 BASE 2.97 143 5.14 267 -0.5 100 -0.5 0 0 993.3 NA 0.0000 9999 11320 0 0 0
2019/10/17 00:38:00 BASE 3.33 139 4.99 270 -0.5 100 -0.5 0 0 993.3 NA 0.0000 9999 12400 0 0 0
2019/10/17 00:39:00 BASE 2.89 101 4.58 311 -0.5 100 -0.5 0 0 993.2 NA 0.0000 9999 12010 0 0 0
2019/10/17 00:40:00 BASE 1.84 107 4.58 311 -0.4 100 -0.4 0 0 993.1 NA 0.0000 9999 11520 0 0 0
2019/10/17 00:41:00 BASE 2.29 132 4.58 311 -0.4 100 -0.4 0 0 992.9 NA 0.0000 9999 12110 0 0 0
2019/10/17 00:42:00 BASE 2.59 126 4.22 120 -0.4 100 -0.4 0 0 992.9 NA 0.0000 9999 10530 0 0 0
2019/10/17 00:43:00 BASE 1.49 131 4.22 120 -0.4 100 -0.4 0 0 992.8 NA 0.0000 9999 9880 0 0 0
2019/10/17 00:44:00 BASE 0.67 131 4.22 120 -0.4 100 -0.4 0 0 992.8 NA 0.0000 9999 9650 0 0 0
2019/10/17 00:45:00 BASE 0.41 97 4.22 120 -0.4 100 -0.4 0 0 992.8 NA 0.0000 9999 9880 0 0 0
2019/10/17 00:46:00 BASE 1.21 32 4.22 120 -0.3 100 -0.3 0 0 992.9 NA 0.0000 9999 10730 0 0 0
2019/10/17 00:47:00 BASE 2.13 8 4.22 120 -0.3 100 -0.3 0 0 992.9 NA 0.0000 9999 11250 0 0 0
2019/10/17 00:48:00 BASE 2.88 357 4.37 360 -0.2 100 -0.2 0 0 993.0 NA 0.0000 9999 10930 0 0 0
2019/10/17 00:49:00 BASE 2.87 351 4.37 360 -0.1 100 -0.1 0 0 993.0 NA 0.0000 9999 10790 0 0 0
2019/10/17 00:50:00 BASE 2.09 334 4.37 360 -0.0 100 -0.0 0 0 992.9 NA 0.0000 9999 10960 0 0 0
2019/10/17 00:51:00 BASE 1.02 299 4.37 360 0.0 100 0.0 0 0 992.9 NA 0.0000 9999 11160 0 0 0
2019/10/17 00:52:00 BASE 0.27 238 4.37 360 0.1 100 0.1 0 0 992.9 NA 0.0000 9999 11060 0 0 0
2019/10/17 00:53:00 BASE 0.56 215 4.37 360 0.3 100 0.3 0 0 992.9 NA 0.0000 9999 11190 0 0 0
2019/10/17 00:54:00 BASE 0.99 246 4.37 360 0.3 100 0.3 0 0 992.9 NA 0.0000 9999 10930 0 0 0
2019/10/17 00:55:00 BASE 0.76 265 4.37 360 0.4 100 0.4 0 0 992.9 NA 0.0000 9999 11020 0 0 0
2019/10/17 00:56:00 BASE 1.19 261 4.37 360 0.5 100 0.5 0 0 992.9 NA 0.0000 9999 10960 0 0 0
2019/10/17 00:57:00 BASE 1.85 258 4.37 360 0.5 100 0.5 0 0 992.9 NA 0.0000 9999 10930 0 0 0
2019/10/17 00:58:00 BASE 1.60 267 2.98 347 0.5 100 0.5 0 0 992.9 NA 0.0000 9999 10860 0 0 0
2019/10/17 00:59:00 BASE 1.72 279 2.37 288 0.5 100 0.5 0 0 992.8 NA 0.0000 9999 10140 0 0 0
2019/10/17 01:00:00 BASE 2.36 282 3.34 280 0.5 100 0.5 0 0 992.7 NA 0.0000 9999 10830 0 0 0
2019/10/17 01:01:00 BASE 2.84 280 3.34 280 0.5 100 0.5 0 0 992.7 NA 0.0000 9999 10790 0 0 0
2019/10/17 01:02:00 BASE 2.71 283 3.34 280 0.6 100 0.6 0 0 992.7 NA 0.0000 9999 10760 0 0 0
2019/10/17 01:03:00 BASE 2.13 282 3.34 280 0.6 100 0.6 0 0 992.6 NA 0.0000 9999 10760 0 0 0
2019/10/17 01:04:00 BASE 0.90 279 3.34 280 0.6 100 0.6 0 0 992.5 NA 0.0000 9999 10730 0 0 0
2019/10/17 01:05:00 BASE 0.27 267 3.34 280 0.7 99 0.5 0 0 992.4 NA 0.0000 9999 10760 0 0 0
2019/10/17 01:06:00 BASE 1.68 108 3.34 280 0.6 98 0.4 0 0 992.4 NA 0.0000 9999 10760 0 0 0
2019/10/17 01:07:00 BASE 2.55 98 3.34 280 0.5 98 0.2 0 0 992.3 NA 0.0000 9999 10760 0 0 0
2019/10/17 01:08:00 BASE 1.39 102 3.34 280 0.4 97 0.0 0 0 992.3 NA 0.0000 9999 10890 0 0 0
2019/10/17 01:09:00 BASE 0.69 16 3.34 280 0.3 97 -0.1 0 0 992.4 NA 0.0000 9999 10930 0 0 0
2019/10/17 01:10:00 BASE 0.90 10 3.14 275 0.2 98 -0.1 0 0 992.4 NA 0.0000 9999 10960 0 0 0
2019/10/17 01:11:00 BASE 1.64 27 3.04 98 0.1 99 -0.0 0 0 992.4 NA 0.0000 9999 10960 0 0 0
2019/10/17 01:12:00 BASE 2.56 73 3.55 115 0.1 99 0.1 0 0 992.4 NA 0.0000 9999 11020 0 0 0
2019/10/17 01:13:00 BASE 4.41 114 7.25 128 0.1 100 0.1 0 0 992.4 NA 0.0000 9999 11020 0 0 0
2019/10/17 01:14:00 BASE 5.86 127 7.25 128 0.1 100 0.1 0 0 992.4 NA 0.0000 9999 10890 0 0 0
2019/10/17 01:15:00 BASE 7.00 145 9.62 170 0.1 100 0.1 0 0 992.4 NA 0.0000 9999 12860 0 0 0
2019/10/17 01:16:00 BASE 8.02 164 9.62 170 0.0 100 0.0 0 0 992.4 NA 0.0000 9999 10630 0 0 0
2019/10/17 01:17:00 BASE 6.49 169 9.62 170 -0.1 100 -0.1 0 0 992.5 NA 0.0000 9999 10700 13220 0 0
2019/10/17 01:18:00 BASE 4.57 175 9.62 170 -0.2 100 -0.2 0 0 992.6 NA 0.0000 9999 11580 12600 0 0
2019/10/17 01:19:00 BASE 2.50 177 9.62 170 -0.3 100 -0.3 0 0 992.5 NA 0.0000 9999 12470 0 0 0
2019/10/17 01:20:00 BASE 0.88 172 9.62 170 -0.5 100 -0.5 0 0 992.5 NA 0.0000 9999 12110 0 0 0
2019/10/17 01:21:00 BASE 0.95 174 9.62 170 -0.5 100 -0.5 0 0 992.6 NA 0.0000 9999 12730 0 0 0
2019/10/17 01:22:00 BASE 1.73 168 9.62 170 -0.6 100 -0.6 0 0 992.6 NA 0.0000 9999 12170 0 0 0
2019/10/17 01:23:00 BASE 2.36 149 9.62 170 -0.6 100 -0.6 0 0 992.6 NA 0.0000 9999 11980 0 0 0
2019/10/17 01:24:00 BASE 2.89 140 9.62 170 -0.6 100 -0.6 0 0 992.4 NA 0.0000 9999 12210 0 0 0
2019/10/17 01:25:00 BASE 3.20 141 9.31 172 -0.7 100 -0.7 0 0 992.4 NA 0.0000 9999 12270 0 0 0
2019/10/17 01:26:00 BASE 3.78 151 6.12 168 -0.7 100 -0.7 0 0 992.3 NA 0.0000 9999 12040 0 0 0
2019/10/17 01:27:00 BASE 4.10 157 4.89 171 -0.7 100 -0.7 0 0 992.2 NA 0.0000 9999 12660 0 0 0
2019/10/17 01:28:00 BASE 4.14 156 5.09 176 -0.7 100 -0.7 0 0 992.2 NA 0.0000 9999 12730 0 0 0
2019/10/17 01:29:00 BASE 4.60 151 5.25 138 -0.7 100 -0.7 0 0 992.2 NA 0.0000 9999 10960 12700 0 0
2019/10/17 01:30:00 BASE 5.06 140 5.92 136 -0.7 100 -0.7 0 0 992.2 NA 0.0000 9999 10960 0 0 0
2019/10/17 01:31:00 BASE 5.26 137 5.92 136 -0.7 100 -0.7 0 0 992.2 NA 0.0000 9999 10960 12400 0 0
2019/10/17 01:32:00 BASE 4.86 139 5.92 136 -0.7 100 -0.7 0 0 992.2 NA 0.0000 9999 10960 0 0 0
2019/10/17 01:33:00 BASE 4.95 144 5.92 136 -0.7 100 -0.7 0 0 992.2 NA 0.0000 9999 10990 0 0 0
2019/10/17 01:34:00 BASE 4.89 140 5.92 136 -0.7 100 -0.7 0 0 992.2 NA 0.0000 9999 10930 0 0 0
2019/10/17 01:35:00 BASE 4.61 131 5.92 136 -0.7 100 -0.7 0 0 992.2 NA 0.0000 9999 10890 0 0 0
2019/10/17 01:36:00 BASE 4.56 129 5.97 133 -0.7 100 -0.7 0 0 992.1 NA 0.0000 9999 10790 0 0 0
2019/10/17 01:37:00 BASE 4.64 133 5.97 133 -0.7 100 -0.7 0 0 992.0 NA 0.0000 9999 10830 0 0 0
2019/10/17 01:38:00 BASE 5.41 134 7.25 140 -0.7 100 -0.7 0 0 992.0 NA 0.0000 9999 10860 0 0 0
2019/10/17 01:39:00 BASE 5.96 133 7.51 145 -0.6 100 -0.6 0 0 991.9 NA 0.0000 9999 10830 13060 0 0
2019/10/17 01:40:00 BASE 5.87 140 7.51 145 -0.6 100 -0.6 0 0 991.8 NA 0.0000 9999 10660 0 0 0
2019/10/17 01:41:00 BASE 5.30 150 7.51 145 -0.6 100 -0.6 0 0 991.8 NA 0.0000 9999 10600 0 0 0
2019/10/17 01:42:00 BASE 4.98 155 7.51 145 -0.5 100 -0.5 0 0 991.9 NA 0.0000 9999 10830 12110 0 0
2019/10/17 01:43:00 BASE 5.13 159 7.51 145 -0.5 100 -0.5 0 0 991.8 NA 0.0000 9999 10730 0 0 0
2019/10/17 01:44:00 BASE 5.28 164 7.51 145 -0.5 100 -0.5 0 0 991.8 NA 0.0000 9999 10760 11650 12240 0
2019/10/17 01:45:00 BASE 5.72 159 7.51 145 -0.5 100 -0.5 0 0 991.7 NA 0.0000 9999 10830 11840 0 0
2019/10/17 01:46:00 BASE 6.02 147 7.51 145 -0.4 100 -0.4 0 0 991.7 NA 0.0000 9999 10860 11580 0 0
2019/10/17 01:47:00 BASE 6.05 145 7.51 145 -0.4 100 -0.4 0 0 991.7 NA 0.0000 9999 11120 12470 14340 0
2019/10/17 01:48:00 BASE 6.31 146 7.51 145 -0.4 100 -0.4 0 0 991.6 NA 0.0000 9999 10630 12660 0 0
2019/10/17 01:49:00 BASE 6.27 140 7.05 142 -0.4 100 -0.4 0 0 991.6 NA 0.0000 9999 10660 11390 12210 0
2019/10/17 01:50:00 BASE 5.32 140 7.05 142 -0.4 100 -0.4 0 0 991.7 NA 0.0000 9999 10660 12210 0 0
2019/10/17 01:51:00 BASE 4.86 136 7.05 142 -0.4 100 -0.4 0 0 991.7 NA 0.0000 9999 10660 0 0 0
2019/10/17 01:52:00 BASE 5.11 134 7.05 142 -0.4 100 -0.4 0 0 991.7 NA 0.0000 9999 10790 12430 0 0
2019/10/17 01:53:00 BASE 4.75 146 7.05 142 -0.4 100 -0.4 0 0 991.7 NA 0.0000 9999 10760 11290 0 0
2019/10/17 01:54:00 BASE 4.14 158 7.05 142 -0.4 100 -0.4 0 0 991.8 NA 0.0000 9999 10930 11980 0 0
2019/10/17 01:55:00 BASE 4.09 159 7.05 142 -0.4 100 -0.4 0 0 991.8 NA 0.0000 9999 11610 12400 0 0
2019/10/17 01:56:00 BASE 4.48 156 7.05 142 -0.4 100 -0.4 0 0 991.7 NA 0.0000 9999 11160 0 0 0
2019/10/17 01:57:00 BASE 5.04 159 7.05 142 -0.4 100 -0.4 0 0 991.7 NA 0.0000 9999 11090 12300 0 0
2019/10/17 01:58:00 BASE 5.48 154 6.69 137 -0.4 100 -0.4 0 0 991.6 NA 0.0000 9999 10960 0 0 0
2019/10/17 01:59:00 BASE 6.00 150 7.41 151 -0.4 100 -0.4 0 0 991.6 NA 0.0000 9999 11450 0 0 0
2019/10/17 02:00:00 BASE 5.79 150 7.41 151 -0.4 100 -0.4 0 0 991.6 NA 0.0000 9999 10990 11480 0 0
2019/10/17 02:01:00 BASE 5.32 141 7.41 151 -0.4 100 -0.4 0 0 991.6 NA 0.0000 9999 10960 11880 0 0
2019/10/17 02:02:00 BASE 4.59 135 7.41 151 -0.4 100 -0.4 0 0 991.6 NA 0.0000 9999 4230 11160 11780 0
2019/10/17 02:03:00 BASE 4.21 138 7.41 151 -0.4 100 -0.4 0 0 991.5 NA 0.0000 9999 11190 11680 0 0
2019/10/17 02:04:00 BASE 4.73 143 7.41 151 -0.4 100 -0.4 0 0 991.5 NA 0.0000 9999 11190 11880 0 0
2019/10/17 02:05:00 BASE 4.69 144 7.41 151 -0.4 100 -0.4 0 0 991.5 NA 0.0000 9999 11120 0 0 0
2019/10/17 02:06:00 BASE 4.63 145 7.41 151 -0.4 100 -0.4 0 0 991.5 NA 0.0000 9999 10790 12170 0 0
2019/10/17 02:07:00 BASE 3.89 144 7.41 151 -0.4 100 -0.4 0 0 991.5 NA 0.0000 9999 11020 11880 0 0
2019/10/17 02:08:00 BASE 3.10 148 7.41 151 -0.4 100 -0.4 0 0 991.5 NA 0.0000 9999 11320 0 0 0
2019/10/17 02:09:00 BASE 2.91 145 5.92 136 -0.4 100 -0.4 0 0 991.5 NA 0.0000 9999 3940 10960 11650 0
2019/10/17 02:10:00 BASE 3.02 135 5.92 136 -0.4 100 -0.4 0 0 991.5 NA 0.0000 9999 3810 0 0 0
2019/10/17 02:11:00 BASE 3.49 135 5.81 141 -0.4 100 -0.4 0 0 991.5 NA 0.0000 9999 3670 0 0 0
2019/10/17 02:12:00 BASE 3.39 127 5.81 141 -0.4 100 -0.4 0 0 991.5 NA 0.0000 9999 3610 0 0 0
2019/10/17 02:13:00 BASE 3.47 113 5.81 141 -0.4 100 -0.4 0 0 991.4 NA 0.0000 9999 3540 0 0 0
2019/10/17 02:14:00 BASE 3.77 98 5.56 152 -0.4 100 -0.4 0 0 991.4 NA 0.0000 9999 3410 0 0 0
2019/10/17 02:15:00 BASE 4.32 87 5.50 85 -0.4 100 -0.4 0 0 991.4 NA 0.0000 9999 3410 0 0 0
2019/10/17 02:16:00 BASE 4.80 92 5.50 85 -0.4 100 -0.4 0 0 991.4 NA 0.0000 9999 3180 0 0 0
2019/10/17 02:17:00 BASE 4.56 110 5.50 85 -0.4 100 -0.4 0 0 991.3 NA 0.0000 9999 3120 0 0 0
2019/10/17 02:18:00 BASE 4.32 124 5.50 85 -0.4 100 -0.4 0 0 991.3 NA 0.0000 9999 3220 0 0 0
2019/10/17 02:19:00 BASE 3.88 126 5.50 85 -0.4 100 -0.4 0 0 991.4 NA 0.0000 9999 3250 0 0 0
2019/10/17 02:20:00 BASE 2.72 128 5.50 85 -0.4 100 -0.4 0 0 991.4 NA 0.0000 9999 3350 0 0 0
2019/10/17 02:21:00 BASE 0.92 113 5.50 85 -0.4 100 -0.4 0 0 991.4 NA 0.0000 9999 3220 0 0 0
2019/10/17 02:22:00 BASE 0.83 55 5.50 85 -0.4 100 -0.4 0 0 991.5 NA 0.0000 9999 3020 0 0 0
2019/10/17 02:23:00 BASE 1.84 31 5.50 85 -0.4 100 -0.4 0 0 991.4 NA 0.0000 9999 3050 0 0 0
2019/10/17 02:24:00 BASE 2.13 79 5.50 85 -0.4 100 -0.4 0 0 991.3 NA 0.0000 9999 3180 0 0 0
2019/10/17 02:25:00 BASE 2.96 130 5.20 90 -0.4 100 -0.4 0 0 991.2 NA 0.0000 9999 2990 0 0 0
2019/10/17 02:26:00 BASE 3.63 140 4.94 128 -0.4 100 -0.4 0 0 991.3 NA 0.0000 9999 2990 3380 0 0
2019/10/17 02:27:00 BASE 3.39 138 4.78 127 -0.4 100 -0.4 0 0 991.3 NA 0.0000 9999 2890 0 0 0
2019/10/17 02:28:00 BASE 2.96 117 4.12 141 -0.4 100 -0.4 0 0 991.3 NA 0.0000 9999 2820 0 0 0
2019/10/17 02:29:00 BASE 2.73 95 4.12 141 -0.4 100 -0.4 0 0 991.2 NA 0.0000 9999 2890 0 0 0
2019/10/17 02:30:00 BASE 2.76 82 4.12 141 -0.4 100 -0.4 0 0 991.2 NA 0.0000 9999 3050 0 0 0
2019/10/17 02:31:00 BASE 2.72 77 4.12 141 -0.4 100 -0.4 0 0 991.2 NA 0.0000 9999 2850 0 0 0
2019/10/17 02:32:00 BASE 2.88 86 4.22 102 -0.4 100 -0.4 0 0 991.1 NA 0.0000 9999 2920 0 0 0
2019/10/17 02:33:00 BASE 3.43 101 4.22 102 -0.4 100 -0.4 0 0 991.0 NA 0.0000 9999 2990 0 0 0
2019/10/17 02:34:00 BASE 3.27 104 4.22 102 -0.4 100 -0.4 0 0 991.0 NA 0.0000 9999 2850 0 0 0
2019/10/17 02:35:00 BASE 2.78 70 4.22 102 -0.4 100 -0.4 0 0 991.0 NA 0.0000 9999 2620 0 0 0
2019/10/17 02:36:00 BASE 3.23 27 4.22 102 -0.3 100 -0.3 0 0 991.0 NA 0.0000 9999 2920 0 0 0
2019/10/17 02:37:00 BASE 3.22 24 4.22 102 -0.3 100 -0.3 0 0 991.0 NA 0.0000 9999 2820 0 0 0
2019/10/17 02:38:00 BASE 3.11 50 4.22 65 -0.4 100 -0.4 0 0 991.0 NA 0.0000 9999 2890 0 0 0
2019/10/17 02:39:00 BASE 3.97 65 4.78 57 -0.4 100 -0.4 0 0 990.9 NA 0.0000 9999 3080 0 0 0
2019/10/17 02:40:00 BASE 4.04 76 4.78 57 -0.4 100 -0.4 0 0 990.8 NA 0.0000 9999 2950 0 0 0
2019/10/17 02:41:00 BASE 3.37 91 4.78 57 -0.4 100 -0.4 0 0 990.7 NA 0.0000 9999 2990 0 0 0
2019/10/17 02:42:00 BASE 2.48 95 4.78 57 -0.3 100 -0.3 0 0 990.7 NA 0.0000 9999 2690 0 0 0
2019/10/17 02:43:00 BASE 2.26 104 4.78 57 -0.2 100 -0.2 0 0 990.6 NA 0.0000 9999 2760 0 0 0
2019/10/17 02:44:00 BASE 2.85 116 4.78 57 -0.1 100 -0.1 0 0 990.5 NA 0.0000 9999 2690 0 0 0
2019/10/17 02:45:00 BASE 2.59 144 4.78 57 0.0 100 0.0 0 0 990.5 NA 0.0000 9999 2720 0 0 0
2019/10/17 02:46:00 BASE 1.59 190 4.78 57 0.2 100 0.2 0 0 990.5 NA 0.0000 9999 2620 0 0 0
2019/10/17 02:47:00 BASE 3.42 270 6.94 320 0.3 100 0.3 0 0 990.6 NA 0.0000 9999 2530 0 0 0
2019/10/17 02:48:00 BASE 5.78 297 6.94 289 0.3 100 0.3 0 0 990.7 NA 0.0000 9999 2660 0 0 0
2019/10/17 02:49:00 BASE 6.07 281 6.94 289 0.3 100 0.3 0 0 990.6 NA 0.0000 9999 2590 0 0 0
2019/10/17 02:50:00 BASE 6.63 262 7.25 249 0.2 100 0.2 0 0 990.5 NA 0.0000 9999 2660 0 0 0
2019/10/17 02:51:00 BASE 6.32 245 7.25 249 0.1 100 0.1 0 0 990.5 NA 0.0000 9999 2620 0 0 0
2019/10/17 02:52:00 BASE 5.11 232 7.25 249 -0.1 100 -0.1 0 0 990.5 NA 0.0000 9999 2590 0 0 0
2019/10/17 02:53:00 BASE 4.66 225 7.25 249 -0.1 100 -0.1 0 0 990.4 NA 0.0000 9999 2560 0 0 0
2019/10/17 02:54:00 BASE 5.25 222 7.25 249 -0.2 100 -0.2 0 0 990.4 NA 0.0000 9999 2660 0 0 0
2019/10/17 02:55:00 BASE 5.61 221 7.25 249 -0.2 100 -0.2 0 0 990.4 NA 0.0000 9999 2620 0 0 0
2019/10/17 02:56:00 BASE 5.53 221 7.25 249 -0.3 100 -0.3 0 0 990.4 NA 0.0000 9999 2620 0 0 0
2019/10/17 02:57:00 BASE 5.03 222 7.25 249 -0.3 100 -0.3 0 0 990.4 NA 0.0000 9999 2660 0 0 0
2019/10/17 02:58:00 BASE 5.04 229 7.25 249 -0.3 100 -0.3 0 0 990.4 NA 0.0000 9999 2620 0 0 0
2019/10/17 02:59:00 BASE 5.20 250 7.25 249 -0.3 100 -0.3 0 0 990.4 NA 0.0000 9999 2720 0 0 0
2019/10/17 03:00:00 BASE 5.11 264 6.22 221 -0.4 100 -0.4 0 0 990.4 NA 0.0000 9999 2720 0 0 0
2019/10/17 03:01:00 BASE 4.86 253 6.22 221 -0.4 100 -0.4 0 0 990.4 NA 0.0000 9999 2790 0 0 0
2019/10/17 03:02:00 BASE 4.06 240 6.22 221 -0.4 100 -0.4 0 0 990.4 NA 0.0000 9999 2760 0 0 0
2019/10/17 03:03:00 BASE 3.26 243 6.22 221 -0.4 100 -0.4 0 0 990.4 NA 0.0000 9999 2660 0 0 0
2019/10/17 03:04:00 BASE 2.79 239 6.17 222 -0.4 100 -0.4 0 0 990.3 NA 0.0000 9999 2590 0 0 0
2019/10/17 03:05:00 BASE 3.94 225 6.12 271 -0.4 100 -0.4 0 0 990.3 NA 0.0000 9999 2620 0 0 0
2019/10/17 03:06:00 BASE 4.75 218 6.12 271 -0.4 100 -0.4 0 0 990.3 NA 0.0000 9999 2760 0 0 0
2019/10/17 03:07:00 BASE 3.88 224 6.12 271 -0.4 100 -0.4 0 0 990.3 NA 0.0000 9999 2850 0 0 0
2019/10/17 03:08:00 BASE 3.60 238 6.12 271 -0.4 100 -0.4 0 0 990.3 NA 0.0000 9999 2890 0 0 0
2019/10/17 03:09:00 BASE 3.68 244 5.97 220 -0.5 100 -0.5 0 0 990.3 NA 0.0000 9999 2720 0 0 0
2019/10/17 03:10:00 BASE 3.15 247 5.97 220 -0.5 100 -0.5 0 0 990.3 NA 0.0000 9999 2790 0 0 0
2019/10/17 03:11:00 BASE 3.05 246 5.97 220 -0.4 100 -0.4 0 0 990.3 NA 0.0000 9999 2850 0 0 0
2019/10/17 03:12:00 BASE 3.09 246 5.97 220 -0.4 100 -0.4 0 0 990.3 NA 0.0000 9999 2990 0 0 0
2019/10/17 03:13:00 BASE 4.66 247 7.67 232 -0.3 100 -0.3 0 0 990.1 NA 0.0000 9999 3180 0 0 0
2019/10/17 03:14:00 BASE 5.09 283 7.67 232 -0.2 100 -0.2 0 0 990.1 NA 0.0000 9999 3280 0 0 0
2019/10/17 03:15:00 BASE 3.99 18 7.67 232 -0.1 100 -0.1 0 0 990.2 NA 0.0000 9999 2890 3350 0 0
2019/10/17 03:16:00 BASE 4.70 76 10.55 17 0.1 100 0.1 0 0 990.1 NA 0.0000 9999 2950 0 0 0
2019/10/17 03:17:00 BASE 6.46 51 10.55 17 0.3 100 0.3 0 0 990.1 NA 0.0000 9999 2920 0 0 0
2019/10/17 03:18:00 BASE 8.29 33 10.55 17 0.5 100 0.5 0 0 990.1 NA 0.0000 9999 0 0 0 0
2019/10/17 03:19:00 BASE 10.39 29 13.99 31 0.7 100 0.7 0 0 989.9 NA 0.0000 9999 0 0 0 0
2019/10/17 03:20:00 BASE 13.15 28 17.54 24 0.9 100 0.9 0 0 989.8 NA 0.0000 9999 0 0 0 0
2019/10/17 03:21:00 BASE 14.17 26 17.54 24 1.0 100 1.0 0 0 989.7 NA 0.0000 9999 0 0 0 0
2019/10/17 03:22:00 BASE 13.78 30 17.54 24 1.1 100 1.1 0 0 989.7 NA 0.0000 9999 0 0 0 0
2019/10/17 03:23:00 BASE 14.76 38 17.59 31 1.1 100 1.1 0 0 989.7 NA 0.0000 9999 0 0 0 0
2019/10/17 03:24:00 BASE 15.77 42 17.65 30 1.1 100 1.1 0 0 989.7 NA 0.0000 9999 0 0 0 0
2019/10/17 03:25:00 BASE 15.87 47 19.60 54 1.1 100 1.1 0 0 989.7 NA 0.0000 9999 3020 0 0 0
2019/10/17 03:26:00 BASE 13.67 59 19.60 54 1.2 99 1.1 0 0 989.8 NA 0.0000 9999 0 0 0 0
2019/10/17 03:27:00 BASE 11.65 57 19.60 54 1.2 99 1.0 0 0 989.7 NA 0.0000 9999 0 0 0 0
2019/10/17 03:28:00 BASE 12.88 52 19.60 54 1.3 98 1.0 0 0 989.5 NA 0.0000 9999 0 0 0 0
2019/10/17 03:29:00 BASE 14.15 58 19.60 54 1.4 97 0.9 0 0 989.5 NA 0.0000 9999 0 0 0 0
2019/10/17 03:30:00 BASE 14.21 68 19.60 54 1.4 96 0.9 0 0 989.6 NA 0.0000 9999 0 0 0 0
2019/10/17 03:31:00 BASE 12.92 98 19.60 54 1.4 95 0.7 0 0 989.6 NA 0.0000 9999 0 0 0 0
2019/10/17 03:32:00 BASE 10.50 119 19.60 54 1.3 94 0.4 0 0 989.7 NA 0.0000 9999 0 0 0 0
2019/10/17 03:33:00 BASE 7.52 135 19.60 54 1.1 94 0.2 0 0 989.7 NA 0.0000 9999 0 0 0 0
2019/10/17 03:34:00 BASE 6.60 135 19.60 54 0.9 94 -0.1 0 0 989.7 NA 0.0000 9999 0 0 0 0
2019/10/17 03:35:00 BASE 6.87 130 17.80 49 0.6 94 -0.2 0 0 989.7 NA 0.0000 9999 0 0 0 0
2019/10/17 03:36:00 BASE 6.57 139 17.80 49 0.5 95 -0.3 0 0 989.7 NA 0.0000 9999 0 0 0 0
2019/10/17 03:37:00 BASE 6.35 143 17.80 49 0.5 95 -0.2 0 0 989.7 NA 0.0000 9999 0 0 0 0
2019/10/17 03:38:00 BASE 5.83 139 17.80 49 0.5 96 -0.1 0 0 989.7 NA 0.0000 9999 0 0 0 0
2019/10/17 03:39:00 BASE 6.44 121 14.92 103 0.5 96 -0.0 0 0 989.7 NA 0.0000 9999 0 0 0 0
2019/10/17 03:40:00 BASE 7.24 133 14.61 105 0.5 97 -0.0 0 0 989.6 NA 0.0000 9999 0 0 0 0
2019/10/17 03:41:00 BASE 6.81 174 9.67 118 0.5 97 0.1 0 0 989.4 NA 0.0000 9999 0 0 0 0
2019/10/17 03:42:00 BASE 6.73 173 9.36 125 0.6 97 0.2 0 0 989.5 NA 0.0000 9999 0 0 0 0
2019/10/17 03:43:00 BASE 6.29 143 9.36 125 0.6 97 0.2 0 0 989.6 NA 0.0000 9999 0 0 0 0
2019/10/17 03:44:00 BASE 5.20 147 9.36 125 0.6 97 0.2 0 0 989.5 NA 0.0000 9999 7640 0 0 0
2019/10/17 03:45:00 BASE 5.08 145 9.36 125 0.7 97 0.2 0 0 989.5 NA 0.0000 9999 0 0 0 0
2019/10/17 03:46:00 BASE 5.56 135 9.36 125 0.7 97 0.2 0 0 989.4 NA 0.0000 9999 0 0 0 0
2019/10/17 03:47:00 BASE 4.70 134 9.36 125 0.6 97 0.1 0 0 989.4 NA 0.0000 9999 0 0 0 0
2019/10/17 03:48:00 BASE 4.68 120 9.36 125 0.6 96 0.1 0 0 989.4 NA 0.0000 9999 0 0 0 0
2019/10/17 03:49:00 BASE 5.88 104 8.08 188 0.6 96 0.1 0 0 989.3 NA 0.0000 9999 0 0 0 0
2019/10/17 03:50:00 BASE 6.03 111 8.08 188 0.6 96 0.1 0 0 989.2 NA 0.0000 9999 0 0 0 0
2019/10/17 03:51:00 BASE 6.65 103 12.04 61 0.6 96 0.1 0 0 989.2 NA 0.0000 9999 0 0 0 0
2019/10/17 03:52:00 BASE 7.57 98 12.04 61 0.7 97 0.3 0 0 989.2 NA 0.0000 9999 0 0 0 0
2019/10/17 03:53:00 BASE 8.02 107 12.04 61 0.9 97 0.4 0 0 989.1 NA 0.0000 9999 7550 0 0 0
2019/10/17 03:54:00 BASE 8.76 78 12.04 61 1.1 97 0.7 0 0 989.2 NA 0.0000 9999 7550 0 0 0
2019/10/17 03:55:00 BASE 9.29 52 13.22 45 1.4 97 1.0 0 0 989.1 NA 0.0000 9999 7510 0 0 0
2019/10/17 03:56:00 BASE 10.18 52 14.25 63 1.7 97 1.2 0 0 989.1 NA 0.0000 9999 7450 0 0 0
2019/10/17 03:57:00 BASE 11.76 67 14.61 53 2.0 96 1.4 0 0 989.0 NA 0.0000 9999 7420 0 0 0
2019/10/17 03:58:00 BASE 11.16 93 14.61 53 2.1 95 1.4 0 0 989.0 NA 0.0000 9999 7420 0 0 0
2019/10/17 03:59:00 BASE 9.04 124 14.61 53 2.0 94 1.1 0 0 989.0 NA 0.0000 9999 7350 0 0 0
2019/10/17 04:00:00 BASE 7.86 143 14.61 53 1.8 93 0.7 0 0 989.1 NA 0.0000 9999 7350 0 0 0
2019/10/17 04:01:00 BASE 7.21 133 14.61 53 1.4 92 0.3 0 0 989.1 NA 0.0000 9999 7320 0 0 0
2019/10/17 04:02:00 BASE 7.59 126 14.61 53 1.2 92 0.1 0 0 989.1 NA 0.0000 9999 7320 0 0 0
2019/10/17 04:03:00 BASE 6.60 137 14.61 53 1.0 93 -0.1 0 0 989.1 NA 0.0000 9999 7380 0 0 0
2019/10/17 04:04:00 BASE 5.60 139 14.61 53 0.9 94 -0.0 0 0 989.1 NA 0.0000 9999 7380 0 0 0
2019/10/17 04:05:00 BASE 7.02 130 14.61 53 0.9 94 0.1 0 0 989.2 NA 0.0000 9999 7420 0 0 0
2019/10/17 04:06:00 BASE 7.53 136 14.61 53 0.9 95 0.2 0 0 989.1 NA 0.0000 9999 7380 0 0 0
2019/10/17 04:07:00 BASE 7.38 149 13.07 97 0.9 95 0.2 0 0 989.1 NA 0.0000 9999 7380 0 0 0
2019/10/17 04:08:00 BASE 6.62 136 12.19 146 0.9 95 0.1 0 0 989.1 NA 0.0000 9999 7350 0 0 0
2019/10/17 04:09:00 BASE 5.55 124 12.19 146 0.8 95 0.2 0 0 989.1 NA 0.0000 9999 7350 0 0 0
2019/10/17 04:10:00 BASE 6.20 120 12.19 146 0.9 95 0.2 0 0 989.1 NA 0.0000 9999 4690 0 0 0
2019/10/17 04:11:00 BASE 7.01 116 9.72 121 0.9 96 0.2 0 0 989.1 NA 0.0000 9999 4690 0 0 0
2019/10/17 04:12:00 BASE 6.97 116 8.49 124 0.8 96 0.2 0 0 989.1 NA 0.0000 9999 7380 0 0 0
2019/10/17 04:13:00 BASE 6.96 126 8.49 124 0.9 96 0.3 0 0 989.1 NA 0.0000 9999 4690 7380 0 0
2019/10/17 04:14:00 BASE 7.09 147 8.49 124 0.9 96 0.4 0 0 989.1 NA 0.0000 9999 4660 7420 0 0
2019/10/17 04:15:00 BASE 8.67 152 10.85 147 0.9 96 0.4 0 0 988.9 NA 0.0000 9999 4660 7480 0 0
2019/10/17 04:16:00 BASE 10.48 149 12.04 157 0.9 96 0.3 0 0 988.8 NA 0.0000 9999 4560 7450 0 0
2019/10/17 04:17:00 BASE 10.21 154 12.04 157 0.9 96 0.4 0 0 988.8 NA 0.0000 9999 4430 7380 0 0
2019/10/17 04:18:00 BASE 8.63 156 12.04 157 0.9 96 0.3 0 0 988.9 NA 0.0000 9999 4430 7320 0 0
2019/10/17 04:19:00 BASE 7.19 152 12.04 157 0.8 96 0.3 0 0 989.1 NA 0.0000 9999 4460 7050 0 0
2019/10/17 04:20:00 BASE 5.71 147 12.04 157 0.8 96 0.2 0 0 989.1 NA 0.0000 9999 4270 0 0 0
2019/10/17 04:21:00 BASE 4.57 141 12.04 157 0.8 96 0.2 0 0 989.1 NA 0.0000 9999 3710 0 0 0
2019/10/17 04:22:00 BASE 5.63 131 12.04 157 0.8 96 0.3 0 0 989.0 NA 0.0000 9999 3540 0 0 0
2019/10/17 04:23:00 BASE 7.44 126 12.04 157 0.8 96 0.3 0 0 988.8 NA 0.0000 9999 3280 0 0 0
2019/10/17 04:24:00 BASE 8.32 133 12.04 157 0.9 96 0.3 0 0 988.7 NA 0.0000 9999 3480 0 0 0
2019/10/17 04:25:00 BASE 8.09 132 12.04 157 0.9 96 0.3 0 0 988.7 NA 0.0000 9999 3280 0 0 0
2019/10/17 04:26:00 BASE 6.94 119 10.75 158 0.9 96 0.4 0 0 988.7 NA 0.0000 9999 3150 0 0 0
2019/10/17 04:27:00 BASE 6.03 108 9.88 137 0.9 96 0.4 0 0 988.7 NA 0.0000 9999 3380 0 0 0
2019/10/17 04:28:00 BASE 6.69 110 9.88 137 0.9 96 0.4 0 0 988.7 NA 0.0000 9999 3350 0 0 0
2019/10/17 04:29:00 BASE 7.54 118 9.88 137 0.9 96 0.3 0 0 988.6 NA 0.0000 9999 3250 0 0 0
2019/10/17 04:30:00 BASE 7.29 128 9.88 137 0.9 96 0.3 0 0 988.5 NA 0.0000 9999 3510 0 0 0
2019/10/17 04:31:00 BASE 6.96 132 9.88 137 0.9 96 0.3 0 0 988.5 NA 0.0000 9999 3610 0 0 0
2019/10/17 04:32:00 BASE 6.89 135 9.88 137 0.9 96 0.2 0 0 988.5 NA 0.0000 9999 3580 0 0 0
2019/10/17 04:33:00 BASE 6.28 136 9.88 137 0.9 96 0.3 0 0 988.5 NA 0.0000 9999 3670 0 0 0
2019/10/17 04:34:00 BASE 5.02 132 9.88 137 0.9 96 0.3 0 0 988.5 NA 0.0000 9999 3710 0 0 0
2019/10/17 04:35:00 BASE 3.95 127 8.08 115 0.9 96 0.3 0 0 988.5 NA 0.0000 9999 3670 0 0 0
2019/10/17 04:36:00 BASE 3.01 127 8.08 115 0.9 96 0.3 0 0 988.6 NA 0.0000 9999 3810 0 0 0
2019/10/17 04:37:00 BASE 2.29 121 8.08 115 0.9 96 0.3 0 0 988.7 NA 0.0000 9999 3810 0 0 0
2019/10/17 04:38:00 BASE 1.67 119 7.97 125 0.8 96 0.2 0 0 988.7 NA 0.0000 9999 3770 0 0 0
2019/10/17 04:39:00 BASE 1.44 142 7.56 128 0.8 96 0.2 0 0 988.7 NA 0.0000 9999 3870 0 0 0
2019/10/17 04:40:00 BASE 0.95 166 7.51 140 0.8 96 0.2 0 0 988.7 NA 0.0000 9999 3840 0 0 0
2019/10/17 04:41:00 BASE 0.16 175 7.51 140 0.9 96 0.2 0 0 988.7 NA 0.0000 9999 3740 0 0 0
2019/10/17 04:42:00 BASE 0.00 208 6.38 127 0.9 95 0.3 0 0 988.7 NA 0.0000 9999 3900 0 0 0
2019/10/17 04:43:00 BASE 0.74 239 5.25 136 0.9 95 0.2 0 0 988.7 NA 0.0000 9999 3810 0 0 0
2019/10/17 04:44:00 BASE 2.63 215 4.78 184 0.9 95 0.2 0 0 988.5 NA 0.0000 9999 3770 0 0 0
2019/10/17 04:45:00 BASE 4.27 195 5.14 212 0.9 94 0.1 0 0 988.4 NA 0.0000 9999 3740 0 0 0
2019/10/17 04:46:00 BASE 3.68 183 5.14 212 1.0 94 0.2 0 0 988.5 NA 0.0000 9999 3770 0 0 0
2019/10/17 04:47:00 BASE 2.05 164 5.14 212 1.1 94 0.2 0 0 988.5 NA 0.0000 9999 3810 0 0 0
2019/10/17 04:48:00 BASE 1.90 205 5.14 212 1.2 94 0.3 0 0 988.5 NA 0.0000 9999 3810 0 0 0
2019/10/17 04:49:01 BASE 3.69 283 6.28 289 1.3 93 0.3 0 0 988.5 NA 0.0000 9999 3770 0 0 0
2019/10/17 04:50:00 BASE 4.97 291 6.69 296 1.4 93 0.3 0 0 988.5 NA 0.0000 9999 3710 0 0 0
2019/10/17 04:51:00 BASE 4.44 278 6.69 296 1.4 92 0.3 0 0 988.5 NA 0.0000 9999 3770 0 0 0
2019/10/17 04:52:00 BASE 4.00 248 6.69 296 1.5 91 0.2 0 0 988.5 NA 0.0000 9999 3770 0 0 0
2019/10/17 04:53:00 BASE 2.38 268 6.69 296 1.5 91 0.2 0 0 988.5 NA 0.0000 9999 3710 0 0 0
2019/10/17 04:54:00 BASE 2.43 269 6.69 296 1.5 91 0.2 0 0 988.4 NA 0.0000 9999 3740 0 0 0
2019/10/17 04:55:01 BASE 3.22 255 6.69 296 1.6 90 0.2 0 0 988.4 NA 0.0000 9999 3740 0 0 0
2019/10/17 04:56:00 BASE 3.96 237 7.72 225 1.6 90 0.2 0 0 988.4 NA 0.0000 9999 3710 0 0 0
2019/10/17 04:57:00 BASE 4.52 236 7.72 225 1.7 90 0.2 0 0 988.5 NA 0.0000 9999 3740 0 0 0
2019/10/17 04:58:00 BASE 2.31 254 7.72 225 1.8 90 0.2 0 0 988.6 NA 0.0000 9999 3670 0 0 0
2019/10/17 04:59:00 BASE 3.15 200 10.49 103 1.8 89 0.2 0 0 988.7 NA 0.0000 9999 3670 0 0 0
2019/10/17 05:00:00 BASE 4.73 97 10.49 103 1.8 89 0.2 0 0 988.7 NA 0.0000 9999 3670 0 0 0
2019/10/17 05:01:00 BASE 2.96 131 10.49 103 1.9 88 0.2 0 0 988.8 NA 0.0000 9999 3670 0 0 0
2019/10/17 05:02:00 BASE 2.40 196 10.49 103 1.9 88 0.1 0 0 988.7 NA 0.0000 9999 3670 0 0 0
2019/10/17 05:03:00 BASE 4.41 255 10.75 329 1.9 88 0.0 0 0 988.7 NA 0.0000 9999 3670 0 0 0
2019/10/17 05:04:00 BASE 7.16 298 13.12 325 1.8 87 -0.0 0 0 988.7 NA 0.0000 9999 3640 0 0 0
2019/10/17 05:05:00 BASE 8.49 302 13.12 325 1.8 87 -0.1 0 0 988.7 NA 0.0000 9999 3640 0 0 0
2019/10/17 05:06:00 BASE 8.98 306 13.17 360 1.7 88 -0.2 0 0 988.5 NA 0.0000 9999 3580 0 0 0
2019/10/17 05:07:00 BASE 10.02 324 15.02 351 1.6 88 -0.2 0 0 988.5 NA 0.0000 9999 3610 0 0 0
2019/10/17 05:08:00 BASE 9.00 335 15.02 351 1.5 89 -0.2 0 0 988.5 NA 0.0000 9999 3580 0 0 0
2019/10/17 05:09:01 BASE 6.28 326 15.02 351 1.4 90 -0.1 0 0 988.6 NA 0.0000 9999 3450 0 0 0
2019/10/17 05:10:01 BASE 6.28 295 15.02 351 1.4 90 -0.1 0 0 988.5 NA 0.0000 9999 3540 0 0 0
2019/10/17 05:11:01 BASE 8.77 286 15.02 351 1.3 91 -0.1 0 0 988.5 NA 0.0000 9999 3540 0 0 0
2019/10/17 05:12:01 BASE 9.74 285 15.02 351 1.2 91 -0.1 0 0 988.5 NA 0.0000 9999 3610 0 0 0
2019/10/17 05:13:01 BASE 11.32 304 15.84 326 1.1 92 -0.1 0 0 988.3 NA 0.0000 9999 3580 0 0 0
2019/10/17 05:14:01 BASE 11.81 325 15.84 326 1.1 92 -0.1 0 0 988.4 NA 0.0000 9999 3610 0 0 0
2019/10/17 05:15:00 BASE 11.20 344 15.84 3 1.0 93 -0.0 0 0 988.3 NA 0.0000 9999 3640 0 0 0
2019/10/17 05:16:00 BASE 11.64 348 16.31 354 1.0 93 0.1 0 0 988.3 NA 0.0000 9999 3640 0 0 0
2019/10/17 05:17:00 BASE 11.13 340 16.31 354 1.0 94 0.1 0 0 988.3 NA 0.0000 9999 3610 0 0 0
2019/10/17 05:18:00 BASE 11.51 336 16.31 354 1.0 94 0.1 0 0 988.2 NA 0.0000 9999 3670 0 0 0
2019/10/17 05:19:00 BASE 12.44 332 16.77 353 0.9 94 0.1 0 0 988.3 NA 0.0000 9999 3670 0 0 0
2019/10/17 05:20:00 BASE 10.00 329 16.77 353 0.9 94 0.0 0 0 988.3 NA 0.0000 9999 3640 0 0 0
2019/10/17 05:21:00 BASE 7.16 298 16.77 353 0.8 94 0.0 0 0 988.3 NA 0.0000 9999 3450 0 0 0
2019/10/17 05:22:00 BASE 7.37 279 16.77 353 0.8 95 0.0 0 0 988.3 NA 0.0000 9999 3410 0 0 0
2019/10/17 05:23:00 BASE 6.50 298 16.77 353 0.8 95 0.0 0 0 988.3 NA 0.0000 9999 3480 0 0 0
2019/10/17 05:24:00 BASE 7.04 338 16.77 353 0.8 95 0.1 0 0 988.2 NA 0.0000 9999 3450 0 0 0
2019/10/17 05:25:00 BASE 7.45 23 16.77 353 0.8 95 0.1 0 0 988.2 NA 0.0000 9999 3450 0 0 0
2019/10/17 05:26:00 BASE 7.97 43 16.77 353 0.8 96 0.2 0 0 988.2 NA 0.0000 9999 3410 0 0 0
2019/10/17 05:27:00 BASE 11.68 43 17.80 43 0.8 96 0.2 0 0 988.1 NA 0.0000 9999 3450 0 0 0
2019/10/17 05:28:00 BASE 12.92 43 19.55 28 0.9 96 0.2 0 0 988.0 NA 0.0000 9999 3480 0 0 0
2019/10/17 05:29:00 BASE 14.04 41 19.60 42 0.9 95 0.2 0 0 987.9 NA 0.0000 9999 3450 0 0 0
2019/10/17 05:30:00 BASE 14.74 42 19.60 42 0.8 95 0.2 0 0 987.7 NA 0.0000 9999 3410 0 0 0
2019/10/17 05:31:00 BASE 15.33 39 25.00 41 0.8 95 0.1 0 0 987.6 NA 0.0000 9999 3450 0 0 0
2019/10/17 05:32:00 BASE 17.04 37 25.00 41 0.7 95 0.0 0 0 987.5 NA 0.0000 9999 3410 0 0 0
2019/10/17 05:33:00 BASE 17.83 40 25.00 41 0.7 95 -0.0 0 0 987.4 NA 0.0000 9999 3380 0 0 0
2019/10/17 05:34:00 BASE 17.68 43 25.00 41 0.6 95 -0.1 0 0 987.3 NA 0.0000 9999 3480 0 0 0
2019/10/17 05:35:00 BASE 16.86 46 25.00 41 0.6 95 -0.1 0 0 987.3 NA 0.0000 9999 3450 0 0 0
2019/10/17 05:36:00 BASE 15.90 45 25.00 41 0.5 95 -0.1 0 0 987.4 NA 0.0000 9999 3670 0 0 0
2019/10/17 05:37:00 BASE 14.99 45 25.00 41 0.5 95 -0.1 0 0 987.5 NA 0.0000 9999 3540 0 0 0
2019/10/17 05:38:00 BASE 16.62 44 25.31 53 0.5 96 -0.1 0 0 987.6 NA 0.0000 9999 3670 0 0 0
2019/10/17 05:39:00 BASE 17.09 43 25.31 53 0.5 96 -0.1 0 0 987.7 NA 0.0000 9999 3610 0 0 0
2019/10/17 05:40:00 BASE 15.39 42 25.31 53 0.5 96 -0.0 0 0 987.7 NA 0.0000 9999 3710 4200 0 0
2019/10/17 05:41:00 BASE 14.34 45 25.31 53 0.5 96 -0.0 0 0 987.8 NA 0.0000 9999 3670 0 0 0
2019/10/17 05:42:00 BASE 14.00 52 25.31 53 0.5 96 -0.0 0 0 987.7 NA 0.0000 9999 3710 4400 0 0
2019/10/17 05:43:00 BASE 15.12 55 25.31 53 0.5 96 -0.0 0 0 987.5 NA 0.0000 9999 3900 0 0 0
2019/10/17 05:44:00 BASE 18.21 60 25.31 53 0.5 96 -0.0 0 0 987.3 NA 0.0000 9999 4230 0 0 0
2019/10/17 05:45:00 BASE 19.82 65 25.31 53 0.5 96 -0.0 0 0 987.3 NA 0.0000 9999 4300 0 0 0
2019/10/17 05:46:00 BASE 20.64 67 29.37 51 0.5 96 -0.1 0 0 987.3 NA 0.0000 9999 4430 0 0 0
2019/10/17 05:47:00 BASE 21.14 71 29.37 51 0.5 96 -0.1 0 0 987.3 NA 0.0000 9999 4400 0 0 0
2019/10/17 05:48:00 BASE 19.50 75 29.37 51 0.5 96 -0.1 0 0 987.3 NA 0.0000 9999 4490 0 0 0
2019/10/17 05:49:00 BASE 21.18 81 29.48 77 0.5 96 -0.0 0 0 987.2 NA 0.0000 9999 4590 0 0 0
2019/10/17 05:50:00 BASE 21.57 86 29.48 77 0.6 96 -0.0 0 0 987.4 NA 0.0000 9999 9880 10790 0 0
2019/10/17 05:51:00 BASE 16.76 90 29.48 77 0.6 96 0.1 0 0 987.7 NA 0.0000 9999 4530 0 0 0
2019/10/17 05:52:00 BASE 13.12 91 29.48 77 0.7 96 0.1 0 0 987.9 NA 0.0000 9999 4490 0 0 0
2019/10/17 05:53:00 BASE 10.58 105 29.48 77 0.8 96 0.2 0 0 987.9 NA 0.0000 9999 4530 0 0 0
2019/10/17 05:54:00 BASE 11.58 114 29.48 77 0.9 96 0.2 0 0 987.7 NA 0.0000 9999 4330 0 0 0
2019/10/17 05:55:00 BASE 11.81 112 29.48 77 0.9 95 0.2 0 0 987.8 NA 0.0000 9999 4430 0 0 0
2019/10/17 05:56:00 BASE 9.58 124 29.48 77 0.9 95 0.2 0 0 987.9 NA 0.0000 9999 4330 0 0 0
2019/10/17 05:57:00 BASE 10.94 121 29.48 77 1.0 94 0.1 0 0 987.8 NA 0.0000 9999 4360 0 0 0
2019/10/17 05:58:00 BASE 11.21 112 29.48 77 0.9 93 -0.0 0 0 987.9 NA 0.0000 9999 4330 0 0 0
2019/10/17 05:59:00 BASE 10.48 109 21.92 74 0.9 93 -0.0 0 0 987.9 NA 0.0000 9999 4400 0 0 0
2019/10/17 06:00:01 BASE 10.87 105 20.11 76 1.0 93 -0.1 0 0 987.9 NA 0.0000 9999 4400 0 0 0
2019/10/17 06:01:01 BASE 9.25 100 20.11 76 0.9 93 -0.1 0 0 987.8 NA 0.0000 9999 4300 0 0 0
2019/10/17 06:02:01 BASE 8.76 70 20.11 76 0.9 92 -0.2 0 0 987.7 NA 0.0000 9999 4460 9580 0 0
2019/10/17 06:03:01 BASE 9.62 51 20.11 76 0.8 92 -0.3 0 0 987.7 NA 0.0000 9999 4300 9350 0 0
2019/10/17 06:04:00 BASE 10.81 55 20.11 76 0.7 92 -0.5 0 0 987.8 NA 0.0000 9999 4400 9350 0 0
2019/10/17 06:05:00 BASE 12.08 49 20.11 76 0.6 92 -0.6 0 0 987.7 NA 0.0000 9999 4460 0 0 0
2019/10/17 06:06:00 BASE 14.17 44 21.30 22 0.5 92 -0.6 0 0 987.7 NA 0.0000 9999 4490 9220 0 0
2019/10/17 06:07:00 BASE 16.01 39 21.30 22 0.5 92 -0.6 0 0 987.7 NA 0.0000 9999 4460 9020 0 0
2019/10/17 06:08:00 BASE 13.93 36 21.30 22 0.5 93 -0.6 0 0 987.7 NA 0.0000 9999 4460 8960 0 0
2019/10/17 06:09:00 BASE 14.72 36 21.30 22 0.4 93 -0.6 0 0 987.6 NA 0.0000 9999 4360 8730 0 0
2019/10/17 06:10:00 BASE 15.08 41 21.30 22 0.4 93 -0.6 0 0 987.6 NA 0.0000 9999 4560 8730 0 0
2019/10/17 06:11:00 BASE 13.70 33 21.30 22 0.4 93 -0.6 0 0 987.5 NA 0.0000 9999 4230 8600 0 0
2019/10/17 06:12:00 BASE 15.51 20 23.20 8 0.4 93 -0.6 0 0 987.3 NA 0.0000 9999 4330 0 0 0
2019/10/17 06:13:00 BASE 16.91 17 23.20 8 0.4 93 -0.6 0 0 987.3 NA 0.0000 9999 4100 0 0 0
2019/10/17 06:14:00 BASE 19.85 8 27.83 2 0.4 93 -0.6 0 0 986.9 NA 0.0000 9999 4130 0 0 0
2019/10/17 06:15:00 BASE 23.16 3 27.83 2 0.4 93 -0.6 0 0 986.9 NA 0.0000 9999 3900 0 0 0
2019/10/17 06:16:00 BASE 24.09 4 27.88 344 0.4 93 -0.6 0 0 986.8 NA 0.0000 9999 3840 0 0 0
2019/10/17 06:17:01 BASE 23.47 358 30.30 15 0.4 93 -0.6 0 0 986.9 NA 0.0000 9999 3810 4360 0 0
2019/10/17 06:18:01 BASE 22.19 356 30.30 15 0.4 93 -0.6 0 0 986.9 NA 0.0000 9999 3810 0 0 0
2019/10/17 06:19:01 BASE 19.93 356 30.30 15 0.3 93 -0.6 0 0 987.0 NA 0.0000 9999 3770 0 0 0
2019/10/17 06:20:01 BASE 19.30 351 30.30 15 0.3 93 -0.7 0 0 986.9 NA 0.0000 9999 3810 0 0 0
2019/10/17 06:21:01 BASE 19.91 356 30.30 15 0.3 93 -0.7 0 0 986.8 NA 0.0000 9999 3810 0 0 0
2019/10/17 06:22:01 BASE 18.93 6 30.30 15 0.3 93 -0.7 0 0 986.7 NA 0.0000 9999 3870 8660 0 0
2019/10/17 06:23:01 BASE 20.21 353 30.30 15 0.3 93 -0.7 0 0 986.6 NA 0.0000 9999 3640 0 0 0
2019/10/17 06:24:01 BASE 23.65 344 31.90 5 0.2 93 -0.8 0 0 986.5 NA 0.0000 9999 3080 0 0 0
2019/10/17 06:25:01 BASE 23.35 353 31.90 5 0.3 93 -0.8 0 0 986.8 NA 0.0000 9999 3450 0 0 0
2019/10/17 06:26:01 BASE 19.03 1 31.90 5 0.3 93 -0.8 0 0 987.0 NA 0.0000 9999 3580 0 0 0
2019/10/17 06:27:01 BASE 17.88 11 31.90 5 0.3 92 -0.8 0 0 987.0 NA 0.0000 9999 3580 12500 0 0
2019/10/17 06:28:01 BASE 22.60 13 31.90 5 0.2 92 -0.9 0 0 986.5 NA 0.0000 9999 3670 8760 0 0
2019/10/17 06:29:00 BASE 28.14 352 33.85 341 0.2 92 -0.9 0 0 986.3 NA 0.0000 SQ 9999 3670 0 0 0
2019/10/17 06:30:00 BASE 23.67 324 33.85 341 0.2 92 -0.9 0 0 987.3 NA 0.0000 SQ 9999 3510 0 0 0
2019/10/17 06:31:00 BASE 15.36 331 33.85 341 0.2 92 -0.9 0 0 987.5 NA 0.0000 9999 3450 0 0 0
2019/10/17 06:32:00 BASE 12.55 358 33.85 341 0.2 92 -0.9 0 0 987.5 NA 0.0000 9999 3410 3870 0 0
2019/10/17 06:33:00 BASE 13.92 1 33.85 341 0.3 92 -0.9 0 0 987.4 NA 0.0000 9999 3350 0 0 0
2019/10/17 06:34:00 BASE 15.53 6 33.85 341 0.3 92 -0.9 0 0 987.4 NA 0.0000 9999 3580 0 0 0
2019/10/17 06:35:00 BASE 12.83 12 33.85 341 0.2 91 -1.0 0 0 987.6 NA 0.0000 9999 3540 0 0 0
2019/10/17 06:36:00 BASE 10.89 22 33.85 341 0.2 91 -1.1 0 0 987.6 NA 0.0000 9999 3670 0 0 0
2019/10/17 06:37:01 BASE 11.87 21 33.85 341 0.2 91 -1.1 0 0 987.6 NA 0.0000 9999 3540 0 0 0
2019/10/17 06:38:00 BASE 9.75 20 33.85 341 0.2 91 -1.1 0 0 987.6 NA 0.0000 9999 3480 0 0 0
2019/10/17 06:39:00 BASE 10.62 14 23.56 9 0.2 91 -1.2 0 0 987.6 NA 0.0000 9999 3540 13450 0 0
2019/10/17 06:40:00 BASE 17.33 358 23.56 9 0.2 90 -1.2 0 0 987.2 NA 0.0000 9999 13320 0 0 0
2019/10/17 06:41:00 BASE 17.24 343 23.56 9 0.2 90 -1.3 0 0 987.5 NA 0.0000 SQ 9999 3770 13350 0 0
2019/10/17 06:42:00 BASE 12.20 319 23.56 9 0.2 90 -1.3 0 0 987.5 NA 0.0000 9999 3770 13390 0 0
2019/10/17 06:43:00 BASE 10.08 296 23.41 2 0.2 90 -1.3 0 0 987.5 NA 0.0000 9999 3250 0 0 0
2019/10/17 06:44:00 BASE 10.48 259 23.41 2 0.2 89 -1.3 0 0 987.5 NA 0.0000 9999 13060 0 0 0
2019/10/17 06:45:00 BASE 9.19 217 23.41 2 0.3 89 -1.3 0 0 987.6 NA 0.0000 9999 2690 12960 0 0
2019/10/17 06:46:00 BASE 6.20 191 23.41 2 0.3 88 -1.4 0 0 987.7 NA 0.0000 9999 3180 12990 13520 0
2019/10/17 06:47:00 BASE 6.42 204 23.41 2 0.3 88 -1.4 0 0 987.8 NA 0.0000 9999 1940 3670 0 0
2019/10/17 06:48:00 BASE 6.81 216 23.41 2 0.4 87 -1.5 0 0 987.8 NA 0.0000 9999 1870 2530 0 0
2019/10/17 06:49:00 BASE 5.52 195 23.41 2 0.4 87 -1.5 0 0 987.8 NA 0.0000 9999 1970 0 0 0
2019/10/17 06:50:00 BASE 3.80 191 22.89 350 0.4 86 -1.6 0 0 987.8 NA 0.0000 9999 2000 2490 0 0
2019/10/17 06:51:00 BASE 3.11 261 22.74 311 0.4 86 -1.6 0 0 987.8 NA 0.0000 9999 1870 0 0 0
2019/10/17 06:52:00 BASE 4.70 280 15.95 291 0.4 86 -1.7 0 0 987.7 NA 0.0000 9999 1970 2660 0 0
2019/10/17 06:53:00 BASE 5.64 245 13.07 258 0.4 86 -1.7 0 0 987.8 NA 0.0000 9999 2460 12210 0 0
2019/10/17 06:54:00 BASE 5.20 224 9.77 209 0.3 86 -1.7 0 0 987.7 NA 0.0000 9999 1940 12530 0 0
2019/10/17 06:55:00 BASE 5.08 229 9.21 202 0.3 86 -1.7 0 0 987.8 NA 0.0000 9999 1940 0 0 0
2019/10/17 06:56:00 BASE 5.55 225 9.21 202 0.3 86 -1.8 0 0 987.6 NA 0.0000 9999 2590 12040 0 0
2019/10/17 06:57:00 BASE 4.99 205 8.69 226 0.3 86 -1.8 0 0 987.6 NA 0.0000 9999 1940 2660 12210 0
2019/10/17 06:58:00 BASE 2.41 151 8.69 226 0.3 86 -1.8 0 0 987.6 NA 0.0000 9999 1800 2590 0 0
2019/10/17 06:59:00 BASE 2.04 122 8.69 226 0.3 86 -1.7 0 0 987.7 NA 0.0000 9999 11880 0 0 0
2019/10/17 07:00:00 BASE 4.78 151 8.69 226 0.4 86 -1.7 0 0 987.6 NA 0.0000 9999 1900 12140 0 0
2019/10/17 07:01:00 BASE 6.65 162 8.69 226 0.4 86 -1.7 0 0 987.5 NA 0.0000 9999 2100 11840 0 0
2019/10/17 07:02:00 BASE 6.28 148 8.69 226 0.4 86 -1.6 0 0 987.6 NA 0.0000 9999 2100 12240 0 0
2019/10/17 07:03:00 BASE 4.44 125 8.69 226 0.4 86 -1.6 0 0 987.6 NA 0.0000 9999 2030 0 0 0
2019/10/17 07:04:00 BASE 3.25 154 8.69 226 0.5 86 -1.5 0 0 987.5 NA 0.0000 9999 2030 0 0 0
2019/10/17 07:05:00 BASE 3.86 235 8.69 226 0.5 86 -1.5 0 0 987.5 NA 0.0000 9999 2130 12240 0 0
2019/10/17 07:06:00 BASE 4.00 275 8.54 91 0.6 86 -1.5 0 0 987.6 NA 0.0000 9999 2030 12140 0 0
2019/10/17 07:07:01 BASE 3.88 308 8.54 91 0.6 86 -1.5 0 0 987.6 NA 0.0000 9999 2070 0 0 0
2019/10/17 07:08:01 BASE 4.37 303 8.54 91 0.6 85 -1.5 0 0 987.4 NA 0.0000 9999 2950 11980 0 0
2019/10/17 07:09:01 BASE 6.63 314 11.01 24 0.6 85 -1.6 0 0 987.4 NA 0.0000 9999 2360 11810 0 0
2019/10/17 07:10:00 BASE 8.03 350 11.01 24 0.6 85 -1.6 0 0 987.4 NA 0.0000 9999 2100 12010 0 0
2019/10/17 07:11:00 BASE 7.17 326 11.01 24 0.6 85 -1.6 0 0 987.4 NA 0.0000 9999 11810 0 0 0
2019/10/17 07:12:00 BASE 7.75 333 11.01 24 0.6 85 -1.6 0 0 987.3 NA 0.0000 9999 11840 0 0 0
2019/10/17 07:13:00 BASE 8.60 355 11.01 24 0.6 85 -1.6 0 0 987.3 NA 0.0000 9999 12040 0 0 0
2019/10/17 07:14:00 BASE 10.39 6 14.97 20 0.5 85 -1.7 0 0 987.2 NA 0.0000 9999 11780 0 0 0
2019/10/17 07:15:00 BASE 11.99 356 18.62 336 0.5 86 -1.6 0 0 987.1 NA 0.0000 9999 11750 0 0 0
2019/10/17 07:16:00 BASE 14.29 341 19.29 341 0.5 86 -1.5 0 0 987.0 NA 0.0000 9999 11810 0 0 0
2019/10/17 07:17:00 BASE 15.13 353 19.29 341 0.6 87 -1.4 0 0 987.1 NA 0.0000 9999 12170 0 0 0
2019/10/17 07:18:00 BASE 15.16 359 19.29 341 0.6 87 -1.3 0 0 987.0 NA 0.0000 9999 12270 0 0 0
2019/10/17 07:19:00 BASE 16.68 358 20.27 12 0.7 87 -1.2 0 0 987.0 NA 0.0000 9999 12240 0 0 0
2019/10/17 07:20:00 BASE 15.74 1 20.27 12 0.7 87 -1.2 0 0 987.0 NA 0.0000 9999 12210 0 0 0
2019/10/17 07:21:00 BASE 13.26 3 20.27 12 0.7 87 -1.2 0 0 987.1 NA 0.0000 9999 12240 0 0 0
2019/10/17 07:22:00 BASE 12.85 9 20.27 12 0.7 87 -1.2 0 0 987.0 NA 0.0000 9999 12210 0 0 0
2019/10/17 07:23:00 BASE 14.40 8 20.27 12 0.7 87 -1.2 0 0 986.9 NA 0.0000 9999 12140 0 0 0
2019/10/17 07:24:00 BASE 14.83 1 20.27 12 0.6 87 -1.3 0 0 986.9 NA 0.0000 9999 12240 0 0 0
2019/10/17 07:25:00 BASE 15.48 355 21.86 345 0.6 87 -1.3 0 0 986.8 NA 0.0000 9999 12340 0 0 0
2019/10/17 07:26:00 BASE 15.87 348 21.86 345 0.5 87 -1.3 0 0 986.8 NA 0.0000 9999 12430 0 0 0
2019/10/17 07:27:00 BASE 14.86 342 21.86 345 0.5 88 -1.3 0 0 986.8 NA 0.0000 9999 12430 0 0 0
2019/10/17 07:28:00 BASE 14.56 350 21.86 345 0.6 88 -1.2 0 0 986.9 NA 0.0000 9999 12400 0 0 0
2019/10/17 07:29:00 BASE 14.94 349 21.86 345 0.5 88 -1.2 0 0 986.9 NA 0.0000 9999 12400 0 0 0
2019/10/17 07:30:00 BASE 15.41 344 21.86 345 0.5 88 -1.2 0 0 986.9 NA 0.0000 9999 12630 0 0 0
2019/10/17 07:31:00 BASE 15.13 357 21.86 345 0.4 88 -1.3 0 0 987.0 NA 0.0000 9999 12600 0 0 0
2019/10/17 07:32:01 BASE 15.87 9 21.86 345 0.4 88 -1.3 0 0 987.0 NA 0.0000 9999 12890 0 0 0
2019/10/17 07:33:01 BASE 16.76 15 21.86 345 0.3 89 -1.4 0 0 987.0 NA 0.0000 9999 0 0 0 0
2019/10/17 07:34:01 BASE 16.20 16 21.86 345 0.2 89 -1.4 0 0 987.1 NA 0.0000 9999 0 0 0 0
2019/10/17 07:35:01 BASE 14.85 18 21.04 345 0.2 90 -1.3 0 0 987.2 NA 0.0000 9999 0 0 0 0
2019/10/17 07:36:01 BASE 11.94 18 20.01 4 0.1 90 -1.3 0 0 987.3 NA 0.0000 9999 0 0 0 0
2019/10/17 07:37:01 BASE 8.94 17 20.01 4 0.1 91 -1.3 0 0 987.3 NA 0.0000 9999 0 0 0 0
2019/10/17 07:38:01 BASE 8.15 15 19.91 12 -0.0 91 -1.3 0 0 987.3 NA 0.0000 9999 0 0 0 0
2019/10/17 07:39:01 BASE 7.86 12 19.91 12 -0.1 92 -1.3 0 0 987.3 NA 0.0000 9999 0 0 0 0
2019/10/17 07:40:01 BASE 9.32 6 19.91 12 -0.1 92 -1.3 0 0 987.2 NA 0.0000 9999 0 0 0 0
2019/10/17 07:41:01 BASE 9.93 7 19.91 12 -0.2 92 -1.3 0 0 987.3 NA 0.0000 9999 0 0 0 0
2019/10/17 07:42:01 BASE 7.33 40 18.26 22 -0.3 93 -1.2 0 0 987.4 NA 0.0000 9999 0 0 0 0
2019/10/17 07:43:01 BASE 7.92 75 18.16 13 -0.2 93 -1.2 0 0 987.3 NA 0.0000 9999 0 0 0 0
2019/10/17 07:44:00 BASE 9.24 76 14.51 19 -0.2 94 -1.1 0 0 987.3 NA 0.0000 9999 0 0 0 0
2019/10/17 07:45:00 BASE 8.46 65 14.46 360 -0.2 94 -1.1 0 0 987.4 NA 0.0000 9999 0 0 0 0
2019/10/17 07:46:01 BASE 9.55 64 18.67 73 -0.2 94 -1.0 0 0 987.4 NA 0.0000 9999 0 0 0 0
2019/10/17 07:47:00 BASE 11.20 76 18.67 73 -0.2 94 -1.0 0 0 987.3 NA 0.0000 9999 0 0 0 0
2019/10/17 07:48:01 BASE 13.19 78 18.67 73 -0.2 94 -1.0 0 0 987.2 NA 0.0000 9999 0 0 0 0
2019/10/17 07:49:00 BASE 12.87 71 18.67 73 -0.2 94 -1.1 0 0 987.3 NA 0.0000 9999 0 0 0 0
2019/10/17 07:50:00 BASE 12.85 77 18.67 73 -0.2 94 -1.0 0 0 987.2 NA 0.0000 9999 0 0 0 0
2019/10/17 07:51:01 BASE 15.82 85 20.68 91 -0.1 94 -1.0 0 0 987.2 NA 0.0000 9999 16340 0 0 0
2019/10/17 07:52:00 BASE 16.33 78 20.68 91 -0.1 93 -1.0 0 0 987.2 NA 0.0000 9999 16340 0 0 0
2019/10/17 07:53:00 BASE 14.90 65 20.68 91 -0.1 93 -1.1 0 0 987.3 NA 0.0000 9999 16310 0 0 0
2019/10/17 07:54:00 BASE 14.66 64 22.74 63 -0.1 93 -1.1 0 0 987.2 NA 0.0000 9999 16270 16930 0 0
2019/10/17 07:55:00 BASE 13.51 76 22.74 63 -0.1 93 -1.2 0 0 987.2 NA 0.0000 9999 16240 16900 0 0
2019/10/17 07:56:00 BASE 13.94 80 22.74 63 -0.2 93 -1.2 0 0 987.0 NA 0.0000 9999 16180 16860 17230 0
2019/10/17 07:57:00 BASE 16.60 77 22.74 63 -0.2 92 -1.3 0 0 987.1 NA 0.0000 9999 1740 16140 16830 0
2019/10/17 07:58:00 BASE 14.21 73 22.74 63 -0.2 92 -1.3 0 0 987.2 NA 0.0000 9999 15950 0 0 0
2019/10/17 07:59:00 BASE 10.35 68 22.74 63 -0.2 92 -1.3 0 0 987.3 NA 0.0000 9999 15950 0 0 0
2019/10/17 08:00:00 BASE 8.30 70 22.74 63 -0.2 92 -1.3 0 0 987.3 NA 0.0000 9999 15980 0 0 0
2019/10/17 08:01:00 BASE 7.91 58 22.74 63 -0.2 92 -1.3 0 0 987.3 NA 0.0000 9999 1710 16010 0 0
2019/10/17 08:02:00 BASE 11.30 21 22.74 63 -0.2 93 -1.3 0 0 987.1 NA 0.0000 9999 15950 0 0 0
2019/10/17 08:03:00 BASE 14.76 22 22.74 63 -0.2 93 -1.2 0 0 987.2 NA 0.0000 9999 15910 0 0 0
2019/10/17 08:04:00 BASE 13.11 29 22.38 14 -0.2 93 -1.2 0 0 987.4 NA 0.0000 9999 15950 0 0 0
2019/10/17 08:05:00 BASE 12.07 23 22.38 14 -0.2 93 -1.2 0 0 987.3 NA 0.0000 9999 16040 0 0 0
2019/10/17 08:06:00 BASE 13.81 22 22.38 14 -0.3 94 -1.2 0 0 987.2 NA 0.0000 9999 16040 0 0 0
2019/10/17 08:07:00 BASE 16.47 23 22.38 14 -0.3 94 -1.1 0 0 986.9 NA 0.0000 9999 15950 0 0 0
2019/10/17 08:08:00 BASE 20.39 22 24.90 19 -0.3 94 -1.1 0 0 986.7 NA 0.0000 9999 15810 0 0 0
2019/10/17 08:09:00 BASE 23.08 20 25.67 17 -0.3 94 -1.1 0 0 986.5 NA 0.0000 9999 15810 0 0 0
2019/10/17 08:10:00 BASE 24.49 12 29.94 9 -0.3 95 -1.0 0 0 986.4 NA 0.0000 9999 15780 0 0 0
2019/10/17 08:11:00 BASE 23.65 5 29.94 9 -0.3 95 -1.0 0 0 986.6 NA 0.0000 9999 15650 0 0 0
2019/10/17 08:12:00 BASE 22.08 6 29.94 9 -0.2 95 -1.0 0 0 986.6 NA 0.0000 9999 15620 0 0 0
2019/10/17 08:13:00 BASE 21.94 10 29.94 9 -0.2 95 -1.0 0 0 986.7 NA 0.0000 9999 15580 0 0 0
2019/10/17 08:14:01 BASE 21.49 13 29.94 9 -0.3 95 -1.0 0 0 986.9 NA 0.0000 9999 15580 0 0 0
2019/10/17 08:15:01 BASE 19.38 18 29.94 9 -0.3 95 -0.9 0 0 987.1 NA 0.0000 9999 15550 0 0 0
2019/10/17 08:16:00 BASE 16.40 14 29.94 9 -0.3 95 -0.9 0 0 987.1 NA 0.0000 9999 15450 0 0 0
2019/10/17 08:17:00 BASE 16.77 7 29.94 9 -0.3 95 -1.0 0 0 987.0 NA 0.0000 9999 15420 0 0 0
2019/10/17 08:18:00 BASE 19.86 9 29.94 9 -0.3 95 -0.9 1 0 986.9 NA 0.0000 9999 14830 0 0 0
2019/10/17 08:19:00 BASE 19.87 16 29.94 9 -0.3 96 -0.9 1 0 987.1 NA 0.0000 9999 14830 15420 0 0
2019/10/17 08:20:00 BASE 18.84 16 24.64 4 -0.3 96 -0.9 1 0 987.0 NA 0.0000 9999 14800 0 0 0
2019/10/17 08:21:00 BASE 19.56 16 24.64 4 -0.3 96 -0.9 1 0 987.0 NA 0.0000 9999 14760 0 0 0
2019/10/17 08:22:00 BASE 19.11 19 24.64 4 -0.3 96 -0.9 1 0 987.0 NA 0.0000 9999 6200 14800 0 0
2019/10/17 08:23:00 BASE 19.50 17 25.21 22 -0.3 96 -0.8 1 0 986.8 NA 0.0000 9999 14530 0 0 0
2019/10/17 08:24:00 BASE 21.97 16 25.77 24 -0.3 96 -0.9 1 0 986.7 NA 0.0000 9999 14440 0 0 0
2019/10/17 08:25:00 BASE 24.41 20 30.25 25 -0.3 96 -0.8 1 0 986.5 NA 0.0000 9999 14400 0 0 0
2019/10/17 08:26:00 BASE 25.94 22 30.25 25 -0.3 96 -0.8 1 0 986.4 NA 0.0000 9999 4130 14210 0 0
2019/10/17 08:27:00 BASE 28.01 22 32.56 24 -0.3 96 -0.8 1 0 986.2 NA 0.0000 9999 14110 0 0 0
2019/10/17 08:28:00 BASE 28.34 22 32.56 24 -0.3 96 -0.8 1 0 986.2 NA 0.0000 9999 13980 0 0 0
2019/10/17 08:29:00 BASE 28.60 22 32.56 22 -0.2 96 -0.8 1 0 986.0 NA 0.0000 9999 13880 0 0 0
2019/10/17 08:30:00 BASE 30.68 22 33.54 19 -0.2 96 -0.8 1 0 985.9 NA 0.0000 9999 13910 0 0 0
2019/10/17 08:31:00 BASE 29.67 22 33.54 19 -0.2 96 -0.8 1 0 986.1 NA 0.0000 9999 13940 0 0 0
2019/10/17 08:32:00 BASE 28.90 21 33.54 19 -0.2 96 -0.8 1 0 985.9 NA 0.0000 9999 13120 13650 0 0
2019/10/17 08:33:00 BASE 28.46 20 33.54 19 -0.2 96 -0.7 1 0 986.0 NA 0.0000 9999 12990 0 0 0
2019/10/17 08:34:00 BASE 27.84 21 33.54 19 -0.2 96 -0.7 1 0 985.9 NA 0.0000 9999 13120 0 0 0
2019/10/17 08:35:00 BASE 28.65 21 33.54 19 -0.1 96 -0.7 1 0 985.8 NA 0.0000 9999 3250 13190 0 0
2019/10/17 08:36:00 BASE 28.32 22 33.54 19 -0.1 96 -0.7 1 0 985.9 NA 0.0000 9999 3220 13120 0 0
2019/10/17 08:37:00 BASE 28.07 22 33.54 19 -0.1 95 -0.8 1 0 985.8 NA 0.0000 9999 3250 0 0 0
2019/10/17 08:38:00 BASE 27.70 20 33.54 19 -0.1 95 -0.8 1 0 985.8 NA 0.0000 9999 3220 0 0 0
2019/10/17 08:39:00 BASE 27.71 17 33.54 19 -0.1 95 -0.8 2 0 985.7 NA 0.0000 9999 3250 0 0 0
2019/10/17 08:40:00 BASE 29.79 19 32.98 25 -0.1 95 -0.9 2 0 985.5 NA 0.0000 9999 3480 0 0 0
2019/10/17 08:41:00 BASE 31.84 22 33.85 20 -0.1 94 -0.9 2 0 985.4 NA 0.0000 9999 3180 0 0 0
2019/10/17 08:42:00 BASE 31.35 23 33.85 20 -0.0 94 -0.8 2 0 985.6 NA 0.0000 9999 3250 0 0 0
2019/10/17 08:43:00 BASE 30.12 23 33.85 20 0.0 94 -0.8 3 0 985.6 NA 0.0000 9999 3180 0 0 0
2019/10/17 08:44:01 BASE 29.69 23 33.85 20 0.1 94 -0.8 3 0 985.5 NA 0.0000 9999 3220 0 0 0
2019/10/17 08:45:01 BASE 29.79 23 33.85 20 0.1 94 -0.8 3 0 985.4 NA 0.0000 9999 3250 0 0 0
2019/10/17 08:46:01 BASE 30.19 21 33.85 20 0.2 93 -0.8 4 0 985.3 NA 0.0000 9999 3280 4400 0 0
2019/10/17 08:47:01 BASE 30.49 20 34.26 26 0.2 93 -0.8 4 0 985.2 NA 0.0000 9999 4460 12040 0 0
2019/10/17 08:48:01 BASE 30.93 20 34.26 26 0.3 93 -0.8 4 0 985.3 NA 0.0000 9999 11610 0 0 0
2019/10/17 08:49:01 BASE 30.82 21 34.26 26 0.3 92 -0.8 4 0 985.3 NA 0.0000 9999 11390 0 0 0
2019/10/17 08:50:01 BASE 30.11 22 34.26 26 0.3 92 -0.8 5 0 985.3 NA 0.0000 9999 11250 0 0 0
2019/10/17 08:51:01 BASE 29.64 22 34.26 26 0.4 91 -0.9 5 0 985.3 NA 0.0000 9999 11090 0 0 0
2019/10/17 08:52:01 BASE 29.50 21 34.26 26 0.4 91 -0.9 6 0 985.4 NA 0.0000 9999 11290 0 0 0
2019/10/17 08:53:01 BASE 29.23 22 34.26 26 0.5 91 -0.9 6 0 985.4 NA 0.0000 9999 11350 0 0 0
2019/10/17 08:54:01 BASE 29.01 24 34.26 26 0.5 91 -0.8 6 0 985.4 NA 0.0000 9999 10990 11680 0 0
2019/10/17 08:55:01 BASE 28.19 25 34.26 26 0.6 90 -0.9 6 0 985.4 NA 0.0000 9999 2920 10960 0 0
2019/10/17 08:56:01 BASE 27.06 26 34.26 26 0.6 90 -0.9 7 0 985.4 NA 0.0000 9999 10890 0 0 0
2019/10/17 08:57:01 BASE 25.31 27 33.64 26 0.6 89 -1.0 7 0 985.5 NA 0.0000 9999 8500 10860 0 0
2019/10/17 08:58:01 BASE 25.47 29 33.64 26 0.6 89 -1.0 7 0 985.4 NA 0.0000 9999 8500 11190 0 0
2019/10/17 08:59:00 BASE 27.34 29 31.69 25 0.6 89 -1.1 7 0 985.3 NA 0.0000 9999 8430 11250 0 0
2019/10/17 09:00:00 BASE 27.30 29 31.69 25 0.6 89 -1.1 7 0 985.3 NA 0.0000 9999 8430 11060 0 0
2019/10/17 09:01:00 BASE 26.36 28 31.69 25 0.6 88 -1.1 7 0 985.4 NA 0.0000 9999 8560 10890 0 0
2019/10/17 09:02:00 BASE 25.73 29 31.69 25 0.6 88 -1.1 7 0 985.4 NA 0.0000 9999 7640 9320 10700 0
2019/10/17 09:03:00 BASE 25.00 32 31.69 25 0.6 88 -1.1 6 0 985.4 NA 0.0000 9999 6890 8600 9250 0
2019/10/17 09:04:00 BASE 24.30 34 30.30 28 0.6 88 -1.2 6 0 985.4 NA 0.0000 9999 3510 7090 0 0
2019/10/17 09:05:00 BASE 23.96 34 30.30 28 0.6 88 -1.2 6 0 985.4 NA 0.0000 9999 3150 0 0 0
2019/10/17 09:06:00 BASE 24.11 35 30.30 28 0.6 88 -1.2 6 0 985.3 NA 0.0000 9999 3510 7050 0 0
2019/10/17 09:07:00 BASE 24.89 34 30.30 28 0.6 87 -1.3 6 0 985.3 NA 0.0000 9999 3250 7120 0 0
2019/10/17 09:08:00 BASE 24.44 34 30.30 28 0.6 87 -1.3 7 0 985.3 NA 0.0000 9999 3220 7420 0 0
2019/10/17 09:09:00 BASE 24.81 35 30.30 28 0.6 87 -1.3 7 0 985.2 NA 0.0000 9999 3120 0 0 0
2019/10/17 09:10:00 BASE 25.39 34 28.91 34 0.6 87 -1.3 8 0 985.2 NA 0.0000 9999 3480 7250 0 0
2019/10/17 09:11:00 BASE 24.19 36 28.91 34 0.6 87 -1.3 8 0 985.3 NA 0.0000 9999 7190 0 0 0
2019/10/17 09:12:00 BASE 24.49 38 28.91 34 0.7 87 -1.3 8 0 985.2 NA 0.0000 9999 3410 7190 0 0
2019/10/17 09:13:00 BASE 24.12 39 28.91 34 0.7 87 -1.2 8 0 985.4 NA 0.0000 9999 3310 0 0 0
2019/10/17 09:14:00 BASE 23.11 37 28.91 34 0.7 87 -1.3 7 0 985.3 NA 0.0000 9999 3310 0 0 0
2019/10/17 09:15:00 BASE 22.48 36 28.91 34 0.7 87 -1.3 8 0 985.4 NA 0.0000 9999 3280 0 0 0
2019/10/17 09:16:00 BASE 22.92 36 28.91 34 0.7 87 -1.3 8 0 985.3 NA 0.0000 9999 3280 0 0 0
2019/10/17 09:17:00 BASE 23.97 37 28.91 34 0.7 87 -1.3 8 0 985.4 NA 0.0000 9999 3150 3810 0 0
2019/10/17 09:18:00 BASE 23.44 36 28.91 34 0.7 87 -1.3 7 0 985.4 NA 0.0000 9999 3540 0 0 0
2019/10/17 09:19:00 BASE 22.87 34 28.60 30 0.8 87 -1.2 7 0 985.4 NA 0.0000 9999 3120 0 0 0
2019/10/17 09:20:00 BASE 22.09 34 27.93 39 0.8 87 -1.1 7 0 985.4 NA 0.0000 9999 2990 0 0 0
2019/10/17 09:21:00 BASE 21.42 36 27.93 39 0.9 87 -1.1 7 0 985.4 NA 0.0000 9999 2920 0 0 0
2019/10/17 09:22:01 BASE 21.31 38 27.93 39 0.9 86 -1.1 7 0 985.4 NA 0.0000 9999 2620 0 0 0
2019/10/17 09:23:01 BASE 22.08 38 27.93 39 1.0 86 -1.1 7 0 985.3 NA 0.0000 9999 2690 0 0 0
2019/10/17 09:24:00 BASE 22.57 36 27.93 39 1.0 85 -1.2 7 0 985.3 NA 0.0000 9999 3080 0 0 0
2019/10/17 09:25:00 BASE 20.64 37 27.93 39 1.0 85 -1.3 7 0 985.4 NA 0.0000 9999 3080 0 0 0
2019/10/17 09:26:00 BASE 19.93 37 26.65 37 0.9 85 -1.3 7 0 985.3 NA 0.0000 9999 3180 0 0 0
2019/10/17 09:27:00 BASE 21.61 35 25.67 35 0.9 85 -1.4 7 0 985.3 NA 0.0000 9999 3250 5220 0 0
2019/10/17 09:28:00 BASE 21.38 37 25.46 41 0.9 85 -1.3 7 0 985.3 NA 0.0000 9999 5150 0 0 0
2019/10/17 09:29:00 BASE 21.15 37 25.10 37 0.9 85 -1.4 7 0 985.3 NA 0.0000 9999 5220 0 0 0
2019/10/17 09:30:00 BASE 21.79 36 25.10 37 1.0 85 -1.3 7 0 985.3 NA 0.0000 9999 4360 5220 0 0
2019/10/17 09:31:00 BASE 21.85 35 25.16 34 1.0 84 -1.3 7 0 985.3 NA 0.0000 9999 5090 0 0 0
2019/10/17 09:32:00 BASE 21.81 33 25.16 34 1.1 84 -1.3 7 0 985.2 NA 0.0000 9999 3480 5180 0 0
2019/10/17 09:33:00 BASE 21.66 33 25.16 34 1.1 84 -1.4 8 0 985.2 NA 0.0000 9999 3020 0 0 0
2019/10/17 09:34:00 BASE 21.00 32 25.16 34 1.1 83 -1.4 8 0 985.2 NA 0.0000 9999 3020 0 0 0
2019/10/17 09:35:00 BASE 20.68 31 25.16 34 1.1 83 -1.4 8 0 985.2 NA 0.0000 9999 3180 0 0 0
2019/10/17 09:36:00 BASE 20.86 32 25.16 34 1.2 83 -1.5 9 0 985.2 NA 0.0000 9999 3220 5150 0 0
2019/10/17 09:37:00 BASE 20.93 33 25.16 34 1.2 82 -1.5 10 0 985.1 NA 0.0000 9999 4920 0 0 0
2019/10/17 09:38:00 BASE 20.68 34 25.16 34 1.3 82 -1.4 10 0 985.2 NA 0.0000 9999 4720 0 0 0
2019/10/17 09:39:00 BASE 19.76 33 25.16 34 1.3 82 -1.4 11 0 985.1 NA 0.0000 9999 4170 0 0 0
2019/10/17 09:40:00 BASE 18.94 31 25.16 34 1.4 82 -1.4 11 0 985.1 NA 0.0000 9999 4400 0 0 0
2019/10/17 09:41:00 BASE 18.78 30 24.54 38 1.4 81 -1.4 11 0 985.1 NA 0.0000 9999 3250 0 0 0
2019/10/17 09:42:00 BASE 18.84 30 24.54 38 1.5 81 -1.4 11 0 985.1 NA 0.0000 9999 0 0 0 5350
2019/10/17 09:43:00 BASE 18.77 32 23.20 26 1.5 81 -1.4 11 0 985.1 NA 0.0000 9999 4630 0 0 0
2019/10/17 09:44:00 BASE 18.09 33 23.20 26 1.5 81 -1.4 12 0 985.1 NA 0.0000 UP 9999 0 0 0 5150
2019/10/17 09:45:00 BASE 17.87 31 23.15 31 1.5 81 -1.5 12 0 985.1 NA 0.0000 UP 9999 0 0 0 4530
2019/10/17 09:46:00 BASE 17.42 30 22.48 36 1.5 80 -1.5 12 0 985.1 NA 0.0000 UP 9999 0 0 0 4330
2019/10/17 09:47:00 BASE 16.45 29 21.50 35 1.5 80 -1.5 12 0 985.1 NA 0.0000 UP 9999 0 0 0 4330
2019/10/17 09:48:00 BASE 16.45 30 20.94 28 1.5 80 -1.5 12 0 985.1 NA 0.0000 UP 9999 0 0 0 4300
2019/10/17 09:49:00 BASE 17.31 31 20.94 28 1.5 80 -1.5 11 0 985.1 NA 0.0000 UP 9999 5120 0 0 0
2019/10/17 09:50:00 BASE 17.74 30 20.94 28 1.5 80 -1.5 11 0 985.1 NA 0.0000 UP 9999 0 0 0 4170
2019/10/17 09:51:00 BASE 17.47 30 20.94 28 1.5 80 -1.5 11 0 985.1 NA 0.0000 UP 9000 3310 0 0 0
2019/10/17 09:52:00 BASE 17.77 31 20.63 43 1.5 80 -1.5 11 0 985.1 NA 0.0000 UP 9999 3280 0 0 0
2019/10/17 09:53:00 BASE 18.24 32 20.47 19 1.5 80 -1.5 11 0 985.1 NA 0.0000 UP 9999 3250 0 0 0
2019/10/17 09:54:00 BASE 18.21 34 20.47 19 1.5 80 -1.6 11 0 985.1 NA 0.0000 UP 9999 4590 0 0 0
2019/10/17 09:55:00 BASE 17.89 34 20.78 29 1.5 80 -1.6 11 0 985.1 NA 0.0000 UP 9999 4630 0 0 0
2019/10/17 09:56:00 BASE 17.63 31 20.83 35 1.5 80 -1.6 11 0 985.2 NA 0.0000 UP 9999 0 0 0 5090
2019/10/17 09:57:01 BASE 18.01 30 20.83 35 1.5 80 -1.6 12 0 985.1 NA 0.0000 UP 9999 4230 0 0 0
2019/10/17 09:58:01 BASE 18.00 30 20.83 35 1.5 80 -1.5 12 0 985.2 NA 0.0000 UP 9999 3970 0 0 0
2019/10/17 09:59:01 BASE 17.82 30 20.83 35 1.5 80 -1.5 13 0 985.1 NA 0.0000 UP 9999 0 0 0 4130
2019/10/17 10:00:01 BASE 17.77 30 20.83 35 1.5 80 -1.5 13 0 985.1 NA 0.0000 UP 9999 0 0 0 3940
2019/10/17 10:01:01 BASE 17.48 30 20.83 35 1.5 80 -1.5 13 0 985.2 NA 0.0000 UP 9999 3870 0 0 0
2019/10/17 10:02:01 BASE 18.49 32 21.40 28 1.5 80 -1.5 13 0 985.1 NA 0.0000 UP 9999 4000 0 0 0
2019/10/17 10:03:01 BASE 18.76 32 21.40 28 1.5 80 -1.5 14 0 985.0 NA 0.0000 UP 9999 2760 0 0 0
2019/10/17 10:04:01 BASE 18.29 32 22.07 31 1.6 80 -1.5 15 0 985.1 NA 0.0000 UP 9999 3840 0 0 0
2019/10/17 10:05:01 BASE 19.73 33 22.94 31 1.6 80 -1.5 16 0 985.0 NA 0.0000 UP 9999 0 0 0 4490
2019/10/17 10:06:01 BASE 19.78 31 22.94 31 1.6 80 -1.5 17 0 985.0 NA 0.0000 UP 9999 0 0 0 4270
2019/10/17 10:07:01 BASE 17.87 31 22.94 31 1.6 80 -1.5 18 0 985.0 NA 0.0000 UP 9999 0 0 0 4100
2019/10/17 10:08:01 BASE 16.62 34 22.94 31 1.6 80 -1.5 19 0 985.1 NA 0.0000 UP 9999 0 0 0 3900
2019/10/17 10:09:01 BASE 16.51 35 22.94 31 1.6 80 -1.5 20 0 985.0 NA 0.0000 UP 9999 0 0 0 3900
2019/10/17 10:10:01 BASE 16.52 33 22.94 31 1.6 80 -1.4 20 0 985.0 NA 0.0000 UP 9999 0 0 0 4270
2019/10/17 10:11:01 BASE 16.94 34 22.94 31 1.5 81 -1.4 21 0 984.9 NA 0.0000 UP 9999 0 0 0 4270
2019/10/17 10:12:01 BASE 17.34 33 22.94 31 1.5 81 -1.4 21 0 984.9 NA 0.0000 UP 9999 0 0 0 4690
2019/10/17 10:13:01 BASE 16.78 31 22.94 31 1.5 81 -1.4 20 0 984.9 NA 0.0000 UP 9999 4000 0 0 0
2019/10/17 10:14:01 BASE 16.77 31 22.94 31 1.5 81 -1.4 20 0 984.8 NA 0.0000 UP 9999 4170 0 0 0
2019/10/17 10:15:00 BASE 17.93 31 20.83 27 1.5 81 -1.3 22 0 984.8 NA 0.0000 UP 9999 0 0 0 4070
2019/10/17 10:16:01 BASE 18.64 31 20.94 32 1.5 82 -1.3 23 0 984.8 NA 0.0000 UP 9999 0 0 0 4100
2019/10/17 10:17:01 BASE 18.18 31 20.94 32 1.5 82 -1.3 24 0 984.8 NA 0.0000 UP 9999 2530 0 0 0
2019/10/17 10:18:01 BASE 18.18 31 22.07 33 1.5 82 -1.2 25 0 984.8 NA 0.0000 UP 9000 2490 0 0 0
2019/10/17 10:19:00 BASE 17.79 29 22.07 33 1.5 82 -1.2 27 0 984.8 NA 0.0000 UP 9000 0 0 0 4330
2019/10/17 10:20:00 BASE 16.16 28 22.07 33 1.5 83 -1.2 29 0 984.9 NA 0.0000 UP 9000 390 0 0 0
2019/10/17 10:21:00 BASE 15.98 29 22.07 33 1.4 83 -1.2 30 0 984.8 NA 0.0000 UP 8000 0 0 0 4760
2019/10/17 10:22:00 BASE 18.10 30 22.07 33 1.4 84 -1.1 32 0 984.7 NA 0.0000 UP 5000 390 0 0 0
2019/10/17 10:23:00 BASE 18.91 32 22.07 33 1.4 84 -1.0 33 0 984.7 NA 0.0000 -SN 6000 0 0 0 4790
2019/10/17 10:24:01 BASE 18.57 33 22.07 33 1.3 85 -0.9 35 0 984.7 NA 0.0000 -SN 8000 0 0 0 4530
2019/10/17 10:25:00 BASE 17.80 32 22.64 34 1.3 85 -0.9 37 0 984.7 NA 0.0000 -SN BR 8000 0 0 0 4460
2019/10/17 10:26:00 BASE 18.28 32 22.64 34 1.3 86 -0.8 38 0 984.6 NA 0.0000 -SN BR 9999 0 0 0 4460
2019/10/17 10:27:00 BASE 19.59 34 22.64 34 1.3 86 -0.8 39 0 984.6 NA 0.0000 -SN BR 9000 0 0 0 660
2019/10/17 10:28:01 BASE 19.26 35 22.64 34 1.3 86 -0.7 41 0 984.6 NA 0.0000 -SN BR 9000 2690 0 0 0
2019/10/17 10:29:01 BASE 18.07 35 22.64 34 1.4 86 -0.7 42 0 984.6 NA 0.0000 -SN BR 8000 0 0 0 3900
2019/10/17 10:30:01 BASE 18.71 34 23.10 34 1.4 86 -0.7 40 0 984.5 NA 0.0000 -SN BR 9999 2490 0 0 0
2019/10/17 10:31:00 BASE 20.70 33 24.90 36 1.4 86 -0.7 36 0 984.4 NA 0.0000 -SN BR 9999 0 0 0 5020
2019/10/17 10:32:00 BASE 21.78 34 24.90 36 1.4 86 -0.7 35 0 984.3 NA 0.0000 -SN BR 9999 0 0 0 4590
2019/10/17 10:33:00 BASE 21.76 34 24.90 36 1.4 86 -0.7 34 0 984.3 NA 0.0000 -SN BR 9999 3640 0 0 0
2019/10/17 10:34:00 BASE 20.32 35 24.90 36 1.4 86 -0.7 33 0 984.3 NA 0.0000 -SN 9999 4130 0 0 0
2019/10/17 10:35:00 BASE 20.30 36 24.90 36 1.4 86 -0.7 33 0 984.3 NA 0.0000 -SN 9999 3710 0 0 0
2019/10/17 10:36:00 BASE 21.31 36 24.90 36 1.4 86 -0.7 34 0 984.2 NA 0.0000 -SN 9999 1050 0 0 0
2019/10/17 10:37:00 BASE 20.87 36 24.90 36 1.4 86 -0.7 34 0 984.2 NA 0.0000 -SN 9999 2230 0 0 0
2019/10/17 10:38:00 BASE 21.64 36 25.57 37 1.4 86 -0.7 33 0 984.1 NA 0.0000 -SN 9999 460 0 0 0
2019/10/17 10:39:00 BASE 22.76 35 25.57 37 1.4 86 -0.7 33 0 984.1 NA 0.0000 -SN 4600 260 0 0 0
2019/10/17 10:40:00 BASE 22.24 34 25.57 37 1.4 86 -0.7 34 0 984.2 NA 0.0000 -SN BR 2300 0 0 0 4130
2019/10/17 10:41:00 BASE 22.20 34 25.67 32 1.4 86 -0.7 36 0 984.2 NA 0.0000 -SN BR 2500 0 0 0 4230
2019/10/17 10:42:00 BASE 21.34 34 25.67 32 1.4 86 -0.7 39 0 984.2 NA 0.0000 -SN BR 2400 330 0 0 0
2019/10/17 10:43:00 BASE 19.37 37 25.67 32 1.3 87 -0.7 43 0 984.3 NA 0.0000 -SN BR 2600 0 0 0 3280
2019/10/17 10:44:00 BASE 21.84 41 27.83 44 1.3 87 -0.6 46 0 984.1 NA 0.0000 -SN BR 2400 0 0 0 2920
2019/10/17 10:45:00 BASE 23.81 40 27.83 44 1.3 87 -0.6 52 0 984.1 NA 0.0000 -SN BR 2300 360 0 0 0
2019/10/17 10:46:00 BASE 22.71 39 27.83 44 1.3 88 -0.5 58 0 984.0 NA 0.0000 -SN BR 3000 560 0 0 0
2019/10/17 10:47:00 BASE 22.12 43 27.83 44 1.3 88 -0.5 63 0 984.0 NA 0.0000 -SN BR 9999 620 0 0 0
2019/10/17 10:48:00 BASE 21.08 42 27.83 44 1.3 88 -0.4 63 0 984.0 NA 0.0000 -SN BR 9999 0 0 0 3770
2019/10/17 10:49:00 BASE 21.14 39 27.83 44 1.4 88 -0.4 57 0 984.0 NA 0.0000 -SN BR 9999 3480 0 0 0
2019/10/17 10:50:00 BASE 20.78 43 27.83 44 1.4 88 -0.5 52 0 983.9 NA 0.0000 -SN BR 9999 5220 0 0 0
2019/10/17 10:51:00 BASE 20.08 42 27.83 44 1.4 87 -0.5 48 0 983.9 NA 0.0000 -SN BR 9999 5020 0 0 0
2019/10/17 10:52:00 BASE 19.80 43 27.83 44 1.4 87 -0.5 46 0 983.9 NA 0.0000 -SN BR 9999 4820 0 0 0
2019/10/17 10:53:00 BASE 20.79 47 27.83 44 1.4 87 -0.5 44 0 983.8 NA 0.0000 -SN BR 9999 3610 0 0 0
2019/10/17 10:54:00 BASE 21.06 46 26.29 35 1.5 87 -0.5 43 0 983.8 NA 0.0000 -SN BR 9999 3580 0 0 0
2019/10/17 10:55:00 BASE 19.87 45 26.29 35 1.5 86 -0.5 43 0 983.8 NA 0.0000 -SN 9999 3540 0 0 0
2019/10/17 10:56:00 BASE 19.71 47 24.38 30 1.5 86 -0.5 42 0 983.8 NA 0.0000 -SN 9999 3510 0 0 0
2019/10/17 10:57:00 BASE 20.35 49 24.38 30 1.5 86 -0.6 41 0 983.8 NA 0.0000 -SN 9999 4660 0 0 0
2019/10/17 10:58:00 BASE 20.08 49 24.38 30 1.6 86 -0.6 41 0 983.8 NA 0.0000 -SN 9999 4720 0 0 0
2019/10/17 10:59:00 BASE 18.65 50 24.38 30 1.6 85 -0.6 41 0 983.8 NA 0.0000 9999 3710 0 0 0
2019/10/17 11:00:00 BASE 18.24 51 24.38 30 1.7 85 -0.6 41 0 983.9 NA 0.0000 9999 4690 0 0 0
2019/10/17 11:01:00 BASE 17.33 48 24.38 30 1.7 84 -0.6 42 0 983.9 NA 0.0000 9999 4790 0 0 0
2019/10/17 11:02:00 BASE 15.22 45 24.38 30 1.8 84 -0.6 41 0 983.9 NA 0.0000 9999 4860 0 0 0
2019/10/17 11:03:00 BASE 14.24 44 23.05 49 1.8 84 -0.7 40 0 984.0 NA 0.0000 9999 4630 0 0 0
2019/10/17 11:04:00 BASE 15.38 46 23.05 49 1.8 83 -0.7 38 0 984.0 NA 0.0000 9999 4560 0 0 0
2019/10/17 11:05:00 BASE 15.94 48 23.05 49 1.9 83 -0.7 36 0 984.0 NA 0.0000 9999 4530 0 0 0
2019/10/17 11:06:00 BASE 15.93 48 23.05 49 1.9 83 -0.7 35 0 983.9 NA 0.0000 9999 4490 0 0 0
2019/10/17 11:07:00 BASE 16.51 51 23.05 49 1.9 83 -0.7 34 0 983.9 NA 0.0000 9999 4430 0 0 0
2019/10/17 11:08:01 BASE 15.99 53 22.33 55 1.9 82 -0.8 33 0 983.9 NA 0.0000 9999 4300 0 0 0
2019/10/17 11:09:01 BASE 13.96 49 21.71 54 2.0 82 -0.8 32 0 984.0 NA 0.0000 9999 4330 0 0 0
2019/10/17 11:10:01 BASE 13.36 46 20.37 39 2.0 81 -0.9 32 0 983.9 NA 0.0000 9999 820 0 0 0
2019/10/17 11:11:01 BASE 15.70 44 21.04 45 2.0 81 -0.9 32 0 983.8 NA 0.0000 8000 430 0 0 0
2019/10/17 11:12:01 BASE 16.01 37 21.04 45 2.0 81 -0.9 33 0 983.9 NA 0.0000 -SN 5000 0 0 0 4330
2019/10/17 11:13:01 BASE 16.25 33 22.07 34 2.1 80 -0.9 34 0 983.8 NA 0.0000 -SN 9000 0 0 0 4430
2019/10/17 11:14:01 BASE 17.54 37 22.07 34 2.1 80 -1.0 34 0 983.9 NA 0.0000 -SN 9000 0 0 0 4360
2019/10/17 11:15:01 BASE 17.22 39 22.07 34 2.2 80 -1.0 34 0 984.0 NA 0.0000 -SN 9999 0 0 0 4360
2019/10/17 11:16:01 BASE 16.00 39 22.07 34 2.2 79 -1.0 34 0 984.1 NA 0.0000 -SN 9999 3610 0 0 0
2019/10/17 11:17:01 BASE 15.26 38 22.07 34 2.2 79 -1.1 34 0 984.1 NA 0.0000 -SN 9999 0 0 0 4230
2019/10/17 11:18:01 BASE 14.21 32 22.07 34 2.2 79 -1.1 35 0 984.2 NA 0.0000 -SN 9999 4560 0 0 0
2019/10/17 11:19:01 BASE 13.53 29 22.07 34 2.1 79 -1.1 36 0 984.2 NA 0.0000 -SN 9999 3150 0 0 0
2019/10/17 11:20:01 BASE 14.72 39 22.07 34 2.1 80 -1.0 37 0 984.3 NA 0.0000 -SN 9999 2620 0 0 0
2019/10/17 11:21:01 BASE 14.78 41 22.07 34 2.1 80 -1.0 38 0 984.4 NA 0.0000 -SN 9999 1900 0 0 0
2019/10/17 11:22:01 BASE 13.12 34 22.07 34 2.1 80 -1.0 40 0 984.4 NA 0.0000 -SN 9999 2950 0 0 0
2019/10/17 11:23:01 BASE 11.95 31 19.45 25 2.1 80 -0.9 42 0 984.5 NA 0.0000 -SN 9999 2400 0 0 0
2019/10/17 11:24:01 BASE 11.20 25 19.14 37 2.2 80 -0.9 44 0 984.6 NA 0.0000 -SN 9999 3120 0 0 0
2019/10/17 11:25:01 BASE 11.86 18 18.83 35 2.2 80 -0.9 47 0 984.5 NA 0.0000 -SN 9999 3480 0 0 0
2019/10/17 11:26:01 BASE 11.25 27 18.83 35 2.2 80 -0.9 49 0 984.6 NA 0.0000 -SN 9999 4270 0 0 0
2019/10/17 11:27:01 BASE 10.23 40 17.90 39 2.1 80 -0.9 52 0 984.6 NA 0.0000 9999 0 0 0 4530
2019/10/17 11:28:01 BASE 12.88 39 17.90 39 2.1 81 -0.9 57 0 984.5 NA 0.0000 9999 0 0 0 4130
2019/10/17 11:29:01 BASE 12.88 31 17.90 39 2.0 81 -0.8 62 0 984.5 NA 0.0000 9000 0 0 0 2820
2019/10/17 11:30:01 BASE 10.96 24 16.51 41 2.0 82 -0.7 66 0 984.5 NA 0.0000 -SN 9000 0 0 0 4200
2019/10/17 11:31:01 BASE 9.96 23 16.51 41 2.0 82 -0.7 68 0 984.6 NA 0.0000 -SN 9000 0 0 0 4530
2019/10/17 11:32:01 BASE 8.85 17 16.51 41 2.0 83 -0.7 71 0 984.6 NA 0.0000 -SN 9999 4660 0 0 0
2019/10/17 11:33:01 BASE 7.68 358 16.51 41 1.9 83 -0.6 74 0 984.5 NA 0.0000 -SN 9999 4330 0 0 0
2019/10/17 11:34:01 BASE 6.37 352 16.51 41 1.9 83 -0.6 77 0 984.5 NA 0.0000 -SN 9999 4790 0 0 0
2019/10/17 11:35:00 BASE 8.05 17 16.51 41 1.9 84 -0.6 80 0 984.5 NA 0.0000 -SN 9999 4820 0 0 0
2019/10/17 11:36:01 BASE 9.67 38 16.51 41 1.8 84 -0.6 83 0 984.5 NA 0.0000 -SN 9999 4790 0 0 0
2019/10/17 11:37:00 BASE 8.56 33 16.51 41 1.7 84 -0.6 85 0 984.5 NA 0.0000 -SN 9999 4660 0 0 0
2019/10/17 11:38:01 BASE 7.15 31 14.30 25 1.7 85 -0.7 85 0 984.5 NA 0.0000 -SN 9999 4790 0 0 0
2019/10/17 11:39:00 BASE 4.94 46 12.24 24 1.6 85 -0.6 85 0 984.4 NA 0.0000 -SN 9999 4360 5020 0 0
2019/10/17 11:40:00 BASE 3.91 70 11.47 31 1.6 86 -0.5 84 0 984.4 NA 0.0000 -SN 9999 4760 19290 0 0
2019/10/17 11:41:00 BASE 3.57 76 11.47 31 1.6 86 -0.5 82 0 984.4 NA 0.0000 9999 4860 0 0 0
2019/10/17 11:42:00 BASE 2.67 351 11.47 31 1.6 86 -0.4 80 0 984.2 NA 0.0000 9999 4820 0 0 0
2019/10/17 11:43:00 BASE 4.95 305 11.47 31 1.6 86 -0.4 78 0 984.1 NA 0.0000 9999 4860 0 0 0
2019/10/17 11:44:01 BASE 6.81 320 11.73 349 1.7 86 -0.5 75 0 984.1 NA 0.0000 9999 4720 0 0 0
2019/10/17 11:45:01 BASE 4.96 333 11.73 349 1.7 85 -0.6 73 0 984.1 NA 0.0000 9999 4690 0 0 0
2019/10/17 11:46:00 BASE 4.73 8 11.73 349 1.7 84 -0.7 69 0 984.1 NA 0.0000 9999 4790 0 0 0
2019/10/17 11:47:00 BASE 6.28 34 11.73 349 1.7 84 -0.7 66 0 984.2 NA 0.0000 9999 4820 0 0 0
2019/10/17 11:48:00 BASE 6.66 44 11.73 349 1.6 84 -0.8 63 0 984.1 NA 0.0000 9999 4950 0 0 0
2019/10/17 11:49:00 BASE 7.94 51 11.99 46 1.6 84 -0.8 61 0 984.1 NA 0.0000 9999 4990 0 0 0
2019/10/17 11:50:00 BASE 7.09 36 11.99 46 1.6 84 -0.8 59 0 984.1 NA 0.0000 9999 4920 0 0 0
2019/10/17 11:51:00 BASE 4.73 19 11.99 46 1.7 84 -0.8 58 0 984.1 NA 0.0000 9999 5020 0 0 0
2019/10/17 11:52:00 BASE 5.56 16 11.99 46 1.7 84 -0.8 56 0 984.1 NA 0.0000 9999 4950 0 0 0
2019/10/17 11:53:00 BASE 6.50 26 11.99 46 1.7 83 -0.8 56 0 984.1 NA 0.0000 9999 4690 0 0 0
2019/10/17 11:54:00 BASE 6.31 40 11.99 46 1.7 83 -0.8 57 0 984.0 NA 0.0000 9999 4490 0 0 0
2019/10/17 11:55:00 BASE 6.65 55 11.99 46 1.6 83 -0.9 60 0 983.9 NA 0.0000 6000 4950 0 0 0
2019/10/17 11:56:00 BASE 8.73 61 11.99 46 1.6 84 -0.9 62 0 983.8 NA 0.0000 -SN 3200 4890 0 0 0
2019/10/17 11:57:00 BASE 9.36 56 11.99 46 1.5 84 -0.8 65 0 983.7 NA 0.0000 -SN 2600 5020 0 0 0
2019/10/17 11:58:00 BASE 8.71 52 11.99 46 1.4 85 -0.8 67 0 983.7 NA 0.0000 -SN BR 2700 4950 0 0 0
2019/10/17 11:59:00 BASE 7.89 49 11.88 58 1.4 86 -0.7 66 0 983.7 NA 0.0000 -SN BR 3800 4950 0 0 0
2019/10/17 12:00:00 BASE 6.76 48 11.88 58 1.3 87 -0.7 65 0 983.7 NA 0.0000 -SN BR 6000 4820 0 0 0
2019/10/17 12:01:00 BASE 7.07 27 11.88 58 1.2 88 -0.6 65 0 983.7 NA 0.0000 -SN BR 7000 4660 0 0 0
2019/10/17 12:02:00 BASE 5.55 342 11.88 58 1.1 89 -0.5 67 0 983.6 NA 0.0000 -SN BR 9999 360 4590 0 0
2019/10/17 12:03:00 BASE 2.91 334 11.88 58 1.1 90 -0.5 68 0 983.6 NA 0.0000 -SN BR 6000 0 0 0 4460
2019/10/17 12:04:00 BASE 2.47 343 11.88 58 1.0 90 -0.4 68 0 983.4 NA 0.0000 -SN BR 2400 330 4300 0 0
2019/10/17 12:05:00 BASE 2.02 355 11.88 58 1.0 91 -0.3 68 0 983.1 NA 0.0000 -SN BR 2900 4400 0 0 0
2019/10/17 12:06:00 BASE 1.13 102 11.88 58 0.9 92 -0.3 69 0 983.4 NA 0.0000 -SN BR 3700 4230 0 0 0
2019/10/17 12:07:00 BASE 3.38 108 11.88 58 0.9 93 -0.2 70 0 983.3 NA 0.0000 -SN BR 4000 4270 0 0 0
2019/10/17 12:08:00 BASE 6.79 66 9.93 59 0.9 93 -0.0 72 0 983.0 NA 0.0000 -SN BR 9000 2850 0 0 0
2019/10/17 12:09:00 BASE 8.91 53 11.83 57 1.0 94 0.1 73 0 983.0 NA 0.0000 -SN BR 9999 3220 4490 21920 0
2019/10/17 12:10:00 BASE 10.39 40 16.36 40 1.0 94 0.2 74 0 983.3 NA 0.0000 -SN BR 9999 3480 0 0 0
2019/10/17 12:11:00 BASE 10.83 22 16.41 11 1.1 95 0.3 76 0 983.2 NA 0.0000 -SN BR 9999 4400 5180 0 0
2019/10/17 12:12:00 BASE 9.52 15 16.41 11 1.1 95 0.4 78 0 983.3 NA 0.0000 -SN BR 9999 4890 0 0 0
2019/10/17 12:13:00 BASE 8.49 21 16.41 11 1.1 95 0.4 79 0 983.2 NA 0.0000 -SN BR 9999 3020 21160 0 0
2019/10/17 12:14:00 BASE 8.31 29 16.41 11 1.1 95 0.4 80 0 983.2 NA 0.0000 -SN BR 9999 4360 0 0 0
2019/10/17 12:15:00 BASE 10.06 44 16.41 11 1.1 95 0.4 81 0 983.1 NA 0.0000 -SN BR 9999 4990 0 0 0
2019/10/17 12:16:00 BASE 14.46 55 18.83 50 1.1 95 0.4 87 0 983.0 NA 0.0000 -SN BR 4700 4990 0 0 0
2019/10/17 12:17:00 BASE 15.59 61 18.83 50 1.1 95 0.4 100 0 982.9 NA 0.0000 -SN BR 2900 0 0 0 3280
2019/10/17 12:18:00 BASE 16.66 70 22.43 75 1.2 95 0.5 119 0 982.8 NA 0.0000 -SN BR 1700 0 0 0 4530
2019/10/17 12:19:00 BASE 18.91 74 22.43 75 1.3 95 0.6 129 0 982.8 NA 0.0000 -SN BR 1300 330 0 0 0
2019/10/17 12:20:00 BASE 19.27 70 22.43 75 1.3 95 0.6 130 0 982.8 NA 0.0000 -SN BR 1800 4400 0 0 0
2019/10/17 12:21:00 BASE 17.85 69 22.43 75 1.4 95 0.7 134 0 982.7 NA 0.0000 -SN BR 1300 4690 20900 0 0
2019/10/17 12:22:00 BASE 14.77 78 22.43 75 1.5 95 0.7 140 0 982.8 NA 0.0000 -SN BR 4400 4590 0 0 0
2019/10/17 12:23:00 BASE 13.31 85 22.43 75 1.5 94 0.7 154 0 982.8 NA 0.0000 -SN BR 6000 4590 0 0 0
2019/10/17 12:24:00 BASE 13.22 89 22.43 75 1.5 94 0.7 176 0 982.7 NA 0.0000 -SN BR 8000 4560 0 0 0
2019/10/17 12:25:00 BASE 12.83 98 22.43 75 1.5 94 0.7 180 0 982.7 NA 0.0000 -SN BR 9999 4400 0 0 0
2019/10/17 12:26:00 BASE 12.53 101 22.43 75 1.6 94 0.7 170 0 982.7 NA 0.0000 -SN BR 9999 4300 0 0 0
2019/10/17 12:27:00 BASE 12.24 100 22.43 75 1.6 93 0.6 156 0 982.7 NA 0.0000 -SN BR 9999 4300 0 0 0
2019/10/17 12:28:00 BASE 11.90 102 22.17 58 1.6 93 0.6 144 0 982.6 NA 0.0000 -SN BR 9999 4230 0 0 0
2019/10/17 12:29:00 BASE 12.70 99 22.17 58 1.7 92 0.5 135 0 982.6 NA 0.0000 -SN BR 9999 4200 0 0 0
2019/10/17 12:30:00 BASE 14.98 91 19.55 65 1.7 91 0.4 142 0 982.6 NA 0.0000 -SN BR 9999 1540 4230 0 0
2019/10/17 12:31:00 BASE 16.07 91 18.88 84 1.7 91 0.3 163 0 982.5 NA 0.0000 -SN BR 9999 1610 0 0 0
2019/10/17 12:32:00 BASE 15.79 96 18.88 84 1.6 90 0.2 166 0 982.4 NA 0.0000 -SN 9999 1900 0 0 0
2019/10/17 12:33:00 BASE 16.40 103 20.27 99 1.6 90 0.1 168 0 982.2 NA 0.0000 -SN 9999 1940 0 0 0
2019/10/17 12:34:00 BASE 16.80 114 20.27 99 1.6 90 0.1 174 0 982.2 NA 0.0000 -RA 9999 1970 0 0 0
2019/10/17 12:35:00 BASE 14.54 119 20.27 99 1.6 90 0.1 179 0 982.3 NA 0.0000 -RA 9999 2100 3610 21790 0
2019/10/17 12:36:00 BASE 13.03 121 20.27 99 1.6 90 0.1 179 0 982.3 NA 0.0000 -RA 9999 2400 3540 0 0
2019/10/17 12:37:00 BASE 13.12 126 20.27 99 1.6 89 0.1 170 0 982.3 NA 0.0000 -RA 9999 1540 0 0 0
2019/10/17 12:38:00 BASE 12.14 131 20.27 99 1.6 89 -0.0 159 0 982.4 NA 0.0000 9999 3740 0 0 0
2019/10/17 12:39:00 BASE 11.34 132 20.27 99 1.6 88 -0.2 149 0 982.4 NA 0.0000 9999 3900 0 0 0
2019/10/17 12:40:00 BASE 11.19 127 20.27 99 1.5 88 -0.3 137 0 982.5 NA 0.0000 9999 4000 0 0 0
2019/10/17 12:41:00 BASE 12.77 121 20.27 99 1.4 88 -0.4 129 0 982.4 NA 0.0000 9999 1210 3770 0 0
2019/10/17 12:42:00 BASE 14.45 122 20.27 99 1.3 88 -0.5 129 0 982.3 NA 0.0000 9999 980 3610 0 0
2019/10/17 12:43:00 BASE 16.06 126 20.47 135 1.3 88 -0.5 126 0 982.2 NA 0.0000 9999 1050 3710 0 0
2019/10/17 12:44:00 BASE 16.54 129 20.47 135 1.2 88 -0.5 123 0 982.1 NA 0.0000 9999 3810 0 0 0
2019/10/17 12:45:00 BASE 14.94 126 20.47 135 1.2 88 -0.6 117 0 982.2 NA 0.0000 9999 4230 0 0 0
2019/10/17 12:46:00 BASE 15.45 121 20.47 135 1.2 88 -0.6 111 0 982.2 NA 0.0000 -RA 9000 4630 0 0 0
2019/10/17 12:47:00 BASE 16.28 117 20.47 135 1.2 88 -0.6 102 0 982.3 NA 0.0000 -RA 9000 4560 0 0 0
2019/10/17 12:48:00 BASE 15.75 112 20.47 135 1.3 88 -0.6 95 0 982.4 NA 0.0000 -RA 9999 4360 0 0 0
2019/10/17 12:49:01 BASE 15.29 113 20.47 135 1.3 87 -0.6 100 0 982.3 NA 0.0000 -RA 9999 1440 0 0 0
2019/10/17 12:50:01 BASE 14.27 105 20.47 135 1.3 87 -0.6 100 0 982.5 NA 0.0000 -RA 9999 0 0 0 3870
2019/10/17 12:51:01 BASE 13.94 90 20.47 135 1.4 87 -0.6 99 0 982.5 NA 0.0000 -RA 9999 3450 0 0 0
2019/10/17 12:52:01 BASE 14.18 83 20.47 135 1.5 87 -0.5 88 0 982.5 NA 0.0000 -RA 9999 0 0 0 3740
2019/10/17 12:53:00 BASE 13.38 76 20.17 124 1.6 86 -0.4 85 0 982.5 NA 0.0000 -RA 9999 1640 0 0 0
2019/10/17 12:54:00 BASE 11.58 72 20.17 124 1.8 86 -0.3 87 0 982.5 NA 0.0000 -RA 9000 0 0 0 2820
2019/10/17 12:55:00 BASE 11.46 72 20.17 124 1.9 86 -0.1 81 0 982.4 NA 0.0000 -RA 5000 330 0 0 0
2019/10/17 12:56:00 BASE 12.60 72 19.70 90 2.0 86 -0.1 71 0 982.3 NA 0.0000 -RA BR 2600 0 0 0 3710
2019/10/17 12:57:00 BASE 13.29 77 19.70 90 2.0 87 0.0 65 0 982.2 NA 0.0000 -SN BR 3000 460 0 0 0
2019/10/17 12:58:00 BASE 12.67 101 19.70 90 2.0 87 0.0 63 0 982.2 NA 0.0000 -SN BR 4300 330 0 0 0
2019/10/17 12:59:00 BASE 9.80 110 19.70 90 1.9 87 0.0 68 0 982.3 NA 0.0000 -SN BR 2000 260 0 0 0
2019/10/17 13:00:00 BASE 9.41 92 19.70 90 1.8 88 0.0 84 0 982.3 NA 0.0000 -SN BR 1200 200 0 0 0
2019/10/17 13:01:00 BASE 12.20 77 20.73 11 1.8 88 0.0 100 0 982.2 NA 0.0000 -SN BR 0900 0 0 0 1870
2019/10/17 13:02:00 BASE 14.20 52 20.73 11 1.7 89 0.1 132 0 982.0 NA 0.0000 -SN BR 0750 0 0 0 2230
2019/10/17 13:03:00 BASE 15.73 40 23.72 37 1.7 89 0.1 170 0 981.9 NA 0.0000 -SN BR 1600 22510 0 0 0
2019/10/17 13:04:00 BASE 17.36 42 23.72 37 1.7 90 0.3 213 0 981.7 NA 0.0000 -SN BR 3500 0 0 0 3770
2019/10/17 13:05:00 BASE 19.21 41 26.55 28 1.7 91 0.4 249 0 981.6 NA 0.0000 -SN BR 9999 2490 0 0 0
2019/10/17 13:06:00 BASE 20.83 40 27.37 32 1.7 92 0.5 270 0 981.4 NA 0.0000 -SN BR 9999 5480 0 0 0
2019/10/17 13:07:00 BASE 20.85 39 27.37 32 1.8 92 0.7 214 0 981.3 NA 0.0000 -SN BR 9999 5350 18500 0 0
2019/10/17 13:08:00 BASE 21.53 38 27.37 32 1.8 93 0.8 170 0 981.3 NA 0.0000 -SN BR 9999 5510 0 0 0
2019/10/17 13:09:00 BASE 22.29 36 27.37 32 1.8 93 0.9 141 0 981.3 NA 0.0000 -SN BR 9999 5380 0 0 0
2019/10/17 13:10:00 BASE 22.64 37 27.37 32 1.8 94 0.9 125 0 981.2 NA 0.0000 -SN BR 9999 5090 0 0 0
2019/10/17 13:11:00 BASE 21.29 37 27.37 32 1.8 94 0.9 120 0 981.3 NA 0.0000 -SN BR 9999 2100 0 0 0
2019/10/17 13:12:00 BASE 19.70 37 27.37 32 1.8 94 0.9 133 0 981.2 NA 0.0000 -SN BR 9999 0 0 0 4040
2019/10/17 13:13:00 BASE 21.77 35 27.37 32 1.8 94 0.9 165 0 981.0 NA 0.0000 -SN 8000 1210 0 0 0
2019/10/17 13:14:00 BASE 22.71 35 27.37 32 1.8 94 0.9 233 0 981.1 NA 0.0000 -SN 8000 720 0 0 0
2019/10/17 13:15:00 BASE 21.00 38 27.37 32 1.8 94 0.9 395 0 981.1 NA 0.0000 -SN 9999 0 0 0 3540
2019/10/17 13:16:00 BASE 20.60 36 26.29 37 1.8 94 0.9 590 0 981.0 NA 0.0000 -SN 5000 300 0 0 0
2019/10/17 13:17:00 BASE 22.30 34 27.93 25 1.8 94 1.0 484 0 980.9 NA 0.0000 -SN BR 3200 0 0 0 3220
2019/10/17 13:18:00 BASE 21.32 35 27.93 25 1.8 94 1.0 560 0 981.1 NA 0.0000 -SN BR 9999 5180 23920 0 0
2019/10/17 13:19:00 BASE 19.88 34 27.93 25 1.9 95 1.1 568 0 981.1 NA 0.0000 -SN BR 9999 5090 0 0 0
2019/10/17 13:20:00 BASE 20.83 32 27.93 25 1.9 95 1.2 542 0 981.1 NA 0.0000 -SN BR 9000 4630 0 0 0
2019/10/17 13:21:00 BASE 21.68 31 27.93 25 2.0 95 1.2 371 0 981.2 NA 0.0000 -SN BR 9999 4490 24180 0 0
2019/10/17 13:22:01 BASE 22.89 31 27.93 25 2.0 95 1.2 265 0 981.2 NA 0.0000 -SN BR 9999 4400 0 0 0
2019/10/17 13:23:01 BASE 24.26 32 27.93 25 1.9 95 1.2 221 0 981.1 NA 0.0000 -SN BR 9999 4360 0 0 0
2019/10/17 13:24:01 BASE 24.67 32 28.40 43 1.9 95 1.1 195 0 981.1 NA 0.0000 -SN BR 9999 4490 0 0 0
2019/10/17 13:25:01 BASE 25.61 33 29.89 34 1.8 95 1.0 182 0 981.0 NA 0.0000 -SN BR 9999 1310 4430 0 0
2019/10/17 13:26:01 BASE 26.24 32 29.89 34 1.8 95 1.0 180 0 981.0 NA 0.0000 -SN BR 6000 0 0 0 4720
2019/10/17 13:27:01 BASE 24.91 34 29.89 34 1.7 95 1.0 236 0 981.0 NA 0.0000 -SN BR 4000 0 0 0 5120
2019/10/17 13:28:01 BASE 25.57 35 30.76 30 1.7 95 1.0 284 0 980.9 NA 0.0000 -SN BR 3700 22280 0 0 0
2019/10/17 13:29:01 BASE 25.67 33 30.76 30 1.7 95 1.0 286 0 980.9 NA 0.0000 -SN BR 4000 0 0 0 4460
2019/10/17 13:30:01 BASE 26.41 36 33.90 36 1.7 95 1.0 291 0 980.8 NA 0.0000 -SN BR 5000 0 0 0 5480
2019/10/17 13:31:01 BASE 27.89 35 33.90 36 1.6 95 1.0 299 0 980.7 NA 0.0000 -SN BR 5000 330 0 0 0
2019/10/17 13:32:01 BASE 26.67 32 33.90 36 1.6 96 1.0 362 0 980.6 NA 0.0000 -SN BR 9999 260 0 0 0
2019/10/17 13:33:01 BASE 27.27 33 33.90 36 1.6 96 1.0 520 0 980.4 NA 0.0000 -SN BR 9999 230 0 0 0
2019/10/17 13:34:01 BASE 28.40 35 33.90 36 1.6 96 1.1 384 0 980.4 NA 0.0000 -SN BR 9999 0 0 0 6200
2019/10/17 13:35:01 BASE 29.91 34 37.19 25 1.6 97 1.1 328 0 980.2 NA 0.0000 -SN BR 9999 0 0 0 6400
2019/10/17 13:36:01 BASE 28.93 30 37.19 25 1.6 97 1.2 301 0 980.5 NA 0.0000 -SN BR 9999 0 0 0 5320
2019/10/17 13:37:01 BASE 24.48 27 37.19 25 1.6 97 1.2 305 0 980.7 NA 0.0000 -SN BR 9999 0 0 0 3180
2019/10/17 13:38:01 BASE 21.63 26 37.19 25 1.5 98 1.2 320 0 980.7 NA 0.0000 -SN BR 9000 0 0 0 5120
2019/10/17 13:39:01 BASE 22.38 31 37.19 25 1.5 98 1.2 348 0 980.7 NA 0.0000 -SN BR 9999 0 0 0 1210
2019/10/17 13:40:01 BASE 24.20 34 37.19 25 1.5 98 1.3 499 0 980.6 NA 0.0000 -SN BR 7000 0 0 0 820
2019/10/17 13:41:01 BASE 22.86 33 37.19 25 1.5 99 1.3 344 0 980.6 NA 0.0000 -SN BR 5000 4760 18900 0 0
2019/10/17 13:42:01 BASE 20.84 35 37.19 25 1.5 99 1.4 335 0 980.6 NA 0.0000 -SN BR 4000 3380 0 0 0
2019/10/17 13:43:01 BASE 21.39 37 37.19 25 1.5 100 1.5 384 0 980.5 NA 0.0000 -SN BR 9999 3310 0 0 0
2019/10/17 13:44:01 BASE 22.58 40 37.19 25 1.6 100 1.5 346 0 980.4 NA 0.0000 -SN BR 9999 0 0 0 5180
2019/10/17 13:45:01 BASE 23.60 38 30.15 32 1.6 100 1.6 350 0 980.4 NA 0.0000 -SN BR 9999 0 0 0 5020
2019/10/17 13:46:01 BASE 26.45 34 33.44 33 1.6 100 1.6 386 0 980.1 NA 0.0000 -SN BR 9999 0 0 0 3770
2019/10/17 13:47:01 BASE 28.33 34 33.44 33 1.6 100 1.6 410 0 980.2 NA 0.0000 -SN BR 9000 0 0 0 3740
2019/10/17 13:48:01 BASE 28.80 38 33.44 33 1.6 100 1.6 484 0 980.0 NA 0.0000 -SN BR 9000 330 0 0 0
2019/10/17 13:49:00 BASE 30.33 37 36.37 47 1.6 100 1.6 585 0 980.0 NA 0.0000 -SN BR 9000 17850 21590 0 0
2019/10/17 13:50:01 BASE 29.75 36 36.37 47 1.6 100 1.6 596 0 980.2 NA 0.0000 -SN BR 9000 0 0 0 3020
2019/10/17 13:51:00 BASE 27.11 36 36.37 47 1.6 100 1.6 560 0 980.3 NA 0.0000 -SN BR 9999 0 0 0 2950
2019/10/17 13:52:01 BASE 26.59 31 36.37 47 1.6 100 1.6 518 0 980.0 NA 0.0000 -SN 9999 360 0 0 0
2019/10/17 13:53:00 BASE 27.50 30 36.37 47 1.7 100 1.7 684 0 980.1 NA 0.0000 -SN 9999 0 0 0 2920
2019/10/17 13:54:01 BASE 28.22 35 36.37 47 1.7 100 1.7 445 0 980.0 NA 0.0000 -SN 9999 4330 0 0 0
2019/10/17 13:55:00 BASE 28.60 35 36.37 47 1.7 100 1.7 389 0 980.0 NA 0.0000 -SN 9999 4200 22380 0 0
2019/10/17 13:56:00 BASE 29.68 36 36.37 47 1.6 100 1.6 350 0 979.9 NA 0.0000 -SN BR 4200 3900 0 0 0
2019/10/17 13:57:00 BASE 30.49 38 36.37 47 1.6 100 1.6 319 0 979.9 NA 0.0000 -SN BR 3200 390 24380 0 0
2019/10/17 13:58:01 BASE 30.01 38 36.37 47 1.6 100 1.6 304 0 979.8 NA 0.0000 -SN BR 4000 0 0 0 4360
2019/10/17 13:59:00 BASE 29.62 39 35.50 36 1.6 100 1.6 311 0 979.7 NA 0.0000 -SN BR 6000 0 0 0 3020
2019/10/17 14:00:00 BASE 28.89 39 35.50 36 1.6 100 1.6 351 0 979.8 NA 0.0000 -SN BR 5000 0 0 0 3020
2019/10/17 14:01:00 BASE 27.51 34 35.50 36 1.6 100 1.6 440 0 979.8 NA 0.0000 -SN BR 7000 0 0 0 3710
2019/10/17 14:02:00 BASE 27.41 34 35.50 36 1.6 100 1.6 379 0 979.7 NA 0.0000 -SN BR 9999 6270 0 0 0
2019/10/17 14:03:00 BASE 26.82 35 35.50 36 1.6 100 1.6 355 0 979.8 NA 0.0000 -SN BR 9999 5410 0 0 0
2019/10/17 14:04:01 BASE 26.26 36 35.50 36 1.6 100 1.6 335 0 979.7 NA 0.0000 -SN BR 9999 6040 0 0 0
2019/10/17 14:05:00 BASE 29.33 36 38.38 38 1.6 100 1.6 328 0 979.4 NA 0.0000 -SN BR 9999 3180 0 0 0
2019/10/17 14:06:01 BASE 32.24 35 38.94 30 1.7 100 1.7 330 0 979.4 NA 0.0000 -SN BR 9999 2850 0 0 0
2019/10/17 14:07:00 BASE 32.23 32 38.94 30 1.7 100 1.7 338 0 979.6 NA 0.0000 -SN BR 9999 0 0 0 4130
2019/10/17 14:08:00 BASE 31.31 29 38.94 30 1.7 100 1.7 343 0 979.5 NA 0.0000 -SN 9999 0 0 0 3670
2019/10/17 14:09:00 BASE 29.51 26 38.94 30 1.7 100 1.7 350 0 979.5 NA 0.0000 -SN 9999 0 0 0 3640
2019/10/17 14:10:00 BASE 30.83 27 38.94 30 1.8 100 1.8 350 0 979.3 NA 0.0000 -SN 9999 0 0 0 3810
2019/10/17 14:11:00 BASE 32.38 29 38.94 30 1.8 100 1.8 319 0 979.3 NA 0.0000 -SN 8000 6170 0 0 0
2019/10/17 14:12:01 BASE 31.77 28 39.10 39 1.7 100 1.7 297 0 979.2 NA 0.0000 -SN 9999 5840 22150 0 0
2019/10/17 14:13:00 BASE 32.52 30 40.13 31 1.7 100 1.7 283 0 979.3 NA 0.0000 -SN 6000 430 5910 0 0
2019/10/17 14:14:00 BASE 31.77 29 40.13 31 1.7 100 1.7 278 0 979.3 NA 0.0000 -SN BR 3400 6000 0 0 0
2019/10/17 14:15:00 BASE 31.11 27 40.13 31 1.7 100 1.7 281 0 979.2 NA 0.0000 -SN BR 3800 0 0 0 4860
2019/10/17 14:16:00 BASE 33.01 30 40.13 31 1.7 100 1.7 282 0 978.9 NA 0.0000 -SN BR 3700 0 0 0 4200
2019/10/17 14:17:00 BASE 35.87 32 40.33 29 1.7 100 1.7 275 0 978.7 NA 0.0000 -SN BR 2300 0 0 0 3350
2019/10/17 14:18:00 BASE 36.04 28 40.33 29 1.7 100 1.7 257 0 978.8 NA 0.0000 -SN BR 2200 0 0 0 4860
2019/10/17 14:19:00 BASE 34.08 25 40.33 29 1.6 100 1.6 283 0 979.1 NA 0.0000 -SN BR 2800 820 0 0 0
2019/10/17 14:20:00 BASE 32.56 23 40.33 29 1.6 100 1.6 295 0 979.1 NA 0.0000 -SN BR 2400 330 0 0 0
2019/10/17 14:21:00 BASE 31.92 19 40.33 29 1.6 100 1.6 301 0 979.0 NA 0.0000 -SN BR 2900 330 0 0 0
2019/10/17 14:22:00 BASE 31.82 22 40.33 29 1.6 100 1.6 310 0 979.0 NA 0.0000 -SN BR 2800 360 0 0 0
2019/10/17 14:23:00 BASE 31.85 27 40.33 29 1.6 100 1.6 302 0 978.9 NA 0.0000 -SN BR 2800 300 0 0 0
2019/10/17 14:24:00 BASE 33.30 27 40.33 29 1.6 100 1.6 328 0 978.7 NA 0.0000 -SN BR 9000 360 0 0 0
2019/10/17 14:25:00 BASE 33.59 26 40.33 29 1.6 100 1.6 327 0 978.8 NA 0.0000 -SN BR 9999 6400 0 0 0
2019/10/17 14:26:00 BASE 33.78 26 43.06 28 1.7 100 1.7 329 0 978.8 NA 0.0000 -SN BR 9999 0 0 0 3870
2019/10/17 14:27:00 BASE 34.77 27 43.06 28 1.7 100 1.7 311 0 978.7 NA 0.0000 -SN BR 9000 6530 0 0 0
2019/10/17 14:28:00 BASE 34.27 28 43.06 28 1.7 100 1.7 307 0 978.7 NA 0.0000 -SN BR 9000 6590 0 0 0
2019/10/17 14:29:00 BASE 34.21 25 43.06 28 1.7 100 1.7 309 0 978.6 NA 0.0000 -SN BR 8000 330 6430 0 0
2019/10/17 14:30:00 BASE 34.33 26 43.06 28 1.6 100 1.6 321 0 978.7 NA 0.0000 -SN BR 9000 330 6660 0 0
2019/10/17 14:31:00 BASE 35.29 31 43.06 28 1.6 100 1.6 339 0 978.6 NA 0.0000 -SN BR 7000 260 6890 0 0
2019/10/17 14:32:00 BASE 35.33 30 43.06 28 1.6 100 1.6 452 0 978.7 NA 0.0000 -SN BR 7000 6990 0 0 0
2019/10/17 14:33:00 BASE 34.25 28 43.06 28 1.5 100 1.5 380 0 978.5 NA 0.0000 -SN BR 9999 7090 20340 0 0
2019/10/17 14:34:00 BASE 34.41 28 43.06 28 1.5 100 1.5 381 0 978.6 NA 0.0000 -SN BR 9999 7350 0 0 0
2019/10/17 14:35:00 BASE 34.27 27 43.06 28 1.5 100 1.5 417 0 978.6 NA 0.0000 -SN BR 9999 7480 0 0 0
2019/10/17 14:36:00 BASE 33.63 31 40.80 25 1.5 100 1.5 392 0 978.6 NA 0.0000 -SN BR 9000 3510 7710 0 0
2019/10/17 14:37:00 BASE 34.43 34 40.80 25 1.5 100 1.5 436 0 978.6 NA 0.0000 -SN BR 5000 3410 7840 0 0
2019/10/17 14:38:00 BASE 35.01 33 40.80 25 1.6 100 1.6 660 0 978.5 NA 0.0000 -SN BR 9999 3220 0 0 0
2019/10/17 14:39:00 BASE 35.36 32 40.80 25 1.6 100 1.6 535 0 978.4 NA 0.0000 -SN BR 8000 3580 7640 0 0
2019/10/17 14:40:00 BASE 35.57 33 40.80 25 1.6 100 1.6 434 0 978.4 NA 0.0000 -SN BR 9000 7640 0 0 0
2019/10/17 14:41:00 BASE 36.68 36 40.80 25 1.7 100 1.7 459 0 978.2 NA 0.0000 -SN BR 9999 7810 0 0 0
2019/10/17 14:42:00 BASE 38.70 34 41.77 20 1.7 100 1.7 445 0 978.2 NA 0.0000 -SN BR 9999 7810 0 0 0
2019/10/17 14:43:00 BASE 37.48 31 41.77 20 1.7 100 1.7 442 0 978.3 NA 0.0000 -SN BR 9999 7870 0 0 0
2019/10/17 14:44:00 BASE 34.88 30 41.77 20 1.7 100 1.7 470 0 978.4 NA 0.0000 -SN BR 9999 8010 0 0 0
2019/10/17 14:45:00 BASE 33.84 29 41.77 20 1.7 100 1.7 468 0 978.4 NA 0.0000 -SN BR 9999 7910 0 0 0
2019/10/17 14:46:00 BASE 33.04 26 41.77 20 1.7 100 1.7 512 0 978.4 NA 0.0000 -SN BR 9999 7940 0 0 0
2019/10/17 14:47:00 BASE 33.76 27 41.77 20 1.7 100 1.7 608 0 978.4 NA 0.0000 -SN 9999 0 0 0 520
2019/10/17 14:48:00 BASE 34.70 30 41.77 20 1.7 100 1.7 505 0 978.3 NA 0.0000 -SN 9999 8240 0 0 0
2019/10/17 14:49:00 BASE 34.64 30 41.77 20 1.7 100 1.7 501 0 978.3 NA 0.0000 -SN 9999 8100 0 0 0
2019/10/17 14:50:00 BASE 34.97 30 41.77 20 1.8 100 1.8 676 0 978.3 NA 0.0000 -SN 9999 8660 0 0 0
2019/10/17 14:51:00 BASE 34.83 29 41.77 20 1.8 100 1.8 572 0 978.4 NA 0.0000 -SN 9999 8370 0 0 0
2019/10/17 14:52:00 BASE 34.01 26 40.64 24 1.8 100 1.8 529 0 978.5 NA 0.0000 -SN 9999 8400 0 0 0
2019/10/17 14:53:00 BASE 31.09 25 40.64 24 1.8 100 1.8 526 0 978.7 NA 0.0000 -SN 9999 8920 9910 0 0
2019/10/17 14:54:00 BASE 29.85 25 40.64 24 1.7 100 1.7 682 0 978.7 NA 0.0000 -SN 9999 9740 0 0 0
2019/10/17 14:55:00 BASE 31.85 27 40.64 24 1.7 100 1.7 499 0 978.6 NA 0.0000 -SN 9999 9880 0 0 0
2019/10/17 14:56:00 BASE 33.52 27 40.64 24 1.7 100 1.7 492 0 978.5 NA 0.0000 -SN 9999 10110 0 0 0
2019/10/17 14:57:00 BASE 33.23 23 40.64 24 1.7 100 1.7 477 0 978.6 NA 0.0000 -SN 9999 10110 0 0 0
2019/10/17 14:58:00 BASE 32.49 23 39.87 30 1.7 100 1.7 453 0 978.5 NA 0.0000 -SN 9999 10240 0 0 0
2019/10/17 14:59:00 BASE 32.62 24 39.87 30 1.8 100 1.8 475 0 978.5 NA 0.0000 -SN 9999 10340 0 0 0
2019/10/17 15:00:00 BASE 33.41 25 39.87 30 1.8 100 1.8 481 0 978.4 NA 0.0000 -SN 9999 4300 10300 0 0
2019/10/17 15:01:00 BASE 33.40 24 38.48 21 1.8 100 1.8 444 0 978.5 NA 0.0000 -SN 9999 10140 0 0 0
2019/10/17 15:02:00 BASE 31.82 22 38.48 21 1.9 100 1.9 440 0 978.7 NA 0.0000 9999 10070 0 0 0
2019/10/17 15:03:00 BASE 31.87 17 38.48 21 1.9 100 1.9 439 0 978.5 NA 0.0000 9999 10010 0 0 0
2019/10/17 15:04:00 BASE 31.37 15 38.48 21 1.9 100 1.9 436 0 978.6 NA 0.0000 9999 9880 0 0 0
2019/10/17 15:05:01 BASE 31.05 20 38.48 21 1.9 100 1.9 429 0 978.5 NA 0.0000 9999 2490 0 0 0
2019/10/17 15:06:01 BASE 32.33 25 38.48 21 1.9 100 1.9 505 0 978.5 NA 0.0000 9999 2360 3020 0 0
2019/10/17 15:07:01 BASE 32.11 27 38.48 21 1.9 100 1.9 418 0 978.5 NA 0.0000 9999 2260 0 0 0
2019/10/17 15:08:01 BASE 31.86 25 38.48 21 1.9 100 1.9 413 0 978.5 NA 0.0000 9999 2360 0 0 0
2019/10/17 15:09:01 BASE 34.14 25 42.18 36 1.9 100 1.9 459 0 978.3 NA 0.0000 9999 2100 0 0 0
2019/10/17 15:10:01 BASE 35.47 27 42.18 36 1.9 100 1.9 433 0 978.4 NA 0.0000 9999 2170 0 0 0
2019/10/17 15:11:00 BASE 34.46 26 42.18 36 1.9 100 1.9 456 0 978.4 NA 0.0000 9999 2030 0 0 0
2019/10/17 15:12:00 BASE 34.28 24 42.18 36 1.9 100 1.9 511 0 978.5 NA 0.0000 9999 2000 0 0 0
2019/10/17 15:13:00 BASE 34.33 23 42.18 36 1.9 100 1.9 463 0 978.5 NA 0.0000 9999 3150 0 0 0
2019/10/17 15:14:00 BASE 34.42 21 42.18 36 1.9 100 1.9 503 0 978.4 NA 0.0000 9999 3350 0 0 0
2019/10/17 15:15:00 BASE 34.44 17 42.18 36 1.8 100 1.8 453 0 978.4 NA 0.0000 9999 3540 0 0 0
2019/10/17 15:16:00 BASE 33.05 14 42.18 36 1.8 100 1.8 449 0 978.5 NA 0.0000 9999 3610 10700 0 0
2019/10/17 15:17:00 BASE 30.53 14 42.18 36 1.8 100 1.8 434 0 978.7 NA 0.0000 9999 8830 10240 0 0
2019/10/17 15:18:00 BASE 30.55 18 42.18 36 1.7 100 1.7 407 0 978.6 NA 0.0000 9999 2430 3580 0 0
2019/10/17 15:19:00 BASE 31.91 21 38.79 27 1.7 100 1.7 374 0 978.6 NA 0.0000 9999 2490 0 0 0
2019/10/17 15:20:00 BASE 32.98 23 38.79 27 1.7 100 1.7 395 0 978.5 NA 0.0000 9999 2330 0 0 0
2019/10/17 15:21:00 BASE 33.13 26 38.79 27 1.7 100 1.7 336 0 978.6 NA 0.0000 9999 2230 22700 0 0
2019/10/17 15:22:00 BASE 33.95 29 39.72 31 1.7 100 1.7 320 0 978.4 NA 0.0000 9999 2130 0 0 0
2019/10/17 15:23:00 BASE 35.87 30 39.72 31 1.8 100 1.8 324 0 978.2 NA 0.0000 9999 2260 0 0 0
2019/10/17 15:24:00 BASE 35.78 27 39.72 31 1.8 100 1.8 320 0 978.4 NA 0.0000 9999 2460 0 0 0
2019/10/17 15:25:00 BASE 33.23 21 39.72 31 1.8 100 1.8 337 0 978.6 NA 0.0000 9999 1150 0 0 0
2019/10/17 15:26:00 BASE 32.43 19 39.72 31 1.8 100 1.8 359 0 978.4 NA 0.0000 9999 2200 0 0 0
2019/10/17 15:27:00 BASE 34.21 23 39.72 31 1.8 100 1.8 389 0 978.4 NA 0.0000 9999 2720 0 0 0
2019/10/17 15:28:00 BASE 33.85 23 39.72 31 1.8 100 1.8 373 0 978.4 NA 0.0000 9999 2950 0 0 0
2019/10/17 15:29:01 BASE 34.05 22 39.72 31 1.8 100 1.8 306 0 978.3 NA 0.0000 9999 0 0 0 5640
2019/10/17 15:30:01 BASE 34.17 23 39.72 31 1.8 100 1.8 260 0 978.5 NA 0.0000 9999 2490 0 0 0
2019/10/17 15:31:01 BASE 34.31 24 39.72 31 1.8 100 1.8 253 0 978.4 NA 0.0000 UP 9000 460 22540 0 0
2019/10/17 15:32:01 BASE 34.83 22 39.66 31 1.8 100 1.8 245 0 978.4 NA 0.0000 UP 6000 390 0 0 0
2019/10/17 15:33:01 BASE 34.89 20 39.66 31 1.8 100 1.8 233 0 978.4 NA 0.0000 UP 8000 360 0 0 0
2019/10/17 15:34:01 BASE 35.54 21 39.66 31 1.8 100 1.8 227 0 978.4 NA 0.0000 UP BR 3400 300 0 0 0
2019/10/17 15:35:01 BASE 35.33 21 39.66 31 1.8 100 1.8 218 0 978.4 NA 0.0000 UP BR 1900 0 0 0 2720
2019/10/17 15:36:01 BASE 34.56 21 39.66 31 1.8 100 1.8 210 0 978.6 NA 0.0000 UP BR 3500 0 0 0 2490
2019/10/17 15:37:01 BASE 34.25 23 39.66 31 1.7 100 1.7 199 0 978.6 NA 0.0000 -SN BR 2800 21360 0 0 0
2019/10/17 15:38:01 BASE 33.59 23 39.66 31 1.7 100 1.7 185 0 978.7 NA 0.0000 -SN BR 3000 330 0 0 0
2019/10/17 15:39:01 BASE 32.68 20 39.66 31 1.6 100 1.6 175 0 978.7 NA 0.0000 -SN BR 5000 0 0 0 2790
2019/10/17 15:40:01 BASE 31.89 20 39.66 31 1.6 100 1.6 173 0 978.7 NA 0.0000 -SN BR 3700 0 0 0 2690
2019/10/17 15:41:01 BASE 32.20 21 39.46 21 1.5 100 1.5 170 0 978.7 NA 0.0000 -SN BR 3000 0 0 0 2530
2019/10/17 15:42:01 BASE 32.61 19 39.46 21 1.5 100 1.5 184 0 978.8 NA 0.0000 -SN BR 2200 0 0 0 2170
2019/10/17 15:43:01 BASE 30.69 18 39.46 21 1.5 100 1.5 199 0 979.0 NA 0.0000 -SN BR 1900 330 0 0 0
2019/10/17 15:44:01 BASE 28.94 14 39.46 21 1.5 100 1.5 220 0 979.0 NA 0.0000 -SN BR 2200 300 0 0 0
2019/10/17 15:45:01 BASE 28.50 12 37.71 24 1.4 100 1.4 225 0 979.0 NA 0.0000 -SN BR 2200 300 0 0 0
2019/10/17 15:46:01 BASE 29.34 13 37.71 24 1.4 100 1.4 216 0 978.8 NA 0.0000 -SN BR 2000 0 0 0 2720
2019/10/17 15:47:01 BASE 30.40 13 37.55 25 1.4 100 1.4 212 0 978.8 NA 0.0000 -SN BR 2000 0 0 0 3810
2019/10/17 15:48:01 BASE 30.39 13 36.73 18 1.4 100 1.4 205 0 978.7 NA 0.0000 -SN BR 2900 0 0 0 3220
2019/10/17 15:49:01 BASE 30.23 16 36.73 18 1.4 100 1.4 199 0 978.7 NA 0.0000 -SN BR 3200 0 0 0 2760
2019/10/17 15:50:01 BASE 30.74 18 36.73 18 1.4 100 1.4 195 0 978.7 NA 0.0000 -SN BR 2400 330 21620 0 0
2019/10/17 15:51:01 BASE 31.36 16 35.24 19 1.4 100 1.4 179 0 978.7 NA 0.0000 -SN BR 2800 390 0 0 0
2019/10/17 15:52:01 BASE 32.58 10 36.47 13 1.4 100 1.4 176 0 978.6 NA 0.0000 -SN BR 3200 720 0 0 0
2019/10/17 15:53:01 BASE 33.06 11 38.27 18 1.4 100 1.4 171 0 978.7 NA 0.0000 -SN BR 4900 230 0 0 0
2019/10/17 15:54:01 BASE 33.14 11 38.48 10 1.4 100 1.4 179 0 978.7 NA 0.0000 -SN BR 1900 230 0 0 0
2019/10/17 15:55:01 BASE 30.61 8 38.48 10 1.3 100 1.3 186 0 979.0 NA 0.0000 -SN BR 1600 0 0 0 1710
2019/10/17 15:56:01 BASE 27.96 7 38.48 10 1.3 100 1.3 180 0 979.0 NA 0.0000 -SN BR 2900 0 0 0 1840
2019/10/17 15:57:01 BASE 26.61 10 38.48 10 1.3 100 1.3 194 0 979.1 NA 0.0000 -SN BR 5000 0 0 0 1570
2019/10/17 15:58:01 BASE 26.82 17 38.48 10 1.2 100 1.2 199 0 978.9 NA 0.0000 -SN BR 1600 0 0 0 1670
2019/10/17 15:59:00 BASE 29.95 19 38.48 10 1.2 100 1.2 194 0 978.8 NA 0.0000 -SN BR 1100 0 0 0 2620
2019/10/17 16:00:01 BASE 31.28 20 38.48 10 1.2 100 1.2 194 0 978.7 NA 0.0000 -SN BR 0750 0 0 0 1350
2019/10/17 16:01:01 BASE 31.21 21 38.48 10 1.2 100 1.2 195 0 978.8 NA 0.0000 -SN BR 1300 260 0 0 0
2019/10/17 16:02:01 BASE 31.06 22 38.48 10 1.3 100 1.3 198 0 978.7 NA 0.0000 -SN BR 1600 230 0 0 0
2019/10/17 16:03:00 BASE 30.65 21 38.48 10 1.3 100 1.3 193 0 978.8 NA 0.0000 -SN BR 1800 0 0 0 2620
2019/10/17 16:04:01 BASE 31.42 20 36.01 20 1.3 100 1.3 194 0 978.7 NA 0.0000 -SN BR 2600 0 0 0 2590
2019/10/17 16:05:00 BASE 32.99 19 36.01 20 1.3 100 1.3 197 0 978.7 NA 0.0000 -SN BR 4200 390 0 0 0
2019/10/17 16:06:01 BASE 31.83 17 36.01 20 1.3 100 1.3 198 0 978.8 NA 0.0000 -SN BR 5000 390 0 0 0
2019/10/17 16:07:00 BASE 30.60 15 36.01 20 1.2 100 1.2 198 0 978.7 NA 0.0000 -SN BR 9000 390 2430 0 0
2019/10/17 16:08:01 BASE 29.92 14 36.01 20 1.2 100 1.2 196 0 978.9 NA 0.0000 -SN BR 9000 430 0 0 0
2019/10/17 16:09:00 BASE 30.03 16 36.01 20 1.2 100 1.2 197 0 978.8 NA 0.0000 -SN BR 9999 0 0 0 3220
2019/10/17 16:10:00 BASE 30.98 19 36.01 20 1.2 100 1.2 203 0 978.8 NA 0.0000 -SN BR 9999 0 0 0 2920
2019/10/17 16:11:00 BASE 30.68 16 36.01 20 1.2 100 1.2 193 0 978.7 NA 0.0000 -SN BR 9999 390 0 0 0
2019/10/17 16:12:01 BASE 30.54 15 36.01 20 1.3 100 1.3 176 0 978.8 NA 0.0000 -SN BR 9999 0 0 0 3410
2019/10/17 16:13:00 BASE 29.58 15 36.01 20 1.3 100 1.3 163 0 979.0 NA 0.0000 -SN BR 9999 0 0 0 3840
2019/10/17 16:14:01 BASE 28.96 16 35.91 17 1.3 100 1.3 153 0 978.9 NA 0.0000 -SN BR 9000 330 0 0 0
2019/10/17 16:15:00 BASE 29.33 16 34.11 13 1.2 100 1.2 154 0 978.9 NA 0.0000 -SN BR 5000 330 0 0 0
2019/10/17 16:16:00 BASE 30.21 18 34.36 14 1.2 100 1.2 166 0 978.7 NA 0.0000 -SN BR 4100 300 0 0 0
2019/10/17 16:17:00 BASE 31.18 19 35.24 15 1.2 100 1.2 180 0 978.7 NA 0.0000 -SN BR 3300 300 0 0 0
2019/10/17 16:18:00 BASE 30.76 18 35.29 16 1.2 100 1.2 188 0 978.7 NA 0.0000 -SN BR 4400 360 0 0 0
2019/10/17 16:19:00 BASE 30.05 18 35.29 16 1.2 100 1.2 177 0 978.8 NA 0.0000 -SN BR 6000 330 0 0 0
2019/10/17 16:20:00 BASE 31.18 17 35.70 16 1.2 100 1.2 171 0 978.6 NA 0.0000 -SN BR 9000 300 2130 0 0
2019/10/17 16:21:00 BASE 32.10 16 35.70 16 1.2 100 1.2 170 0 978.6 NA 0.0000 -SN BR 7000 330 0 0 0
2019/10/17 16:22:00 BASE 31.47 16 35.70 16 1.3 100 1.3 182 0 978.7 NA 0.0000 -SN BR 7000 300 0 0 0
2019/10/17 16:23:00 BASE 30.78 17 35.70 16 1.3 100 1.3 196 0 978.7 NA 0.0000 -SN BR 7000 0 0 0 2490
2019/10/17 16:24:00 BASE 31.33 17 35.86 16 1.3 100 1.3 203 0 978.6 NA 0.0000 -SN BR 4000 260 0 0 0
2019/10/17 16:25:00 BASE 31.66 15 35.86 16 1.3 100 1.3 217 0 978.6 NA 0.0000 -SN BR 3600 0 0 0 2300
2019/10/17 16:26:00 BASE 30.59 12 35.86 16 1.3 100 1.3 224 0 978.7 NA 0.0000 -SN BR 4600 330 0 0 0
2019/10/17 16:27:00 BASE 30.90 10 35.86 16 1.2 100 1.2 221 0 978.5 NA 0.0000 -SN BR 7000 330 0 0 0
2019/10/17 16:28:00 BASE 31.76 13 35.86 16 1.2 100 1.2 222 0 978.5 NA 0.0000 -SN BR 8000 300 0 0 0
2019/10/17 16:29:00 BASE 30.46 15 35.86 16 1.2 100 1.2 225 0 978.7 NA 0.0000 -SN BR 5000 260 2170 0 0
2019/10/17 16:30:00 BASE 28.32 13 35.86 16 1.2 100 1.2 232 0 978.9 NA 0.0000 -SN BR 6000 300 0 0 0
2019/10/17 16:31:00 BASE 28.36 14 35.86 16 1.2 100 1.2 241 0 978.8 NA 0.0000 -SN BR 9999 0 0 0 2950
2019/10/17 16:32:00 BASE 29.72 16 35.86 16 1.2 100 1.2 262 0 978.7 NA 0.0000 -SN BR 9999 330 0 0 0
2019/10/17 16:33:00 BASE 31.33 17 35.86 16 1.2 100 1.2 257 0 978.5 NA 0.0000 -SN BR 8000 330 0 0 0
2019/10/17 16:34:00 BASE 31.50 15 35.03 13 1.2 100 1.2 256 0 978.6 NA 0.0000 -SN BR 9999 360 24310 0 0
2019/10/17 16:35:00 BASE 29.43 14 35.03 13 1.2 100 1.2 258 0 978.8 NA 0.0000 -SN BR 9999 360 0 0 0
2019/10/17 16:36:00 BASE 29.47 12 35.03 13 1.2 100 1.2 256 0 978.7 NA 0.0000 -SN BR 9999 360 0 0 0
2019/10/17 16:37:00 BASE 29.48 12 34.57 19 1.2 100 1.2 263 0 978.8 NA 0.0000 -SN BR 9999 360 0 0 0
2019/10/17 16:38:00 BASE 28.03 12 34.57 19 1.2 100 1.2 284 0 978.9 NA 0.0000 -SN BR 9999 0 0 0 3900
2019/10/17 16:39:00 BASE 26.96 9 34.57 19 1.3 100 1.3 338 0 979.1 NA 0.0000 -SN 9999 0 0 0 3510
2019/10/17 16:40:00 BASE 26.84 8 34.57 19 1.3 100 1.3 339 0 979.0 NA 0.0000 -SN 9999 0 0 0 3970
2019/10/17 16:41:00 BASE 28.09 9 34.57 19 1.3 100 1.3 327 0 979.1 NA 0.0000 -SN 9999 360 0 0 0
2019/10/17 16:42:00 BASE 30.47 11 34.88 17 1.4 100 1.4 343 0 978.9 NA 0.0000 -SN 9999 360 0 0 0
2019/10/17 16:43:00 BASE 30.05 8 34.88 17 1.4 100 1.4 340 0 979.1 NA 0.0000 -SN 9999 390 0 0 0
2019/10/17 16:44:00 BASE 28.15 7 34.88 17 1.4 100 1.4 345 0 979.0 NA 0.0000 -SN 9999 390 0 0 0
2019/10/17 16:45:00 BASE 28.94 9 34.88 17 1.4 100 1.4 341 0 979.0 NA 0.0000 -SN 9999 2100 0 0 0
2019/10/17 16:46:00 BASE 29.66 10 34.88 17 1.4 100 1.4 336 0 979.1 NA 0.0000 9999 2100 0 0 0
2019/10/17 16:47:00 BASE 30.01 8 34.88 17 1.4 100 1.4 339 0 979.1 NA 0.0000 9999 1900 0 0 0
2019/10/17 16:48:00 BASE 29.39 6 34.88 17 1.4 100 1.4 340 0 979.2 NA 0.0000 9999 1870 0 0 0
2019/10/17 16:49:00 BASE 29.82 6 34.88 17 1.4 100 1.4 378 0 979.1 NA 0.0000 9999 1940 0 0 0
2019/10/17 16:50:00 BASE 30.95 8 35.14 14 1.4 100 1.4 435 0 979.1 NA 0.0000 9999 460 0 0 0
2019/10/17 16:51:00 BASE 30.59 6 35.14 14 1.4 100 1.4 443 0 979.2 NA 0.0000 9999 1900 0 0 0
2019/10/17 16:52:00 BASE 29.58 6 35.14 14 1.4 100 1.4 408 0 979.3 NA 0.0000 9999 2170 0 0 0
2019/10/17 16:53:00 BASE 28.60 10 35.14 14 1.5 100 1.5 331 0 979.3 NA 0.0000 9999 2100 3410 0 0
2019/10/17 16:54:00 BASE 28.40 10 35.14 14 1.5 100 1.5 318 0 979.3 NA 0.0000 9999 2000 3710 0 0
2019/10/17 16:55:00 BASE 28.29 10 35.14 14 1.5 100 1.5 291 0 979.4 NA 0.0000 9999 2070 0 0 0
2019/10/17 16:56:00 BASE 28.39 9 35.14 14 1.4 100 1.4 421 0 979.4 NA 0.0000 9999 2070 3120 0 0
2019/10/17 16:57:00 BASE 27.49 7 35.14 14 1.5 100 1.5 454 0 979.5 NA 0.0000 9999 1900 0 0 0
2019/10/17 16:58:00 BASE 25.97 7 35.14 14 1.5 100 1.5 584 0 979.5 NA 0.0000 9999 1970 22150 0 0
2019/10/17 16:59:00 BASE 25.53 5 35.14 14 1.6 100 1.6 545 0 979.6 NA 0.0000 9999 1800 0 0 0
2019/10/17 17:00:00 BASE 24.61 6 32.10 6 1.8 100 1.8 666 0 979.7 NA 0.0000 9999 1670 0 0 0
2019/10/17 17:01:00 BASE 23.79 8 32.10 6 1.9 100 1.9 351 0 979.8 NA 0.0000 9999 1480 22310 0 0
2019/10/17 17:02:00 BASE 24.95 9 31.84 11 2.0 100 2.0 331 0 979.5 NA 0.0000 9999 1480 0 0 0
2019/10/17 17:03:00 BASE 26.07 9 31.84 11 2.0 100 2.0 397 0 979.5 NA 0.0000 9999 1940 0 0 0
2019/10/17 17:04:00 BASE 26.30 7 30.76 3 2.1 100 2.1 428 0 979.5 NA 0.0000 9999 1740 0 0 0
2019/10/17 17:05:00 BASE 26.40 0 30.76 3 2.1 100 2.1 706 0 979.8 NA 0.0000 9999 1380 0 0 0
2019/10/17 17:06:00 BASE 24.08 354 30.20 1 2.2 100 2.2 336 0 980.0 NA 0.0000 9999 1250 21620 0 0
2019/10/17 17:07:00 BASE 20.40 358 30.20 1 2.3 100 2.3 382 0 980.1 NA 0.0000 9999 1280 0 0 0
2019/10/17 17:08:00 BASE 19.62 5 30.20 1 2.5 100 2.5 398 0 980.0 NA 0.0000 9999 1380 0 0 0
2019/10/17 17:09:00 BASE 22.26 5 30.20 1 2.5 100 2.5 328 0 979.9 NA 0.0000 9999 1740 0 0 0
2019/10/17 17:10:00 BASE 23.50 2 30.20 1 2.5 100 2.5 345 0 980.0 NA 0.0000 9999 1640 0 0 0
2019/10/17 17:11:00 BASE 22.88 4 30.20 1 2.4 100 2.4 253 0 980.0 NA 0.0000 9999 1570 0 0 0
2019/10/17 17:12:00 BASE 20.56 2 30.20 1 2.3 100 2.3 309 0 980.2 NA 0.0000 9999 1440 0 0 0
2019/10/17 17:13:00 BASE 17.76 357 30.20 1 2.3 100 2.3 305 0 980.3 NA 0.0000 9999 1770 0 0 0
2019/10/17 17:14:00 BASE 17.61 352 29.22 2 2.3 100 2.3 270 0 980.3 NA 0.0000 9999 1210 0 0 0
2019/10/17 17:15:00 BASE 19.79 350 28.04 3 2.3 100 2.3 257 0 980.2 NA 0.0000 9999 1280 0 0 0
2019/10/17 17:16:00 BASE 22.87 351 28.04 3 2.4 100 2.4 232 0 980.2 NA 0.0000 9999 1440 0 0 0
2019/10/17 17:17:00 BASE 21.74 345 28.04 3 2.5 100 2.5 230 0 980.5 NA 0.0000 9999 1540 0 0 0
2019/10/17 17:18:00 BASE 19.00 343 28.04 3 2.5 100 2.5 238 0 980.5 NA 0.0000 9999 1540 2070 22280 0
2019/10/17 17:19:00 BASE 18.50 347 27.21 353 2.5 100 2.5 248 0 980.6 NA 0.0000 9999 1480 0 0 0
2019/10/17 17:20:00 BASE 17.37 349 27.21 353 2.4 100 2.4 251 0 980.7 NA 0.0000 9999 1250 0 0 0
2019/10/17 17:21:00 BASE 15.84 349 27.21 353 2.3 100 2.3 238 0 980.7 NA 0.0000 9999 1280 0 0 0
2019/10/17 17:22:01 BASE 16.13 347 27.21 353 2.2 100 2.2 228 0 980.7 NA 0.0000 9999 1480 24150 0 0
2019/10/17 17:23:01 BASE 18.26 347 27.21 353 2.2 100 2.2 212 0 980.6 NA 0.0000 9999 1610 0 0 0
2019/10/17 17:24:01 BASE 18.73 351 27.21 353 2.2 100 2.2 206 0 980.7 NA 0.0000 9999 1350 0 0 0
2019/10/17 17:25:01 BASE 17.60 349 27.21 353 2.1 100 2.1 202 0 980.8 NA 0.0000 9999 1480 0 0 0
2019/10/17 17:26:01 BASE 17.61 345 22.79 332 2.1 100 2.1 199 0 980.7 NA 0.0000 9999 1440 0 0 0
2019/10/17 17:27:01 BASE 16.94 349 21.81 341 2.1 100 2.1 203 0 980.8 NA 0.0000 9999 690 0 0 0
2019/10/17 17:28:01 BASE 18.50 357 23.77 352 2.0 100 2.0 195 0 980.7 NA 0.0000 9999 690 0 0 0
2019/10/17 17:29:01 BASE 19.88 355 23.77 352 2.0 100 2.0 173 0 980.8 NA 0.0000 9999 1180 0 0 0
2019/10/17 17:30:01 BASE 16.92 347 23.77 352 2.0 100 2.0 165 0 981.0 NA 0.0000 9999 490 0 0 0
2019/10/17 17:31:01 BASE 14.70 346 23.77 352 1.9 100 1.9 163 0 981.0 NA 0.0000 9999 460 0 0 0
2019/10/17 17:32:01 BASE 16.25 342 23.77 352 1.9 100 1.9 169 0 981.0 NA 0.0000 9999 750 0 0 0
2019/10/17 17:33:01 BASE 19.13 337 23.77 352 1.9 100 1.9 178 0 980.9 NA 0.0000 9999 1250 0 0 0
2019/10/17 17:34:01 BASE 18.74 334 23.77 352 1.9 100 1.9 179 0 981.0 NA 0.0000 9999 1120 0 0 0
2019/10/17 17:35:01 BASE 16.02 333 23.77 352 1.9 100 1.9 173 0 981.1 NA 0.0000 9999 1250 0 0 0
2019/10/17 17:36:01 BASE 16.25 336 23.77 352 1.9 100 1.9 177 0 981.0 NA 0.0000 9999 1050 0 0 0
2019/10/17 17:37:01 BASE 16.85 342 23.77 352 1.9 100 1.9 183 0 980.8 NA 0.0000 9999 490 22310 0 0
2019/10/17 17:38:01 BASE 15.57 341 23.41 338 1.9 100 1.9 176 0 981.0 NA 0.0000 9999 950 0 0 0
2019/10/17 17:39:01 BASE 14.66 337 23.41 338 1.9 100 1.9 160 0 981.1 NA 0.0000 9999 720 0 0 0
2019/10/17 17:40:01 BASE 13.62 338 23.41 338 1.9 100 1.9 150 0 981.1 NA 0.0000 9999 660 0 0 0
2019/10/17 17:41:01 BASE 14.46 336 23.41 338 1.8 100 1.8 146 0 981.1 NA 0.0000 9999 620 0 0 0
2019/10/17 17:42:01 BASE 16.33 337 23.41 338 1.8 100 1.8 137 0 981.0 NA 0.0000 9999 390 0 0 0
2019/10/17 17:43:01 BASE 16.97 341 22.48 326 1.8 100 1.8 131 0 981.0 NA 0.0000 9999 520 0 0 0
2019/10/17 17:44:01 BASE 16.66 344 21.92 337 1.8 100 1.8 130 0 981.0 NA 0.0000 9999 430 0 0 0
2019/10/17 17:45:01 BASE 16.50 351 21.92 337 1.8 100 1.8 125 0 981.1 NA 0.0000 9999 460 0 0 0
2019/10/17 17:46:01 BASE 15.24 349 19.39 340 1.8 100 1.8 126 0 981.2 NA 0.0000 9999 490 0 0 0
2019/10/17 17:47:01 BASE 14.15 343 19.39 340 1.7 100 1.7 130 0 981.2 NA 0.0000 9999 620 0 0 0
2019/10/17 17:48:01 BASE 14.83 344 19.39 340 1.7 100 1.7 130 0 981.1 NA 0.0000 9999 620 0 0 0
2019/10/17 17:49:01 BASE 15.34 347 19.39 340 1.6 100 1.6 126 0 981.1 NA 0.0000 9999 520 0 0 0
2019/10/17 17:50:01 BASE 15.29 348 19.39 340 1.6 100 1.6 121 0 981.1 NA 0.0000 9999 1210 0 0 0
2019/10/17 17:51:01 BASE 14.73 345 18.98 340 1.6 100 1.6 115 0 981.2 NA 0.0000 9999 1180 0 0 0
2019/10/17 17:52:01 BASE 13.82 344 18.31 347 1.6 100 1.6 111 0 981.2 NA 0.0000 9999 1280 0 0 0
2019/10/17 17:53:01 BASE 13.42 346 18.31 347 1.6 100 1.6 111 0 981.2 NA 0.0000 9999 1310 0 0 0
2019/10/17 17:54:01 BASE 13.06 349 17.95 353 1.6 100 1.6 113 0 981.2 NA 0.0000 9999 1180 0 0 0
2019/10/17 17:55:01 BASE 13.17 351 17.34 341 1.6 100 1.6 110 0 981.2 NA 0.0000 9999 1250 0 0 0
2019/10/17 17:56:01 BASE 13.95 355 17.34 341 1.6 100 1.6 102 0 981.2 NA 0.0000 9999 1210 0 0 0
2019/10/17 17:57:01 BASE 14.12 351 17.34 341 1.6 100 1.6 96 0 980.7 NA 0.0000 9999 1210 0 0 0
2019/10/17 17:58:01 BASE 13.38 347 16.82 344 1.7 100 1.7 97 0 980.9 NA 0.0000 9999 1280 0 0 0
2019/10/17 17:59:01 BASE 13.54 349 16.82 344 1.7 100 1.7 101 0 980.6 NA 0.0000 9999 1310 0 0 0
2019/10/17 18:00:00 BASE 14.09 347 15.84 353 1.7 100 1.7 107 0 981.1 NA 0.0000 9999 1410 0 0 0
2019/10/17 18:01:01 BASE 14.58 344 17.29 342 1.7 100 1.7 111 0 981.3 NA 0.0000 9999 1310 0 0 0
2019/10/17 18:02:01 BASE 14.74 347 17.29 342 1.7 100 1.7 115 0 981.4 NA 0.0000 9999 1280 0 0 0
2019/10/17 18:03:00 BASE 13.80 350 17.29 342 1.7 100 1.7 124 0 981.4 NA 0.0000 9999 1280 0 0 0
2019/10/17 18:04:01 BASE 12.84 348 17.29 342 1.7 100 1.7 135 0 981.4 NA 0.0000 9999 1280 0 0 0
2019/10/17 18:05:01 BASE 12.71 348 17.29 342 1.7 100 1.7 141 0 981.4 NA 0.0000 9999 1280 0 0 0
2019/10/17 18:06:01 BASE 14.07 353 17.29 342 1.8 100 1.8 140 0 981.3 NA 0.0000 9999 1310 23000 0 0
2019/10/17 18:07:00 BASE 14.81 353 17.29 342 1.8 100 1.8 139 0 981.3 NA 0.0000 9999 1180 22740 0 0
2019/10/17 18:08:01 BASE 14.03 350 17.29 342 1.8 100 1.8 136 0 981.4 NA 0.0000 9999 1180 0 0 0
2019/10/17 18:09:00 BASE 13.83 349 17.29 342 1.8 100 1.8 131 0 981.4 NA 0.0000 9999 1180 0 0 0
2019/10/17 18:10:00 BASE 13.65 348 17.29 342 1.8 100 1.8 129 0 981.3 NA 0.0000 9999 1150 0 0 0
2019/10/17 18:11:01 BASE 13.42 350 16.26 346 1.8 100 1.8 129 0 981.3 NA 0.0000 9999 1120 0 0 0
2019/10/17 18:12:01 BASE 13.73 354 16.26 346 1.9 100 1.9 131 0 981.3 NA 0.0000 9999 1150 0 0 0
2019/10/17 18:13:00 BASE 14.16 356 16.26 346 1.9 100 1.9 134 0 981.3 NA 0.0000 9999 1150 0 0 0
2019/10/17 18:14:00 BASE 14.66 350 16.87 250 1.9 100 1.9 138 0 981.2 NA 0.0000 9999 1150 0 0 0
2019/10/17 18:15:00 BASE 14.31 353 16.87 250 1.9 100 1.9 139 0 981.2 NA 0.0000 9999 660 23390 0 0
2019/10/17 18:16:01 BASE 13.47 359 16.87 250 1.9 100 1.9 134 0 981.2 NA 0.0000 9999 950 0 0 0
2019/10/17 18:17:00 BASE 13.29 358 16.87 250 1.9 100 1.9 126 0 981.2 NA 0.0000 9999 1080 0 0 0
2019/10/17 18:18:01 BASE 13.69 360 16.87 250 1.8 100 1.8 117 0 981.0 NA 0.0000 9999 690 0 0 0
2019/10/17 18:19:00 BASE 14.34 359 16.87 250 1.8 100 1.8 112 0 981.2 NA 0.0000 9999 620 17030 0 0
2019/10/17 18:20:00 BASE 14.76 359 16.87 250 1.8 100 1.8 108 0 980.0 NA 0.0000 9999 890 0 0 0
2019/10/17 18:21:00 BASE 14.56 1 16.87 250 1.8 100 1.8 105 0 981.2 NA 0.0000 9999 850 0 0 0
2019/10/17 18:22:00 BASE 14.09 359 16.87 250 1.8 100 1.8 103 0 980.3 NA 0.0000 9999 1080 0 0 0
2019/10/17 18:23:00 BASE 13.61 358 16.87 250 1.7 100 1.7 102 0 980.0 NA 0.0000 9999 1310 0 0 0
2019/10/17 18:24:01 BASE 13.51 2 15.74 360 1.7 100 1.7 102 0 981.1 NA 0.0000 9999 1280 0 0 0
2019/10/17 18:25:00 BASE 13.97 3 15.74 360 1.7 100 1.7 101 0 981.1 NA 0.0000 9999 1410 0 0 0
2019/10/17 18:26:00 BASE 14.44 3 15.74 360 1.7 100 1.7 99 0 981.0 NA 0.0000 9999 1150 0 0 0
2019/10/17 18:27:00 BASE 15.31 6 17.65 6 1.7 100 1.7 97 0 980.1 NA 0.0000 9999 890 0 0 0
2019/10/17 18:28:00 BASE 16.01 8 18.31 6 1.7 100 1.7 94 0 980.6 NA 0.0000 9999 660 0 0 0
2019/10/17 18:29:00 BASE 15.50 7 18.31 6 1.7 100 1.7 92 0 981.0 NA 0.0000 9999 490 0 0 0
2019/10/17 18:30:00 BASE 15.23 7 18.31 6 1.7 100 1.7 91 0 981.0 NA 0.0000 9999 590 0 0 0
2019/10/17 18:31:00 BASE 15.67 5 18.31 6 1.7 100 1.7 91 0 981.0 NA 0.0000 9999 460 1540 0 0
2019/10/17 18:32:00 BASE 16.28 2 18.31 6 1.7 100 1.7 92 0 981.0 NA 0.0000 9999 520 0 0 0
2019/10/17 18:33:00 BASE 15.99 359 18.31 6 1.7 100 1.7 96 0 980.6 NA 0.0000 9999 520 0 0 0
2019/10/17 18:34:01 BASE 15.71 353 18.31 6 1.7 100 1.7 97 0 981.0 NA 0.0000 9999 490 0 0 0
2019/10/17 18:35:00 BASE 16.19 357 18.31 6 1.7 100 1.7 95 0 981.0 NA 0.0000 9999 590 0 0 0
2019/10/17 18:36:01 BASE 16.59 8 18.31 6 1.7 100 1.7 92 0 981.0 NA 0.0000 9999 520 1610 0 0
2019/10/17 18:37:00 BASE 16.48 8 18.31 6 1.7 100 1.7 89 0 981.0 NA 0.0000 9999 520 1510 0 0
2019/10/17 18:38:00 BASE 16.35 8 18.11 8 1.7 100 1.7 91 0 980.9 NA 0.0000 9999 590 0 0 0
2019/10/17 18:39:00 BASE 16.57 8 18.11 8 1.7 100 1.7 92 0 980.9 NA 0.0000 9999 430 0 0 0
2019/10/17 18:40:00 BASE 16.22 8 18.11 8 1.7 100 1.7 94 0 980.9 NA 0.0000 9999 490 1640 0 0
2019/10/17 18:41:00 BASE 16.05 8 18.11 8 1.6 100 1.6 101 0 980.9 NA 0.0000 9999 560 1540 0 0
2019/10/17 18:42:00 BASE 15.98 8 18.11 8 1.6 100 1.6 108 0 980.9 NA 0.0000 9999 690 0 0 0
2019/10/17 18:43:00 BASE 15.47 9 18.11 8 1.6 100 1.6 111 0 980.9 NA 0.0000 9999 850 0 0 0
2019/10/17 18:44:00 BASE 15.40 10 18.11 8 1.7 100 1.7 108 0 980.9 NA 0.0000 9999 690 0 0 0
2019/10/17 18:45:00 BASE 15.45 10 17.85 7 1.7 100 1.7 102 0 980.9 NA 0.0000 9999 430 1540 0 0
2019/10/17 18:46:00 BASE 15.15 10 17.85 7 1.7 100 1.7 100 0 980.8 NA 0.0000 9999 360 0 0 0
2019/10/17 18:47:00 BASE 15.24 8 17.85 7 1.7 100 1.7 99 0 980.8 NA 0.0000 9999 360 0 0 0
2019/10/17 18:48:00 BASE 15.47 8 17.85 7 1.7 100 1.7 97 0 980.8 NA 0.0000 9999 390 0 0 0
2019/10/17 18:49:00 BASE 15.54 8 17.59 13 1.7 100 1.7 93 0 980.8 NA 0.0000 9999 390 0 0 0
2019/10/17 18:50:00 BASE 15.52 9 17.59 13 1.7 100 1.7 89 0 980.4 NA 0.0000 9999 490 0 0 0
2019/10/17 18:51:00 BASE 15.69 8 17.59 13 1.7 100 1.7 86 0 980.2 NA 0.0000 9999 430 1380 0 0
2019/10/17 18:52:00 BASE 15.76 6 17.59 13 1.7 100 1.7 87 0 980.8 NA 0.0000 9999 390 0 0 0
2019/10/17 18:53:00 BASE 15.44 4 17.59 13 1.7 100 1.7 91 0 980.8 NA 0.0000 9999 360 0 0 0
2019/10/17 18:54:00 BASE 14.66 3 17.18 7 1.7 100 1.7 95 0 980.8 NA 0.0000 9999 430 0 0 0
2019/10/17 18:55:00 BASE 14.34 4 17.18 7 1.7 100 1.7 96 0 980.0 NA 0.0000 9999 390 0 0 0
2019/10/17 18:56:00 BASE 14.53 2 17.03 3 1.7 100 1.7 97 0 980.8 NA 0.0000 9999 430 1540 0 0
2019/10/17 18:57:00 BASE 14.87 1 17.03 3 1.7 100 1.7 104 0 980.8 NA 0.0000 9999 460 0 0 0
2019/10/17 18:58:00 BASE 14.92 1 17.03 3 1.7 100 1.7 110 0 980.8 NA 0.0000 9999 430 0 0 0
2019/10/17 18:59:00 BASE 14.67 0 17.03 3 1.7 100 1.7 112 0 980.7 NA 0.0000 9999 460 0 0 0
2019/10/17 19:00:00 BASE 15.30 1 17.03 360 1.7 100 1.7 107 0 980.7 NA 0.0000 9999 520 0 0 0
2019/10/17 19:01:00 BASE 15.73 0 17.18 2 1.7 100 1.7 102 0 980.7 NA 0.0000 9999 430 0 0 0
2019/10/17 19:02:00 BASE 15.71 359 17.80 1 1.7 100 1.7 101 0 980.7 NA 0.0000 9999 430 0 0 0
2019/10/17 19:03:00 BASE 15.32 359 17.80 1 1.8 100 1.8 101 0 980.7 NA 0.0000 9999 390 0 0 0
2019/10/17 19:04:00 BASE 15.27 358 17.80 1 1.8 100 1.8 96 0 980.6 NA 0.0000 9999 390 0 0 0
2019/10/17 19:05:00 BASE 15.85 354 17.80 2 1.8 100 1.8 89 0 980.6 NA 0.0000 9999 1380 0 0 0
2019/10/17 19:06:00 BASE 16.21 346 18.06 352 1.8 100 1.8 85 0 980.6 NA 0.0000 9999 1410 0 0 0
2019/10/17 19:07:00 BASE 16.75 351 18.11 352 1.8 100 1.8 82 0 980.6 NA 0.0000 9999 1310 0 0 0
2019/10/17 19:08:00 BASE 16.87 352 19.03 360 1.8 100 1.8 83 0 980.5 NA 0.0000 9999 1050 0 0 0
2019/10/17 19:09:00 BASE 18.21 354 21.71 5 1.8 100 1.8 83 0 980.4 NA 0.0000 9999 620 0 0 0
2019/10/17 19:10:00 BASE 19.22 3 21.71 5 1.8 100 1.8 87 0 980.4 NA 0.0000 9999 950 0 0 0
2019/10/17 19:11:00 BASE 19.14 4 21.71 5 1.7 100 1.7 86 0 980.4 NA 0.0000 9999 660 0 0 0
2019/10/17 19:12:00 BASE 19.36 3 21.71 5 1.7 100 1.7 83 0 980.4 NA 0.0000 9999 460 0 0 0
2019/10/17 19:13:00 BASE 18.93 3 21.71 5 1.7 100 1.7 82 0 980.4 NA 0.0000 9999 430 0 0 0
2019/10/17 19:14:00 BASE 19.37 4 21.71 5 1.7 100 1.7 82 0 980.3 NA 0.0000 9999 590 0 0 0
2019/10/17 19:15:00 BASE 19.14 2 21.71 5 1.7 100 1.7 83 0 980.4 NA 0.0000 9999 430 0 0 0
2019/10/17 19:16:00 BASE 18.43 0 21.71 5 1.7 100 1.7 85 0 980.3 NA 0.0000 9999 460 0 0 0
2019/10/17 19:17:00 BASE 18.57 354 21.71 5 1.7 100 1.7 86 0 980.3 NA 0.0000 9999 1280 0 0 0
2019/10/17 19:18:00 BASE 17.62 355 21.71 5 1.7 100 1.7 87 0 980.4 NA 0.0000 9999 1640 0 0 0
2019/10/17 19:19:00 BASE 17.15 353 21.61 360 1.7 100 1.7 84 0 980.4 NA 0.0000 9999 1120 0 0 0
2019/10/17 19:20:00 BASE 17.77 351 21.61 360 1.7 100 1.7 78 0 980.4 NA 0.0000 9999 460 0 0 0
2019/10/17 19:21:00 BASE 17.86 355 21.61 360 1.7 100 1.7 75 0 980.4 NA 0.0000 9999 590 0 0 0
2019/10/17 19:22:00 BASE 17.47 355 21.61 360 1.8 100 1.8 76 0 980.5 NA 0.0000 9999 460 0 0 0
2019/10/17 19:23:00 BASE 16.22 354 21.61 360 1.8 100 1.8 79 0 980.5 NA 0.0000 9999 430 0 0 0
2019/10/17 19:24:00 BASE 16.38 355 19.86 5 1.8 100 1.8 86 0 980.4 NA 0.0000 9999 390 0 0 0
2019/10/17 19:25:00 BASE 17.21 359 20.27 7 1.8 100 1.8 92 0 980.4 NA 0.0000 9999 390 0 0 0
2019/10/17 19:26:00 BASE 17.92 1 20.78 4 1.8 100 1.8 97 0 980.3 NA 0.0000 9999 390 0 0 0
2019/10/17 19:27:00 BASE 18.13 358 20.78 4 1.8 100 1.8 98 0 980.4 NA 0.0000 9999 430 0 0 0
2019/10/17 19:28:00 BASE 17.00 357 20.78 4 1.7 100 1.7 95 0 980.4 NA 0.0000 9999 460 2130 0 0
2019/10/17 19:29:00 BASE 18.90 359 22.53 354 1.8 100 1.8 92 0 980.1 NA 0.0000 9999 1510 0 0 0
2019/10/17 19:30:00 BASE 19.11 352 22.53 354 1.8 100 1.8 92 0 980.3 NA 0.0000 9999 1380 0 0 0
2019/10/17 19:31:00 BASE 17.30 352 22.53 354 1.8 100 1.8 87 0 980.3 NA 0.0000 9999 1380 2300 0 0
2019/10/17 19:32:00 BASE 17.42 356 22.53 354 1.8 100 1.8 82 0 980.3 NA 0.0000 9999 1350 0 0 0
2019/10/17 19:33:00 BASE 17.68 352 22.53 354 1.8 100 1.8 77 0 980.3 NA 0.0000 9999 1480 0 0 0
2019/10/17 19:34:00 BASE 18.53 356 22.53 354 1.8 100 1.8 75 0 980.3 NA 0.0000 9999 460 0 0 0
2019/10/17 19:35:00 BASE 18.53 6 22.53 354 1.8 100 1.8 77 0 980.3 NA 0.0000 9999 1380 0 0 0
2019/10/17 19:36:00 BASE 18.53 359 22.53 354 1.9 100 1.9 81 0 980.2 NA 0.0000 9999 1440 0 0 0
2019/10/17 19:37:00 BASE 17.43 355 22.53 354 1.9 100 1.9 82 0 980.3 NA 0.0000 9999 1610 0 0 0
2019/10/17 19:38:01 BASE 17.26 360 22.53 354 1.9 100 1.9 78 0 980.3 NA 0.0000 9999 1410 0 0 0
2019/10/17 19:39:00 BASE 17.38 358 20.68 4 1.9 100 1.9 75 0 980.4 NA 0.0000 9999 1280 0 0 0
2019/10/17 19:40:00 BASE 16.47 355 20.68 4 1.8 100 1.8 72 0 980.3 NA 0.0000 9999 1410 0 0 0
2019/10/17 19:41:00 BASE 17.11 357 20.68 4 1.8 100 1.8 71 0 980.3 NA 0.0000 9999 1250 0 0 0
2019/10/17 19:42:01 BASE 17.23 355 20.68 4 1.8 100 1.8 67 0 980.4 NA 0.0000 9999 1250 0 0 0
2019/10/17 19:43:01 BASE 16.48 349 20.68 4 1.8 100 1.8 64 0 979.1 NA 0.0000 9999 950 0 0 0
2019/10/17 19:44:01 BASE 15.47 347 20.68 4 1.8 100 1.8 60 0 980.4 NA 0.0000 9999 1250 0 0 0
2019/10/17 19:45:01 BASE 15.98 347 20.47 354 1.8 100 1.8 61 0 980.4 NA 0.0000 9999 1250 0 0 0
2019/10/17 19:46:01 BASE 17.09 345 20.27 1 1.8 100 1.8 63 0 980.4 NA 0.0000 9999 1080 0 0 0
2019/10/17 19:47:01 BASE 17.22 345 20.27 1 1.8 100 1.8 63 0 980.4 NA 0.0000 9999 1280 0 0 0
2019/10/17 19:48:01 BASE 17.12 343 19.81 345 1.8 100 1.8 64 0 980.2 NA 0.0000 9999 1180 0 0 0
2019/10/17 19:49:01 BASE 16.82 343 19.81 345 1.8 100 1.8 64 0 979.6 NA 0.0000 9999 1020 0 0 0
2019/10/17 19:50:01 BASE 17.71 353 20.68 350 1.8 100 1.8 62 0 980.2 NA 0.0000 9999 720 0 0 0
2019/10/17 19:51:01 BASE 18.28 359 20.68 350 1.8 100 1.8 65 0 980.4 NA 0.0000 9999 490 0 0 0
2019/10/17 19:52:01 BASE 18.46 354 21.50 346 1.8 100 1.8 66 0 980.2 NA 0.0000 9999 490 0 0 0
2019/10/17 19:53:01 BASE 19.49 349 21.50 346 1.8 100 1.8 61 0 980.3 NA 0.0000 9999 1050 0 0 0
2019/10/17 19:54:01 BASE 19.34 347 21.50 346 1.8 100 1.8 58 0 980.4 NA 0.0000 9999 360 1180 0 0
2019/10/17 19:55:01 BASE 18.62 346 21.50 346 1.7 100 1.7 55 0 980.4 NA 0.0000 9999 1150 0 0 0
2019/10/17 19:56:01 BASE 19.08 344 21.50 344 1.7 100 1.7 54 0 980.4 NA 0.0000 9999 390 0 0 0
2019/10/17 19:57:01 BASE 19.83 345 21.66 343 1.7 100 1.7 55 0 980.4 NA 0.0000 9999 390 0 0 0
2019/10/17 19:58:01 BASE 19.49 348 21.66 343 1.6 100 1.6 57 0 980.4 NA 0.0000 9999 430 0 0 0
2019/10/17 19:59:01 BASE 19.26 353 21.92 360 1.6 100 1.6 60 0 980.3 NA 0.0000 9999 460 0 0 0
2019/10/17 20:00:01 BASE 18.95 356 21.92 360 1.6 100 1.6 69 0 980.3 NA 0.0000 9999 430 0 0 0
2019/10/17 20:01:01 BASE 17.77 351 21.92 360 1.6 100 1.6 75 0 980.4 NA 0.0000 9999 820 0 0 0
2019/10/17 20:02:01 BASE 17.76 345 21.92 360 1.6 100 1.6 77 0 980.4 NA 0.0000 9999 560 0 0 0
2019/10/17 20:03:01 BASE 19.68 347 23.41 346 1.6 100 1.6 77 0 980.2 NA 0.0000 9999 620 0 0 0
2019/10/17 20:04:01 BASE 20.32 348 23.41 346 1.7 100 1.7 80 0 980.2 NA 0.0000 9999 560 0 0 0
2019/10/17 20:05:01 BASE 20.73 349 23.41 346 1.7 100 1.7 84 0 979.9 NA 0.0000 9999 430 0 0 0
2019/10/17 20:06:01 BASE 21.41 347 23.41 346 1.7 100 1.7 87 0 979.6 NA 0.0000 9999 430 0 0 0
2019/10/17 20:07:01 BASE 20.06 348 23.41 346 1.7 100 1.7 90 0 980.3 NA 0.0000 9999 460 0 0 0
2019/10/17 20:08:01 BASE 19.05 354 23.41 346 1.7 100 1.7 92 0 980.3 NA 0.0000 9999 850 0 0 0
2019/10/17 20:09:01 BASE 18.25 354 23.41 346 1.7 100 1.7 93 0 980.4 NA 0.0000 9999 360 0 0 0
2019/10/17 20:10:01 BASE 17.63 351 23.41 346 1.7 100 1.7 93 0 980.4 NA 0.0000 9999 430 0 0 0
2019/10/17 20:11:01 BASE 18.53 347 23.41 346 1.7 100 1.7 95 0 980.4 NA 0.0000 9999 790 0 0 0
2019/10/17 20:12:01 BASE 19.81 346 23.41 346 1.6 100 1.6 97 0 980.3 NA 0.0000 9999 850 0 0 0
2019/10/17 20:13:00 BASE 20.07 346 23.25 349 1.6 100 1.6 98 0 980.3 NA 0.0000 9999 750 0 0 0
2019/10/17 20:14:01 BASE 19.58 348 23.25 349 1.6 100 1.6 95 0 980.3 NA 0.0000 9999 590 0 0 0
2019/10/17 20:15:00 BASE 20.42 351 23.61 354 1.6 100 1.6 89 0 980.3 NA 0.0000 9999 1080 0 0 0
2019/10/17 20:16:01 BASE 20.28 352 23.61 354 1.6 100 1.6 87 0 980.0 NA 0.0000 9999 1210 0 0 0
2019/10/17 20:17:00 BASE 20.41 353 23.61 354 1.6 100 1.6 84 0 979.8 NA 0.0000 9999 1280 0 0 0
2019/10/17 20:18:01 BASE 22.31 350 25.31 346 1.6 100 1.6 86 0 980.2 NA 0.0000 9999 430 0 0 0
2019/10/17 20:19:00 BASE 22.87 348 25.31 346 1.7 100 1.7 92 0 980.2 NA 0.0000 9999 430 0 0 0
2019/10/17 20:20:00 BASE 22.03 350 25.31 346 1.7 100 1.7 101 0 980.3 NA 0.0000 9999 430 0 0 0
2019/10/17 20:21:00 BASE 20.51 353 25.31 346 1.7 100 1.7 113 0 980.4 NA 0.0000 9999 430 0 0 0
2019/10/17 20:22:01 BASE 21.25 354 25.31 346 1.7 100 1.7 121 0 980.2 NA 0.0000 9999 1280 0 0 0
2019/10/17 20:23:00 BASE 22.22 350 25.31 346 1.7 100 1.7 123 0 980.3 NA 0.0000 9999 1310 0 0 0
2019/10/17 20:24:01 BASE 20.68 351 25.31 346 1.7 100 1.7 127 0 980.3 NA 0.0000 9999 1180 0 0 0
2019/10/17 20:25:00 BASE 19.80 351 25.31 346 1.7 100 1.7 131 0 980.3 NA 0.0000 9999 1380 0 0 0
2019/10/17 20:26:00 BASE 21.48 347 25.31 346 1.6 100 1.6 139 0 980.2 NA 0.0000 9999 1770 0 0 0
2019/10/17 20:27:00 BASE 21.99 351 25.31 346 1.6 100 1.6 149 0 980.3 NA 0.0000 9999 1310 1800 0 0
2019/10/17 20:28:00 BASE 20.96 354 25.21 2 1.6 100 1.6 150 0 980.3 NA 0.0000 9999 1940 5840 0 0
2019/10/17 20:29:00 BASE 20.24 353 25.21 2 1.6 100 1.6 148 0 980.4 NA 0.0000 9999 1280 5870 21360 0
2019/10/17 20:30:00 BASE 19.55 354 25.21 2 1.6 100 1.6 154 0 980.4 NA 0.0000 9999 1180 1870 0 0
2019/10/17 20:31:00 BASE 19.78 350 25.21 2 1.6 100 1.6 149 0 980.3 NA 0.0000 9999 2000 0 0 0
2019/10/17 20:32:00 BASE 19.73 347 24.74 341 1.6 100 1.6 142 0 980.4 NA 0.0000 9999 1800 0 0 0
2019/10/17 20:33:00 BASE 20.81 350 25.52 354 1.6 100 1.6 132 0 980.2 NA 0.0000 9999 1870 0 0 0
2019/10/17 20:34:00 BASE 20.47 350 25.52 354 1.6 100 1.6 123 0 980.3 NA 0.0000 9999 1440 0 0 0
2019/10/17 20:35:00 BASE 19.24 349 25.52 354 1.6 100 1.6 122 0 980.4 NA 0.0000 9999 1610 0 0 0
2019/10/17 20:36:00 BASE 20.03 348 25.52 354 1.6 100 1.6 118 0 980.4 NA 0.0000 9999 1310 1770 2300 0
2019/10/17 20:37:00 BASE 20.32 348 25.52 354 1.6 100 1.6 115 0 980.3 NA 0.0000 9999 1570 0 0 0
2019/10/17 20:38:00 BASE 19.73 348 25.52 354 1.6 100 1.6 115 0 980.4 NA 0.0000 9999 1310 0 0 0
2019/10/17 20:39:00 BASE 18.74 347 25.52 354 1.5 100 1.5 115 0 980.5 NA 0.0000 9999 1310 0 0 0
2019/10/17 20:40:00 BASE 17.29 345 25.52 354 1.5 100 1.5 121 0 980.6 NA 0.0000 9999 1250 0 0 0
2019/10/17 20:41:01 BASE 17.49 345 25.52 354 1.5 100 1.5 124 0 980.6 NA 0.0000 9999 1210 0 0 0
2019/10/17 20:42:00 BASE 18.85 341 25.52 354 1.5 100 1.5 124 0 980.6 NA 0.0000 9999 1510 0 0 0
2019/10/17 20:43:00 BASE 18.21 340 22.12 350 1.5 100 1.5 121 0 980.6 NA 0.0000 9999 1380 0 0 0
2019/10/17 20:44:00 BASE 19.08 344 22.12 350 1.5 100 1.5 115 0 980.6 NA 0.0000 9999 1080 0 0 0
2019/10/17 20:45:00 BASE 19.32 346 22.07 346 1.5 100 1.5 116 0 980.7 NA 0.0000 9999 1080 0 0 0
2019/10/17 20:46:00 BASE 18.12 350 22.07 346 1.5 100 1.5 127 0 980.7 NA 0.0000 9999 1120 0 0 0
2019/10/17 20:47:00 BASE 18.96 352 21.97 349 1.6 100 1.6 134 0 980.7 NA 0.0000 9999 980 0 0 0
2019/10/17 20:48:00 BASE 19.31 357 21.97 349 1.6 100 1.6 139 0 980.7 NA 0.0000 9999 1210 0 0 0
2019/10/17 20:49:00 BASE 19.38 358 21.97 349 1.6 100 1.6 149 0 980.4 NA 0.0000 9999 1150 0 0 0
2019/10/17 20:50:00 BASE 19.98 350 22.69 352 1.6 100 1.6 160 0 980.7 NA 0.0000 9999 1050 1670 0 0
2019/10/17 20:51:00 BASE 19.64 348 22.69 352 1.6 100 1.6 161 0 980.7 NA 0.0000 9999 1080 0 0 0
2019/10/17 20:52:00 BASE 17.66 350 22.69 352 1.6 100 1.6 171 0 980.8 NA 0.0000 9999 1080 0 0 0
2019/10/17 20:53:00 BASE 17.41 351 22.69 352 1.6 100 1.6 176 0 980.8 NA 0.0000 9999 1080 2530 0 0
2019/10/17 20:54:00 BASE 18.25 352 22.69 352 1.5 100 1.5 180 0 980.8 NA 0.0000 9999 1150 1870 0 0
2019/10/17 20:55:00 BASE 18.13 357 22.69 352 1.5 100 1.5 173 0 980.7 NA 0.0000 9999 1480 2460 0 0
2019/10/17 20:56:00 BASE 17.37 0 22.69 352 1.5 100 1.5 163 0 980.8 NA 0.0000 9999 980 2490 0 0
2019/10/17 20:57:00 BASE 18.36 356 22.69 352 1.5 100 1.5 166 0 980.7 NA 0.0000 9999 590 0 0 0
2019/10/17 20:58:00 BASE 20.05 348 22.69 352 1.5 100 1.5 161 0 980.7 NA 0.0000 9999 1150 0 0 0
2019/10/17 20:59:00 BASE 18.38 344 22.69 352 1.5 100 1.5 149 0 980.8 NA 0.0000 9999 2430 0 0 0
2019/10/17 21:00:00 BASE 18.11 349 22.53 3 1.5 100 1.5 141 0 980.8 NA 0.0000 9999 1770 2200 0 0
2019/10/17 21:01:00 BASE 19.39 353 22.53 3 1.4 100 1.4 138 0 980.7 NA 0.0000 9999 1440 0 0 0
2019/10/17 21:02:00 BASE 19.55 354 22.53 3 1.4 100 1.4 133 0 980.7 NA 0.0000 9999 1670 0 0 0
2019/10/17 21:03:00 BASE 18.73 351 22.53 3 1.4 100 1.4 131 0 980.8 NA 0.0000 9999 1380 0 0 0
2019/10/17 21:04:00 BASE 17.26 350 22.53 3 1.4 100 1.4 131 0 980.9 NA 0.0000 9999 1180 2030 0 0
2019/10/17 21:05:00 BASE 16.17 351 22.53 3 1.4 100 1.4 119 0 981.0 NA 0.0000 9999 920 0 0 0
2019/10/17 21:06:00 BASE 16.48 351 22.53 3 1.4 100 1.4 116 0 980.9 NA 0.0000 9999 820 1510 0 0
2019/10/17 21:07:00 BASE 17.53 353 22.28 352 1.4 100 1.4 121 0 980.9 NA 0.0000 9999 1280 1900 0 0
2019/10/17 21:08:00 BASE 16.70 354 22.28 352 1.4 100 1.4 117 0 981.0 NA 0.0000 9999 950 0 0 0
2019/10/17 21:09:00 BASE 16.69 353 22.28 352 1.4 100 1.4 117 0 981.0 NA 0.0000 9999 1350 0 0 0
2019/10/17 21:10:00 BASE 17.53 353 22.28 352 1.3 100 1.3 113 0 981.0 NA 0.0000 9999 850 0 0 0
2019/10/17 21:11:00 BASE 16.90 349 21.81 360 1.3 100 1.3 112 0 981.0 NA 0.0000 9999 1080 0 0 0
2019/10/17 21:12:00 BASE 17.02 353 20.78 360 1.3 100 1.3 111 0 981.0 NA 0.0000 9999 890 0 0 0
2019/10/17 21:13:00 BASE 18.06 358 20.89 1 1.3 100 1.3 114 0 980.9 NA 0.0000 9999 920 1770 0 0
2019/10/17 21:14:00 BASE 17.27 360 20.89 1 1.3 100 1.3 119 0 980.2 NA 0.0000 9999 1410 0 0 0
2019/10/17 21:15:00 BASE 17.58 0 23.10 170 1.3 100 1.3 133 0 980.9 NA 0.0000 9999 1740 0 0 0
2019/10/17 21:16:00 BASE 19.30 355 23.10 170 1.3 100 1.3 133 0 980.8 NA 0.0000 9999 1410 23430 0 0
2019/10/17 21:17:00 BASE 18.78 355 23.10 170 1.3 100 1.3 150 0 980.8 NA 0.0000 9999 1310 2620 0 0
2019/10/17 21:18:00 BASE 16.54 354 23.10 170 1.3 100 1.3 128 0 980.2 NA 0.0000 9999 850 2430 0 0
2019/10/17 21:19:00 BASE 15.76 351 23.10 170 1.3 100 1.3 118 0 980.6 NA 0.0000 9999 950 0 0 0
2019/10/17 21:20:00 BASE 16.57 353 23.10 170 1.2 100 1.2 108 0 980.1 NA 0.0000 9999 1310 0 0 0
2019/10/17 21:21:00 BASE 17.14 355 23.10 170 1.2 100 1.2 107 0 980.9 NA 0.0000 9999 980 0 0 0
2019/10/17 21:22:00 BASE 19.06 355 23.10 170 1.2 100 1.2 103 0 980.3 NA 0.0000 9999 1020 1940 0 0
2019/10/17 21:23:00 BASE 19.75 352 23.10 170 1.2 100 1.2 111 0 980.8 NA 0.0000 9999 850 0 0 0
2019/10/17 21:24:00 BASE 18.94 353 23.10 170 1.2 100 1.2 104 0 980.9 NA 0.0000 9999 520 0 0 0
2019/10/17 21:25:00 BASE 18.41 359 22.74 360 1.2 100 1.2 103 0 980.9 NA 0.0000 9999 0 0 0 390
2019/10/17 21:26:00 BASE 18.02 359 22.64 347 1.2 100 1.2 100 0 980.9 NA 0.0000 9999 460 1740 0 0
2019/10/17 21:27:00 BASE 17.44 354 22.64 347 1.2 100 1.2 101 0 980.9 NA 0.0000 9999 0 0 0 1020
2019/10/17 21:28:00 BASE 17.26 352 22.64 347 1.2 100 1.2 107 0 980.8 NA 0.0000 9999 920 0 0 0
2019/10/17 21:29:00 BASE 17.92 353 22.64 347 1.2 100 1.2 107 0 980.9 NA 0.0000 9999 1350 0 0 0
2019/10/17 21:30:00 BASE 17.66 358 22.64 347 1.2 100 1.2 106 0 980.8 NA 0.0000 9999 1570 0 0 0
2019/10/17 21:31:00 BASE 18.63 359 23.77 1 1.2 100 1.2 104 0 980.8 NA 0.0000 9999 1310 0 0 0
2019/10/17 21:32:00 BASE 19.21 356 23.77 1 1.2 100 1.2 108 0 980.9 NA 0.0000 9999 1510 0 0 0
2019/10/17 21:33:00 BASE 18.08 356 23.77 1 1.2 100 1.2 114 0 980.9 NA 0.0000 9999 1440 0 0 0
2019/10/17 21:34:00 BASE 17.95 0 23.77 1 1.2 100 1.2 116 0 980.4 NA 0.0000 9999 1480 0 0 0
2019/10/17 21:35:00 BASE 16.63 357 23.77 1 1.2 100 1.2 115 0 980.6 NA 0.0000 9999 1570 2690 0 0
2019/10/17 21:36:00 BASE 15.17 356 23.77 1 1.3 100 1.3 115 0 981.0 NA 0.0000 9999 1280 0 0 0
2019/10/17 21:37:00 BASE 15.84 359 23.77 1 1.3 100 1.3 116 0 980.7 NA 0.0000 9999 1150 20380 0 0
2019/10/17 21:38:00 BASE 16.79 360 23.77 1 1.3 100 1.3 117 0 980.5 NA 0.0000 9999 1380 2360 0 0
2019/10/17 21:39:00 BASE 15.94 1 23.77 1 1.3 100 1.3 119 0 980.9 NA 0.0000 9999 1440 2260 0 0
2019/10/17 21:40:00 BASE 15.11 1 23.77 1 1.3 100 1.3 120 0 980.1 NA 0.0000 9999 2300 0 0 0
2019/10/17 21:41:00 BASE 14.30 0 20.11 353 1.3 100 1.3 118 0 981.0 NA 0.0000 9999 1800 2620 0 0
2019/10/17 21:42:00 BASE 12.98 356 20.11 353 1.3 100 1.3 116 0 981.0 NA 0.0000 9999 2230 0 0 0
2019/10/17 21:43:00 BASE 14.06 355 19.60 4 1.3 100 1.3 113 0 980.9 NA 0.0000 9999 2360 0 0 0
2019/10/17 21:44:00 BASE 17.17 357 20.11 2 1.3 100 1.3 108 0 980.8 NA 0.0000 9999 2100 20870 0 0
2019/10/17 21:45:00 BASE 18.11 356 20.11 2 1.3 100 1.3 112 0 980.8 NA 0.0000 9999 1800 0 0 0
2019/10/17 21:46:00 BASE 17.56 358 20.42 15 1.3 100 1.3 117 0 980.8 NA 0.0000 9999 1870 0 0 0
2019/10/17 21:47:00 BASE 18.98 2 22.53 1 1.3 100 1.3 120 0 980.7 NA 0.0000 9999 2100 0 0 0
2019/10/17 21:48:00 BASE 19.16 0 22.53 1 1.4 100 1.4 114 0 980.8 NA 0.0000 9999 2170 0 0 0
2019/10/17 21:49:00 BASE 17.71 359 22.53 1 1.4 100 1.4 120 0 980.8 NA 0.0000 9999 2070 0 0 0
2019/10/17 21:50:00 BASE 16.90 358 22.53 1 1.4 100 1.4 136 0 980.9 NA 0.0000 9999 2030 0 0 0
2019/10/17 21:51:00 BASE 16.58 355 22.53 1 1.4 100 1.4 141 0 980.9 NA 0.0000 9999 2070 0 0 0
2019/10/17 21:52:00 BASE 16.06 359 22.53 1 1.4 100 1.4 140 0 980.9 NA 0.0000 9999 2300 0 0 0
2019/10/17 21:53:00 BASE 16.28 1 22.53 1 1.5 100 1.5 142 0 980.8 NA 0.0000 9999 2100 0 0 0
2019/10/17 21:54:00 BASE 17.65 1 22.53 1 1.5 100 1.5 145 0 980.4 NA 0.0000 9999 2130 0 0 0
2019/10/17 21:55:00 BASE 19.06 8 22.53 1 1.5 100 1.5 148 0 980.7 NA 0.0000 9999 2260 0 0 0
2019/10/17 21:56:00 BASE 19.33 8 22.53 1 1.5 100 1.5 147 0 980.7 NA 0.0000 9999 2070 0 0 0
2019/10/17 21:57:00 BASE 18.46 5 22.28 6 1.5 100 1.5 146 0 980.7 NA 0.0000 9999 2000 0 0 0
2019/10/17 21:58:00 BASE 18.64 8 22.28 6 1.5 100 1.5 147 0 980.7 NA 0.0000 9999 2200 0 0 0
2019/10/17 21:59:00 BASE 18.57 9 22.28 6 1.5 100 1.5 149 0 980.7 NA 0.0000 9999 2000 0 0 0
2019/10/17 22:00:00 BASE 17.55 9 22.28 6 1.5 100 1.5 149 0 980.1 NA 0.0000 9999 2230 0 0 0
2019/10/17 22:01:00 BASE 17.98 8 22.28 6 1.5 100 1.5 151 0 980.7 NA 0.0000 9999 2130 0 0 0
2019/10/17 22:02:01 BASE 18.35 8 22.28 6 1.5 100 1.5 154 0 979.9 NA 0.0000 9999 2170 0 0 0
2019/10/17 22:03:00 BASE 18.40 8 22.28 6 1.5 100 1.5 148 0 980.6 NA 0.0000 9999 2200 0 0 0
2019/10/17 22:04:01 BASE 18.48 8 22.28 6 1.5 100 1.5 137 0 980.6 NA 0.0000 9999 2130 0 0 0
2019/10/17 22:05:00 BASE 17.22 7 20.53 8 1.5 100 1.5 128 0 980.7 NA 0.0000 9999 2200 0 0 0
2019/10/17 22:06:00 BASE 16.19 8 20.27 12 1.5 100 1.5 122 0 980.5 NA 0.0000 9999 2460 0 0 0
2019/10/17 22:07:00 BASE 15.48 7 20.27 12 1.6 100 1.6 114 0 980.4 NA 0.0000 9999 2300 0 0 0
2019/10/17 22:08:01 BASE 15.74 7 20.11 8 1.6 100 1.6 100 0 979.7 NA 0.0000 9999 2560 0 0 0
2019/10/17 22:09:00 BASE 16.64 9 20.11 8 1.6 100 1.6 91 0 980.0 NA 0.0000 9999 0 0 0 0
2019/10/17 22:10:00 BASE 17.45 10 20.11 8 1.6 100 1.6 86 0 980.6 NA 0.0000 9999 19000 0 0 0
2019/10/17 22:11:00 BASE 18.21 9 20.11 8 1.6 100 1.6 80 0 980.6 NA 0.0000 9999 2460 19420 0 0
2019/10/17 22:12:00 BASE 18.78 8 20.68 6 1.6 100 1.6 75 0 980.6 NA 0.0000 9999 2530 0 0 0
2019/10/17 22:13:00 BASE 19.21 9 20.68 6 1.6 100 1.6 70 0 980.6 NA 0.0000 9999 2620 0 0 0
2019/10/17 22:14:00 BASE 18.83 8 20.68 6 1.6 100 1.6 62 0 980.6 NA 0.0000 9999 2620 0 0 0
2019/10/17 22:15:00 BASE 18.57 7 20.68 6 1.6 100 1.6 56 0 980.6 NA 0.0000 9999 2660 0 0 0
2019/10/17 22:16:00 BASE 18.46 5 20.68 6 1.6 100 1.6 54 0 980.6 NA 0.0000 9999 2620 0 0 0
2019/10/17 22:17:00 BASE 18.71 3 20.68 6 1.6 100 1.6 56 0 980.6 NA 0.0000 9999 2400 0 0 0
2019/10/17 22:18:00 BASE 19.18 4 20.68 6 1.6 100 1.6 57 0 980.7 NA 0.0000 9999 2400 0 0 0
2019/10/17 22:19:01 BASE 18.75 5 20.68 6 1.6 100 1.6 55 0 980.7 NA 0.0000 9999 2360 0 0 0
2019/10/17 22:20:00 BASE 19.20 5 21.40 4 1.6 100 1.6 51 0 980.6 NA 0.0000 9999 2490 0 0 0
2019/10/17 22:21:00 BASE 19.37 6 21.40 4 1.6 100 1.6 47 0 980.6 NA 0.0000 9999 2530 0 0 0
2019/10/17 22:22:00 BASE 18.61 4 21.40 4 1.6 100 1.6 43 0 980.6 NA 0.0000 9999 2460 0 0 0
2019/10/17 22:23:00 BASE 19.09 7 21.56 9 1.6 100 1.6 37 0 980.6 NA 0.0000 9999 2460 0 0 0
2019/10/17 22:24:00 BASE 20.00 11 21.56 9 1.6 100 1.6 32 0 980.6 NA 0.0000 9999 2530 0 0 0
2019/10/17 22:25:00 BASE 18.61 12 21.56 9 1.6 99 1.5 29 0 980.7 NA 0.0000 9999 2490 0 0 0
2019/10/17 22:26:01 BASE 16.83 12 21.56 9 1.6 99 1.5 28 0 980.7 NA 0.0000 9999 2490 0 0 0
2019/10/17 22:27:00 BASE 17.43 13 21.56 9 1.6 99 1.5 27 0 980.6 NA 0.0000 9999 2530 0 0 0
2019/10/17 22:28:00 BASE 17.68 13 21.56 9 1.6 99 1.5 26 0 980.6 NA 0.0000 9999 2460 0 0 0
2019/10/17 22:29:00 BASE 17.73 15 21.56 9 1.6 99 1.5 24 0 980.5 NA 0.0000 9999 2760 0 0 0
2019/10/17 22:30:00 BASE 18.06 15 21.56 9 1.6 99 1.4 23 0 980.6 NA 0.0000 9999 2430 0 0 0
2019/10/17 22:31:00 BASE 17.99 16 21.56 9 1.6 99 1.4 23 0 980.6 NA 0.0000 9999 2720 0 0 0
2019/10/17 22:32:01 BASE 18.15 17 21.56 9 1.5 99 1.4 25 0 980.6 NA 0.0000 9999 2530 0 0 0
2019/10/17 22:33:00 BASE 18.50 17 21.25 10 1.5 99 1.4 26 0 980.5 NA 0.0000 9999 2490 0 0 0
2019/10/17 22:34:01 BASE 18.76 17 19.75 15 1.5 99 1.4 25 0 980.5 NA 0.0000 9999 2530 0 0 0
2019/10/17 22:35:00 BASE 18.72 17 20.01 15 1.5 100 1.4 24 0 980.5 NA 0.0000 9999 2490 0 0 0
2019/10/17 22:36:01 BASE 18.50 18 20.01 15 1.5 100 1.5 21 0 980.5 NA 0.0000 9999 2660 0 0 0
2019/10/17 22:37:00 BASE 18.68 18 20.73 17 1.5 100 1.5 19 0 980.4 NA 0.0000 9999 2620 0 0 0
2019/10/17 22:38:00 BASE 18.45 17 20.73 17 1.5 100 1.5 19 0 980.5 NA 0.0000 9999 2820 0 0 0
2019/10/17 22:39:00 BASE 17.55 18 20.73 17 1.5 100 1.5 18 0 980.5 NA 0.0000 9999 2590 0 0 0
2019/10/17 22:40:00 BASE 17.56 16 20.73 17 1.5 100 1.5 17 0 980.4 NA 0.0000 9999 2590 0 0 0
2019/10/17 22:41:00 BASE 17.93 14 20.73 17 1.5 100 1.5 17 0 980.4 NA 0.0000 9999 2590 0 0 0
2019/10/17 22:42:00 BASE 17.69 13 20.73 17 1.5 100 1.5 17 0 980.5 NA 0.0000 9999 2530 0 0 0
2019/10/17 22:43:00 BASE 16.68 11 20.73 17 1.5 100 1.5 17 0 980.5 NA 0.0000 9999 2330 0 0 0
2019/10/17 22:44:01 BASE 15.65 11 20.73 17 1.5 100 1.5 18 0 980.5 NA 0.0000 9999 2360 0 0 0
2019/10/17 22:45:00 BASE 15.26 12 20.73 17 1.5 100 1.5 16 0 980.5 NA 0.0000 9999 2590 0 0 0
2019/10/17 22:46:00 BASE 15.63 14 20.73 17 1.5 100 1.5 15 0 980.4 NA 0.0000 9999 2590 0 0 0
2019/10/17 22:47:00 BASE 16.14 17 19.50 11 1.5 100 1.5 15 0 980.5 NA 0.0000 9999 2820 0 0 0
2019/10/17 22:48:00 BASE 16.97 19 19.50 11 1.5 100 1.5 16 0 980.4 NA 0.0000 9999 2790 0 0 0
2019/10/17 22:49:00 BASE 17.67 17 19.50 11 1.5 100 1.5 17 0 980.4 NA 0.0000 9999 2720 0 0 0
2019/10/17 22:50:00 BASE 17.16 14 19.45 15 1.5 100 1.5 17 0 980.4 NA 0.0000 9999 2660 0 0 0
2019/10/17 22:51:00 BASE 16.34 11 19.14 18 1.5 100 1.5 16 0 980.5 NA 0.0000 9999 2720 0 0 0
2019/10/17 22:52:00 BASE 16.09 10 19.14 18 1.5 100 1.5 15 0 980.4 NA 0.0000 9999 2560 0 0 0
2019/10/17 22:53:00 BASE 16.75 10 19.34 8 1.5 100 1.5 14 0 980.4 NA 0.0000 9999 2850 0 0 0
2019/10/17 22:54:00 BASE 17.21 10 19.34 8 1.5 100 1.5 12 0 980.4 NA 0.0000 9999 2790 0 0 0
2019/10/17 22:55:00 BASE 16.39 11 19.34 8 1.5 100 1.5 10 0 980.4 NA 0.0000 9999 2790 0 0 0
2019/10/17 22:56:00 BASE 16.72 14 19.34 8 1.6 100 1.6 9 0 980.4 NA 0.0000 9999 2720 0 0 0
2019/10/17 22:57:00 BASE 18.02 12 19.55 10 1.6 100 1.6 9 0 980.3 NA 0.0000 9999 2790 0 0 0
2019/10/17 22:58:00 BASE 18.20 9 19.55 10 1.6 100 1.6 8 0 980.3 NA 0.0000 9999 2790 0 0 0
2019/10/17 22:59:00 BASE 17.97 9 19.55 10 1.6 100 1.5 8 0 980.4 NA 0.0000 9999 2890 0 0 0
2019/10/17 23:00:00 BASE 17.09 10 19.55 10 1.6 99 1.5 8 0 980.4 NA 0.0000 9999 2720 0 0 0
2019/10/17 23:01:00 BASE 17.12 8 19.55 10 1.6 99 1.5 7 0 980.4 NA 0.0000 9999 2720 0 0 0
2019/10/17 23:02:00 BASE 17.53 8 19.55 10 1.6 99 1.5 7 0 980.4 NA 0.0000 9999 2920 0 0 0
2019/10/17 23:03:00 BASE 16.99 9 19.55 10 1.6 99 1.5 6 0 980.4 NA 0.0000 9999 2850 0 0 0
2019/10/17 23:04:00 BASE 16.61 9 19.55 10 1.6 99 1.4 6 0 980.4 NA 0.0000 9999 2790 0 0 0
2019/10/17 23:05:00 BASE 16.62 10 19.55 10 1.6 99 1.4 6 0 980.4 NA 0.0000 9999 2690 0 0 0
2019/10/17 23:06:00 BASE 16.37 10 19.55 10 1.6 99 1.4 6 0 980.5 NA 0.0000 9999 2530 0 0 0
2019/10/17 23:07:00 BASE 16.42 11 19.34 11 1.5 99 1.4 6 0 980.5 NA 0.0000 9999 2360 0 0 0
2019/10/17 23:08:00 BASE 16.43 12 18.67 8 1.5 99 1.4 6 0 980.5 NA 0.0000 9999 2360 0 0 0
2019/10/17 23:09:00 BASE 15.96 10 18.67 8 1.5 99 1.4 6 0 980.5 NA 0.0000 9999 2230 0 0 0
2019/10/17 23:10:00 BASE 15.62 10 18.67 8 1.5 99 1.3 7 0 980.5 NA 0.0000 9999 2200 0 0 0
2019/10/17 23:11:00 BASE 15.24 10 18.62 16 1.5 99 1.3 7 0 980.5 NA 0.0000 9999 2300 0 0 0
2019/10/17 23:12:00 BASE 15.26 11 18.62 16 1.4 99 1.4 7 0 980.5 NA 0.0000 9999 2330 0 0 0
2019/10/17 23:13:00 BASE 15.66 12 18.62 16 1.4 100 1.4 8 0 980.5 NA 0.0000 9999 2560 0 0 0
2019/10/17 23:14:00 BASE 16.04 11 18.62 16 1.4 100 1.3 8 0 980.4 NA 0.0000 9999 2560 0 0 0
2019/10/17 23:15:00 BASE 16.59 12 19.34 15 1.3 100 1.3 8 0 980.4 NA 0.0000 9999 2620 0 0 0
2019/10/17 23:16:00 BASE 16.79 15 19.34 15 1.3 100 1.3 7 0 980.4 NA 0.0000 9999 2620 0 0 0
2019/10/17 23:17:00 BASE 16.64 14 19.34 15 1.3 100 1.3 7 0 980.4 NA 0.0000 9999 2400 0 0 0
2019/10/17 23:18:00 BASE 16.17 16 19.34 15 1.2 100 1.2 8 0 980.4 NA 0.0000 9999 2200 0 0 0
2019/10/17 23:19:00 BASE 16.60 19 19.34 15 1.2 100 1.2 8 0 980.4 NA 0.0000 9999 2130 0 0 0
2019/10/17 23:20:00 BASE 17.57 18 19.34 15 1.2 100 1.2 8 0 980.3 NA 0.0000 9999 2230 0 0 0
2019/10/17 23:21:00 BASE 17.34 19 19.34 15 1.2 100 1.2 8 0 980.3 NA 0.0000 9999 2130 0 0 0
2019/10/17 23:22:00 BASE 17.89 19 20.01 19 1.1 100 1.1 7 0 980.3 NA 0.0000 9999 2130 0 0 0
2019/10/17 23:23:00 BASE 19.20 18 21.71 10 1.1 100 1.1 6 0 980.2 NA 0.0000 9999 2170 0 0 0
2019/10/17 23:24:00 BASE 19.83 17 22.74 17 1.0 100 1.0 6 0 980.2 NA 0.0000 9999 2030 0 0 0
2019/10/17 23:25:00 BASE 19.80 15 22.74 17 1.0 100 1.0 5 0 980.2 NA 0.0000 9999 1870 0 0 0
2019/10/17 23:26:00 BASE 18.34 14 22.74 17 1.0 100 1.0 5 0 980.3 NA 0.0000 9999 1800 0 0 0
2019/10/17 23:27:00 BASE 17.89 14 22.74 17 0.9 100 0.9 5 0 980.3 NA 0.0000 9999 1870 0 0 0
2019/10/17 23:28:00 BASE 19.43 16 22.74 17 0.9 100 0.9 4 0 980.2 NA 0.0000 9999 1770 0 0 0
2019/10/17 23:29:00 BASE 20.21 18 22.74 17 0.9 100 0.9 3 0 980.2 NA 0.0000 9999 1840 0 0 0
2019/10/17 23:30:00 BASE 20.73 17 22.94 17 0.9 100 0.9 3 0 980.2 NA 0.0000 9999 1940 0 0 0
2019/10/17 23:31:00 BASE 20.86 17 22.94 17 0.9 100 0.9 3 0 980.2 NA 0.0000 9999 1900 0 0 0
2019/10/17 23:32:00 BASE 20.56 19 22.94 17 0.9 100 0.9 2 0 980.1 NA 0.0000 9999 1740 0 0 0
2019/10/17 23:33:00 BASE 20.51 19 22.94 17 0.8 100 0.8 2 0 980.1 NA 0.0000 9999 1800 0 0 0
2019/10/17 23:34:00 BASE 19.39 20 22.94 17 0.8 100 0.8 2 0 980.1 NA 0.0000 9999 2170 0 0 0
2019/10/17 23:35:00 BASE 19.21 19 22.94 17 0.8 100 0.8 2 0 980.1 NA 0.0000 9999 2130 0 0 0
2019/10/17 23:36:01 BASE 19.54 18 22.94 17 0.8 100 0.8 2 0 980.1 NA 0.0000 9999 2070 0 0 0
2019/10/17 23:37:00 BASE 18.56 17 22.94 17 0.8 100 0.8 1 0 980.1 NA 0.0000 9999 2030 0 0 0
2019/10/17 23:38:00 BASE 18.59 16 22.94 17 0.8 100 0.8 1 0 980.1 NA 0.0000 9999 2130 0 0 0
2019/10/17 23:39:00 BASE 18.45 15 22.94 17 0.8 100 0.8 1 0 980.1 NA 0.0000 9999 2030 0 0 0
2019/10/17 23:40:00 BASE 18.07 16 22.69 19 0.7 100 0.7 1 0 980.2 NA 0.0000 9999 1940 0 0 0
2019/10/17 23:41:00 BASE 18.44 18 21.71 19 0.7 100 0.7 1 0 980.1 NA 0.0000 9999 1770 0 0 0
2019/10/17 23:42:00 BASE 19.34 19 21.92 20 0.7 100 0.7 1 0 980.1 NA 0.0000 9999 1900 2460 0 0
2019/10/17 23:43:00 BASE 19.69 20 21.92 20 0.7 100 0.7 1 0 980.0 NA 0.0000 9999 2230 0 0 0
2019/10/17 23:44:00 BASE 18.66 21 21.92 20 0.7 100 0.7 1 0 980.1 NA 0.0000 9999 2100 0 0 0
2019/10/17 23:45:00 BASE 19.04 22 21.92 20 0.7 100 0.7 1 0 980.0 NA 0.0000 9999 2130 0 0 0
2019/10/17 23:46:00 BASE 20.18 21 22.17 23 0.7 100 0.7 1 0 980.0 NA 0.0000 9999 2360 0 0 0
2019/10/17 23:47:00 BASE 20.57 21 22.17 23 0.7 100 0.7 1 0 980.0 NA 0.0000 9999 2360 0 0 0
2019/10/17 23:48:00 BASE 20.70 22 22.17 23 0.7 100 0.7 1 0 979.9 NA 0.0000 9999 2260 0 0 0
2019/10/17 23:49:00 BASE 20.46 23 22.17 20 0.7 100 0.7 0 0 980.0 NA 0.0000 9999 2330 0 0 0
2019/10/17 23:50:00 BASE 19.54 23 22.17 20 0.7 100 0.7 0 0 980.0 NA 0.0000 9999 2330 0 0 0
2019/10/17 23:51:01 BASE 19.24 24 22.17 20 0.7 100 0.7 0 0 980.0 NA 0.0000 9999 2400 0 0 0
2019/10/17 23:52:00 BASE 19.45 24 22.17 20 0.8 100 0.8 0 0 980.0 NA 0.0000 9999 2260 0 0 0
2019/10/17 23:53:00 BASE 18.98 24 22.17 20 0.8 100 0.8 0 0 980.0 NA 0.0000 9999 2260 0 0 0
2019/10/17 23:54:00 BASE 18.68 25 22.17 20 0.8 100 0.8 0 0 980.1 NA 0.0000 9999 2360 0 0 0
2019/10/17 23:55:00 BASE 19.36 23 22.17 20 0.8 100 0.8 0 0 980.0 NA 0.0000 9999 2260 0 0 0
2019/10/17 23:56:00 BASE 18.64 21 22.17 20 0.8 100 0.8 0 0 980.1 NA 0.0000 9999 2260 0 0 0
2019/10/17 23:57:00 BASE 18.35 23 22.17 20 0.8 100 0.8 0 0 980.1 NA 0.0000 9999 2200 0 0 0
2019/10/17 23:58:00 BASE 19.31 24 22.17 20 0.8 100 0.8 0 0 980.1 NA 0.0000 9999 2260 0 0 0
2019/10/17 23:59:00 BASE 18.54 23 21.97 21 0.7 100 0.7 0 0 980.1 NA 0.0000 9999 2170 0 0 0